GFSSE_850_thetae_000.txt.gz
Theta_e
336 339 337 338 339 339 338 338 337 336 336 337 337 336 336 336 336 335 334 332 330 328 326 326 325 325 325 324 323 326 328 328 329 328 324 321 318 319 327 330 329 334 331
337 339 336 336 337 338 338 338 337 337 336 336 335 336 336 335 335 334 333 331 328 328 327 326 324 324 325 326 325 325 327 328 327 323 322 320 320 320 319 323 327 335 330
337 338 336 334 334 334 336 337 338 336 336 335 334 333 333 333 332 332 332 330 330 328 325 325 324 324 326 326 326 324 325 326 326 326 326 332 333 328 319 320 325 326 329
334 338 337 332 332 334 336 336 335 334 335 333 332 332 331 331 331 330 330 328 326 324 325 326 325 324 324 323 325 326 325 325 327 327 331 332 331 325 320 318 321 325 326
330 332 328 328 329 327 328 330 331 333 331 330 327 329 330 328 329 330 329 327 324 321 319 317 321 325 324 325 324 326 327 328 329 329 333 333 332 328 322 322 321 323 324
329 330 320 319 319 319 319 319 321 326 328 327 324 322 321 320 320 320 318 317 316 316 317 318 321 327 327 324 324 325 326 326 325 331 333 333 329 330 324 325 327 325 322
325 317 316 316 317 317 317 317 318 319 320 321 320 319 318 319 319 318 316 314 311 311 313 317 320 322 321 319 318 322 325 323 325 330 332 333 331 329 327 326 325 325 327
318 315 316 316 316 316 316 316 317 318 319 318 318 318 317 317 317 317 316 312 306 307 309 311 314 316 317 317 319 319 320 322 327 331 329 330 327 327 329 329 328 326 326
318 321 321 319 318 316 316 316 316 318 318 317 318 317 317 316 316 316 314 311 307 308 310 311 311 310 310 310 310 311 314 320 328 329 328 329 327 325 325 327 329 327 327
322 327 322 322 317 315 315 313 314 315 316 317 318 318 316 315 315 315 312 307 307 309 309 309 309 310 308 307 307 309 314 320 326 327 327 326 323 323 324 324 324 321 327
329 325 326 325 317 315 313 311 309 311 313 314 315 318 318 320 315 315 311 308 307 309 310 311 310 309 309 307 307 308 312 322 324 325 326 325 324 323 322 322 324 325 323
331 328 327 326 318 315 314 313 311 310 320 317 319 316 318 315 315 313 312 309 308 310 309 308 309 309 310 314 316 312 318 314 320 322 322 320 319 320 320 320 321 323 324
332 332 329 328 317 314 315 321 325 325 322 323 315 318 323 318 324 324 324 323 320 314 316 312 309 315 309 308 312 307 307 308 316 317 317 306 310 315 319 320 320 321 323
330 333 333 329 316 314 322 325 325 324 324 325 327 316 323 325 325 324 323 322 320 319 313 318 318 307 307 307 306 304 304 305 311 313 312 304 305 308 312 318 321 321 320
330 334 336 331 315 314 313 325 322 320 324 321 325 324 319 323 323 321 319 318 318 319 319 319 318 314 307 306 305 304 304 305 305 309 309 307 307 307 306 306 312 320 322
331 334 337 331 315 313 317 313 320 315 318 320 321 319 311 312 318 317 316 316 316 316 317 317 316 310 308 306 307 304 305 307 308 306 308 308 306 306 307 307 306 307 315
328 332 335 329 314 312 313 313 313 315 311 318 317 311 310 311 313 311 315 315 315 315 314 316 313 309 307 308 306 305 305 306 308 305 306 307 307 305 305 306 306 306 305
330 332 332 322 314 312 314 314 316 318 313 317 314 312 311 311 310 310 316 316 315 313 315 316 315 314 313 310 309 309 308 308 307 306 307 306 307 306 305 304 304 304 304
327 329 330 322 318 317 314 317 313 313 314 316 313 314 312 311 311 311 312 313 313 313 313 315 315 314 313 311 309 309 309 308 308 307 307 307 306 305 306 304 303 303 303
320 325 328 320 318 314 316 314 313 312 312 312 312 312 312 312 311 311 311 312 313 316 315 314 315 314 313 311 309 309 308 309 308 307 307 307 306 307 306 306 306 306 302
321 326 326 322 313 313 314 314 314 313 313 313 313 312 312 312 312 311 311 311 311 313 314 311 314 315 315 313 311 310 309 309 309 308 307 307 306 307 307 307 305 304 304
323 323 320 316 314 313 313 312 312 312 313 312 312 312 312 311 309 306 306 308 309 310 311 312 313 313 314 314 312 311 310 310 310 309 308 307 307 307 307 307 304 303 303
316 316 315 314 313 312 312 312 312 312 312 311 310 309 308 307 305 302 302 302 302 306 308 309 310 310 311 312 313 312 311 310 310 309 309 307 307 307 306 305 302 301 301
314 313 313 313 312 312 311 310 309 310 309 308 308 308 306 304 301 300 300 299 299 301 305 306 306 307 308 308 309 311 311 310 310 309 308 308 307 306 305 303 301 301 301
313 312 312 312 311 311 310 310 309 308 308 308 307 306 304 303 302 300 299 299 299 301 303 302 303 305 306 307 307 308 309 309 308 308 308 307 305 304 302 301 302 301 301
313 312 312 312 311 310 309 309 307 307 308 307 305 303 303 303 302 302 299 299 301 301 302 302 302 302 303 303 303 303 303 303 303 304 304 306 306 304 301 301 300 300 301

GFSSE_850_thetae_006.txt.gz
Theta_e
342 340 337 339 339 339 339 338 338 338 337 337 336 336 336 337 337 335 334 332 330 328 327 327 326 325 325 324 323 323 324 324 325 326 326 325 324 323 321 323 334 335 330
342 340 339 339 338 338 338 337 337 337 337 337 337 337 337 336 335 334 332 331 330 329 329 328 328 326 325 324 324 322 324 325 326 325 327 325 330 332 328 327 323 332 329
340 337 338 338 338 337 337 337 337 337 337 336 337 336 335 333 332 331 330 329 328 327 324 320 318 316 315 315 316 320 323 325 325 326 326 327 330 331 326 323 324 323 330
341 342 335 336 334 335 336 336 335 335 335 335 333 331 329 328 325 323 321 321 319 318 316 315 315 316 318 321 324 325 324 323 325 325 325 327 332 332 330 325 323 321 321
342 341 331 331 333 334 334 333 334 333 332 330 330 327 324 321 319 318 318 318 315 310 308 309 312 316 319 322 327 326 323 323 324 325 324 326 329 328 322 322 320 319 317
337 328 327 324 324 327 328 329 330 330 330 328 324 323 320 319 318 318 317 315 312 306 309 310 310 311 315 318 319 319 319 321 322 323 326 328 328 328 324 323 323 323 319
328 318 317 317 317 319 319 319 319 320 320 320 320 319 318 317 318 317 316 315 310 308 310 310 310 310 310 309 309 309 312 315 316 318 329 329 328 324 326 326 324 323 323
329 317 316 316 316 315 315 316 318 318 319 318 318 317 317 317 316 315 315 312 308 308 309 310 310 310 310 310 310 309 309 308 308 324 329 326 328 328 328 327 326 324 323
330 320 317 316 315 314 314 315 315 315 316 315 316 317 316 315 317 314 314 311 307 307 309 310 310 309 309 309 309 309 308 308 310 325 326 326 328 326 327 326 326 327 328
330 331 331 328 321 329 318 308 309 311 312 314 317 317 320 329 326 327 322 319 313 309 311 313 313 310 309 309 313 313 312 309 322 321 325 323 324 325 325 323 324 325 326
329 331 330 330 329 329 326 317 317 320 325 325 329 323 329 327 327 325 324 325 323 323 320 319 318 317 316 316 314 315 313 320 323 320 323 323 322 321 323 324 323 323 323
330 331 333 331 329 324 326 327 326 327 326 327 327 328 330 327 327 326 327 325 324 323 322 322 320 321 321 316 313 316 317 318 314 314 320 319 318 310 310 315 319 320 321
331 331 332 332 327 329 326 328 327 327 326 327 330 326 327 325 327 326 325 323 322 321 321 320 321 321 321 315 310 309 309 310 313 316 317 317 315 306 305 307 310 314 318
330 330 334 330 319 322 329 328 327 327 326 326 326 328 325 324 323 319 321 317 318 318 318 319 319 319 318 318 312 310 308 307 307 311 312 313 311 307 306 307 307 308 311
330 329 331 328 324 324 318 328 326 325 328 322 326 324 314 315 317 316 318 317 317 317 317 317 317 317 317 316 313 312 311 310 309 308 307 311 310 308 306 307 307 307 307
329 329 332 334 327 326 328 328 328 324 323 323 322 321 314 314 314 314 313 315 317 318 317 317 317 318 318 318 317 314 312 312 310 310 310 311 310 309 307 306 306 306 306
327 328 334 327 331 325 325 325 324 322 318 321 320 320 320 318 314 313 313 317 318 318 318 317 317 317 317 317 317 316 315 313 312 311 310 309 309 309 309 307 305 305 306
329 330 330 333 330 325 324 323 322 322 321 321 321 319 319 320 318 317 317 316 317 317 315 317 317 317 318 317 316 317 316 315 313 312 311 311 310 309 309 308 306 305 305
327 329 333 332 327 324 322 321 322 321 320 320 318 317 317 317 317 317 314 313 313 315 315 317 317 318 319 318 317 317 315 315 316 313 312 311 311 310 310 309 308 308 305
326 327 329 330 324 322 323 323 320 319 318 318 317 317 317 316 317 313 312 312 313 314 314 314 315 315 313 312 314 315 315 314 315 314 314 312 311 311 310 309 309 309 307
327 326 326 328 323 322 322 320 318 317 316 316 317 316 314 313 313 312 311 311 311 311 311 311 310 309 309 310 311 313 312 313 314 316 316 314 312 311 310 310 309 308 308
328 326 325 323 320 318 317 317 316 315 315 315 315 314 313 312 312 312 310 308 308 308 308 308 309 310 309 308 309 310 311 310 310 311 311 313 314 313 312 310 309 308 309
323 321 320 318 318 317 315 315 314 314 314 313 313 313 313 312 312 308 307 307 306 306 306 302 304 305 307 308 308 307 308 309 309 309 309 310 311 312 313 312 310 309 309
319 318 317 315 314 313 313 313 313 313 314 314 314 313 311 310 308 307 306 305 305 305 304 304 305 305 305 305 305 306 306 306 304 306 307 308 309 310 311 312 312 310 309
318 317 316 315 314 314 313 314 314 314 314 311 310 309 308 307 306 306 304 304 303 303 302 304 304 303 303 304 305 304 304 302 300 300 301 302 304 306 308 310 310 310 308
317 316 315 314 314 314 314 315 314 310 309 309 309 308 307 306 304 302 302 302 302 302 302 302 303 303 303 302 302 301 300 298 298 298 297 297 298 299 301 304 307 306 306

GFSSE_850_thetae_009.txt.gz
Theta_e
339 336 337 337 338 339 338 338 337 337 337 336 336 336 336 336 335 333 332 331 330 329 329 329 328 328 326 325 324 323 323 322 323 326 327 325 323 324 324 327 332 332 329
340 337 338 338 338 337 336 336 337 337 336 336 336 336 335 333 331 329 328 328 327 327 325 324 321 318 317 316 315 315 319 323 324 325 326 326 327 332 327 326 325 329 330
339 339 338 337 337 337 336 337 336 335 335 335 335 332 329 327 324 322 320 318 317 316 315 314 314 313 314 314 316 320 323 323 324 325 326 326 328 328 331 327 325 326 329
338 338 338 336 336 335 335 334 332 333 333 331 328 326 324 320 318 317 316 316 314 311 307 307 308 310 313 317 319 323 325 323 323 325 325 325 326 328 327 326 325 323 325
339 335 335 333 333 332 331 330 330 329 328 327 324 321 320 318 317 316 316 315 312 307 309 309 309 308 310 312 314 316 320 321 322 323 326 326 325 326 326 323 323 322 320
336 330 330 329 326 326 324 325 324 323 322 321 320 318 317 317 316 316 315 315 310 308 309 309 309 309 309 310 309 309 309 312 316 320 325 326 327 325 324 321 324 323 325
325 320 318 318 317 318 318 318 319 319 318 318 317 317 316 316 315 314 315 312 308 308 309 309 309 309 309 309 309 309 309 309 308 327 326 327 326 323 321 322 324 324 325
315 315 316 316 316 316 316 316 316 316 316 316 315 315 315 315 314 313 314 309 307 307 308 309 310 311 310 310 309 309 309 308 311 326 324 325 322 324 327 327 328 325 325
317 317 316 315 315 314 313 313 312 312 312 311 314 316 319 324 324 323 318 317 317 314 314 314 314 313 312 311 312 312 312 311 319 325 324 323 324 324 325 325 325 326 327
322 319 319 317 324 320 308 307 308 309 310 312 314 324 327 323 323 323 326 324 323 322 319 318 316 315 315 314 310 310 313 318 324 321 322 323 323 322 324 325 324 323 324
330 329 330 326 324 327 323 315 310 316 319 321 324 327 327 326 324 325 326 324 323 320 321 318 316 315 314 314 311 309 311 316 317 320 319 322 322 320 318 319 324 323 323
330 331 330 327 324 326 325 327 326 325 325 326 322 324 327 324 326 325 325 323 322 319 319 317 317 316 316 315 315 310 309 308 309 315 316 317 318 317 313 305 315 319 320
329 331 328 323 325 326 325 327 327 326 324 327 328 324 322 326 326 325 322 319 315 317 317 317 318 318 317 317 315 312 310 309 307 311 314 314 315 313 311 305 307 310 314
331 331 331 320 320 327 327 328 325 327 325 328 325 325 320 322 320 315 316 315 317 317 317 317 317 316 316 316 316 316 315 313 311 308 311 311 312 309 309 306 307 307 308
331 332 332 324 315 318 329 328 328 327 326 325 324 323 313 314 315 315 314 314 314 316 317 317 317 316 317 317 317 317 317 316 315 315 313 310 308 309 309 308 307 307 307
330 331 332 328 324 318 323 325 322 324 324 322 322 321 317 314 313 314 313 314 315 318 318 318 317 316 318 317 317 317 317 317 316 316 315 313 312 310 308 308 308 307 306
330 330 330 327 328 326 328 324 320 325 318 321 320 320 319 319 318 316 316 316 316 315 315 314 313 315 317 316 317 317 317 316 316 316 316 314 312 311 311 309 308 308 307
328 331 331 324 323 326 326 322 320 321 320 321 321 320 320 320 318 317 317 312 312 312 313 314 314 316 316 318 318 318 317 315 316 315 315 314 312 311 311 311 310 309 308
327 329 330 328 327 325 325 322 321 321 320 319 318 317 318 317 316 317 315 311 311 311 312 314 314 315 315 315 314 310 309 312 314 314 314 315 314 313 311 311 311 310 309
327 329 329 327 326 324 322 323 321 321 318 318 317 317 316 316 315 315 315 312 312 310 309 310 311 311 310 307 309 311 311 309 312 310 310 312 314 315 314 313 311 311 309
327 329 327 323 323 323 323 322 320 319 316 316 316 316 316 315 314 314 313 311 309 308 308 308 307 306 305 307 306 304 304 304 305 304 305 308 310 311 313 313 312 311 310
325 325 323 322 320 319 318 318 317 316 315 314 314 314 313 313 313 313 311 309 307 307 306 306 305 304 300 302 304 306 307 306 305 306 307 309 309 309 309 311 312 312 311
320 319 319 318 317 316 316 315 314 313 313 314 313 313 311 309 308 308 307 306 306 305 305 304 303 302 302 303 304 304 304 304 304 303 303 305 306 307 308 309 310 311 310
317 317 317 316 315 314 313 314 314 314 314 313 313 310 308 308 308 307 306 305 303 302 303 303 301 301 304 304 303 303 304 304 301 300 300 299 299 299 301 306 303 308 311
317 316 315 315 314 315 314 314 314 313 310 309 309 309 308 307 307 306 305 303 300 300 300 301 301 302 302 303 303 302 302 300 300 299 297 297 296 296 297 297 298 299 303
317 316 316 316 316 315 314 314 312 311 310 309 309 309 308 307 306 303 301 300 300 300 301 301 301 301 301 300 299 298 298 297 297 297 296 296 295 295 295 295 296 297 298

GFSSE_850_thetae_012.txt.gz
Theta_e
338 339 339 339 339 338 338 337 337 336 335 335 335 335 334 331 329 327 326 326 326 325 325 324 322 319 318 317 317 318 318 319 322 324 326 326 324 327 325 324 329 332 330
336 337 337 337 336 336 336 335 336 335 334 335 335 332 329 324 320 317 316 315 315 315 314 314 314 314 314 317 318 318 319 321 323 326 325 326 326 328 330 327 325 330 331
336 338 337 336 336 335 335 336 334 333 334 333 329 324 321 317 316 315 314 313 313 311 308 308 308 310 312 316 319 322 323 322 322 324 325 326 326 327 328 329 328 324 327
337 337 337 336 336 335 335 332 330 330 327 325 321 319 317 316 315 314 312 313 312 308 308 309 308 308 309 310 312 315 321 323 322 324 324 325 325 325 326 327 322 325 324
338 338 337 335 334 333 330 326 326 323 321 320 318 317 316 315 314 313 312 313 310 308 309 309 308 309 309 309 309 309 310 314 318 322 324 325 325 325 326 325 323 323 322
335 336 334 332 330 325 323 323 321 320 318 317 316 316 315 315 314 311 313 312 309 308 308 309 309 309 309 308 309 309 308 308 312 317 322 323 326 326 320 324 322 323 323
331 331 329 325 320 320 320 320 318 318 317 315 314 315 314 314 311 311 312 309 308 308 308 309 310 311 310 310 309 309 308 308 309 319 323 324 323 323 325 323 322 322 324
323 320 318 317 317 317 317 317 316 315 314 313 312 314 313 311 313 313 313 314 316 316 316 316 315 313 312 311 312 312 313 310 313 322 322 321 322 323 325 327 326 327 324
316 316 316 315 315 314 314 313 312 311 310 310 313 312 314 317 318 318 320 319 320 317 317 316 314 314 314 312 310 310 312 321 320 321 322 322 323 322 322 323 324 325 326
316 315 316 316 314 309 307 308 308 309 310 311 313 320 320 321 321 323 321 321 320 318 318 316 314 313 313 312 310 309 312 319 320 319 320 320 323 323 321 321 321 323 323
324 325 322 320 323 321 314 309 312 314 316 315 319 320 322 321 324 321 319 321 320 317 317 316 317 316 315 314 313 311 309 309 310 311 313 316 319 319 318 316 310 321 323
329 329 325 320 324 324 325 324 322 320 320 317 320 320 319 322 324 322 321 317 315 315 316 316 317 316 316 316 316 315 315 312 308 308 310 313 315 316 316 313 310 305 313
329 329 328 316 318 324 324 326 325 324 325 326 325 319 322 323 320 317 316 313 314 315 316 316 316 316 315 316 316 316 316 316 315 313 309 308 308 309 310 309 308 306 307
330 329 330 318 319 321 325 326 325 326 325 327 325 325 320 321 320 315 314 314 315 316 316 316 316 315 315 315 317 317 317 316 317 316 315 315 313 311 308 308 308 307 306
330 331 330 320 326 325 326 327 326 326 325 326 325 323 317 313 314 314 316 316 317 317 317 318 318 317 314 314 317 316 317 317 316 316 316 315 315 314 313 311 309 308 307
330 331 331 319 318 323 328 328 328 327 326 322 320 320 319 318 317 316 316 316 316 315 315 315 315 314 313 315 314 316 317 317 317 317 316 315 315 314 313 312 311 309 309
330 331 330 327 325 324 323 326 325 324 321 320 320 320 320 319 319 318 317 316 312 312 312 312 312 312 313 313 314 317 317 318 317 313 312 314 314 314 313 312 312 311 310
329 330 330 325 323 324 326 325 323 322 320 320 321 321 320 320 319 318 317 316 315 313 312 312 311 311 312 313 314 314 314 313 309 308 311 313 312 315 314 313 312 312 311
328 331 330 327 326 325 325 325 321 321 320 321 319 318 319 318 317 316 316 315 314 314 313 312 310 309 309 309 309 308 307 305 306 309 311 311 309 310 310 311 313 312 311
331 330 329 328 326 325 326 322 322 321 320 318 317 316 316 315 315 314 313 313 313 312 311 311 307 307 306 304 303 302 302 301 302 301 302 303 305 308 309 310 310 312 312
331 329 327 327 325 324 322 322 321 319 316 315 315 314 314 314 313 313 313 313 312 310 307 307 306 304 302 302 301 300 299 299 302 304 303 306 307 308 308 308 309 311 312
328 325 324 324 324 323 323 320 318 315 314 314 314 313 313 313 312 310 308 308 307 306 305 304 303 302 303 300 299 300 302 300 301 301 301 301 302 303 304 304 306 307 309
322 319 318 317 317 317 315 314 313 313 313 313 313 312 311 309 308 308 307 306 305 303 302 300 300 300 299 299 301 303 303 303 302 301 301 300 299 299 299 298 298 300 302
317 316 315 314 314 314 314 314 314 313 313 312 311 310 309 309 308 306 306 306 304 302 300 297 297 299 300 301 301 302 302 302 301 299 299 298 298 297 297 296 295 296 297
316 314 315 315 315 315 315 313 313 313 312 311 310 309 308 307 307 306 303 302 299 297 299 299 300 300 300 300 300 299 299 298 297 296 296 296 296 296 296 295 294 294 296
316 316 316 316 316 315 314 313 313 312 311 310 309 307 307 307 305 306 301 299 299 299 299 297 297 298 298 298 299 298 298 297 296 296 296 295 295 295 294 294 294 293 295

GFSSE_850_thetae_015.txt.gz
Theta_e
340 340 340 338 336 335 336 336 335 334 334 334 334 332 328 323 319 317 316 315 314 313 313 313 313 314 314 314 315 315 315 316 315 318 323 325 325 324 326 324 324 327 328
339 339 339 338 337 337 336 335 335 334 333 333 330 325 320 316 315 314 314 313 311 310 309 308 308 310 312 314 315 316 318 319 319 319 324 325 326 326 328 328 326 326 330
338 338 338 337 336 335 334 335 334 332 331 328 322 318 316 315 314 313 311 312 309 308 308 308 308 308 310 310 313 318 322 322 321 321 322 324 325 326 326 326 328 325 326
336 336 336 336 335 334 335 333 331 329 325 321 318 316 315 314 313 310 311 311 308 308 308 308 308 308 309 309 308 309 312 319 322 323 324 325 325 324 325 325 326 324 324
337 337 336 336 335 334 332 329 326 322 320 318 316 315 313 313 311 310 312 310 308 308 308 308 308 309 308 308 308 308 308 309 315 321 324 325 326 325 324 324 326 323 323
338 337 336 335 334 331 328 324 321 318 317 316 314 313 313 312 309 311 311 309 308 308 309 310 310 311 310 309 309 308 308 308 310 316 322 324 326 324 324 323 324 321 323
337 336 333 333 328 325 322 319 317 317 315 313 310 312 312 310 310 311 312 313 314 315 315 315 314 313 312 311 312 312 311 308 309 319 324 323 322 321 324 325 324 321 323
334 332 330 324 320 318 317 316 316 314 313 309 311 311 313 316 317 317 317 317 315 315 314 312 312 313 312 311 310 310 312 312 314 321 323 321 322 321 321 323 326 327 326
326 320 317 316 315 315 315 314 312 311 308 310 311 315 317 317 318 317 317 316 315 315 313 313 312 312 311 311 310 309 311 317 320 321 320 320 322 322 321 320 321 323 324
317 316 315 313 310 309 310 309 308 308 310 311 318 318 319 319 320 318 318 317 316 315 315 315 313 312 312 312 313 311 309 308 309 313 315 315 318 320 319 318 316 311 319
315 315 315 314 313 309 307 308 310 312 313 317 318 320 320 321 318 317 316 315 315 315 315 315 315 315 314 314 313 313 313 312 310 309 308 311 314 315 315 315 314 312 306
317 319 318 317 318 317 315 316 315 317 318 319 320 319 318 319 318 316 315 314 314 315 316 315 316 316 316 314 315 316 314 313 312 311 311 311 309 309 309 310 310 309 306
321 324 320 320 322 323 321 322 320 321 319 322 319 315 316 317 317 316 313 313 314 316 316 316 317 317 317 315 316 317 317 317 316 315 313 311 314 314 313 310 308 308 308
326 326 326 318 322 324 325 324 322 322 321 319 320 318 313 314 314 313 313 314 315 316 317 316 316 316 315 314 313 317 316 316 317 317 316 316 314 315 315 314 312 311 309
327 328 327 318 323 322 325 325 324 324 324 323 321 320 317 313 313 313 314 314 315 315 313 313 313 312 312 312 312 312 313 316 317 317 317 317 316 315 315 314 313 312 311
328 329 330 321 324 323 324 326 326 326 326 325 322 320 320 319 317 316 316 315 315 313 312 312 313 312 312 312 311 312 313 314 317 316 313 313 312 313 313 314 313 312 311
328 330 330 322 324 324 327 327 327 327 326 320 320 320 320 320 319 319 318 317 316 315 314 313 313 313 312 311 310 312 313 314 313 313 309 308 311 313 313 311 314 312 312
328 329 329 325 326 328 328 328 326 324 321 320 320 320 320 320 320 320 318 317 316 315 314 313 312 312 310 308 307 307 306 306 305 306 308 309 309 311 311 310 313 314 313
328 329 327 326 325 326 327 326 324 321 320 320 320 319 320 319 318 316 316 315 314 313 312 311 311 308 307 306 304 302 302 302 302 301 300 301 302 303 304 305 305 307 310
325 328 327 326 325 325 322 322 321 320 319 318 317 317 317 316 315 314 313 313 310 309 308 309 307 306 305 304 302 302 301 300 299 299 302 304 305 304 307 308 308 308 309
329 329 328 326 325 323 323 321 318 319 316 315 314 314 314 315 314 313 311 309 309 308 307 306 304 303 302 301 299 298 297 298 301 298 300 302 301 301 301 301 302 303 306
328 325 325 326 324 321 320 320 320 315 314 313 313 314 313 312 311 309 310 309 308 306 304 303 302 301 298 296 296 297 301 300 300 301 299 300 300 300 299 298 298 298 299
322 322 318 318 319 318 318 316 313 314 313 313 312 311 312 311 309 309 308 307 305 303 303 299 297 297 296 296 299 299 301 301 300 299 299 298 298 297 296 295 296 296 296
317 316 316 314 314 314 314 313 313 312 312 312 312 311 310 309 308 306 305 303 304 304 302 298 297 298 297 297 298 298 298 299 298 298 297 296 296 296 295 295 295 295 294
315 315 315 315 315 315 314 314 313 313 312 311 309 309 308 306 305 306 306 306 301 299 298 298 296 294 294 296 296 297 296 294 297 296 296 296 295 294 294 295 294 294 293
315 314 315 315 315 314 314 314 313 312 310 309 308 307 307 306 304 303 300 301 300 299 299 294 292 292 291 292 292 293 294 294 294 295 295 295 295 295 294 295 294 293 292

GFSSE_850_thetae_021.txt.gz
Theta_e
339 339 337 336 334 333 332 332 333 333 332 331 329 325 319 315 313 312 311 309 308 307 307 308 309 310 310 311 311 312 313 313 315 317 319 321 325 326 329 327 327 327 326
338 339 338 336 334 334 333 333 333 332 331 327 319 315 314 312 310 310 308 307 308 308 308 308 308 308 308 307 308 309 312 316 318 319 320 323 325 325 327 327 326 326 325
338 339 338 336 335 335 334 333 332 330 325 317 315 314 312 310 310 309 308 308 308 308 308 308 308 308 308 308 308 308 309 313 320 321 323 324 325 325 324 325 325 325 324
337 339 338 336 336 335 333 332 330 324 317 315 314 312 310 310 310 309 308 308 308 308 309 309 309 309 309 309 308 308 308 308 313 320 324 325 325 325 325 324 322 324 323
338 339 338 337 336 334 333 330 324 318 316 314 312 312 309 311 309 308 308 309 311 313 313 313 312 312 311 311 311 311 310 308 308 315 322 325 325 323 323 324 324 323 322
339 339 338 336 334 334 331 325 318 316 315 311 312 310 310 310 309 310 314 315 313 312 311 312 311 310 310 310 310 310 311 312 311 316 322 323 320 318 319 321 324 323 322
337 337 336 335 334 332 327 319 317 315 312 311 311 309 310 312 315 316 313 312 311 310 310 310 310 310 309 309 309 309 311 312 314 315 316 317 317 318 320 319 319 322 324
336 335 335 335 332 328 321 317 316 314 310 312 311 312 316 316 315 313 313 311 311 311 311 311 310 311 311 310 310 310 310 309 309 309 309 311 313 316 319 318 318 315 313
336 336 335 333 328 322 319 317 315 311 311 312 316 317 317 315 314 313 313 312 312 311 311 311 311 311 311 310 310 310 310 310 311 310 309 309 310 311 311 311 312 312 311
336 334 332 326 323 320 318 316 313 310 313 317 318 318 316 315 315 313 312 312 312 312 312 312 312 312 312 312 312 312 312 311 310 310 310 310 311 311 311 310 309 308 308
334 332 323 319 317 317 316 314 311 311 314 319 319 319 318 318 315 314 313 313 312 313 313 313 314 314 313 313 312 312 312 312 312 312 312 310 310 312 312 312 312 311 310
328 319 316 314 314 313 312 310 310 313 320 321 320 321 321 319 316 314 313 314 314 314 314 314 314 314 313 312 312 312 312 312 312 311 312 312 312 311 311 313 312 311 311
316 315 313 311 309 309 310 311 312 318 322 322 321 321 321 320 318 316 314 314 315 315 315 315 313 312 313 313 313 311 311 312 311 311 312 313 313 314 314 312 312 313 311
315 315 317 317 311 311 314 318 320 324 324 323 321 320 321 321 319 317 314 314 315 315 315 314 312 312 313 313 312 311 309 310 310 311 313 314 315 316 316 315 313 311 310
316 319 321 322 320 320 322 323 325 324 325 326 325 324 321 318 319 316 315 315 315 315 315 313 312 312 313 312 311 310 309 308 308 308 309 310 311 312 312 312 312 312 309
319 324 323 323 324 324 325 325 325 325 324 325 326 324 322 320 319 318 317 317 317 317 317 314 314 312 310 309 309 308 307 306 305 304 304 304 304 304 305 307 308 309 311
323 326 326 325 324 325 325 325 325 320 318 318 324 323 321 320 319 319 319 319 318 317 315 312 311 309 308 307 307 307 307 306 306 304 304 305 305 304 302 302 302 304 307
325 327 327 326 326 326 326 323 321 322 321 320 323 322 321 320 319 319 318 316 314 314 312 310 309 308 307 306 306 306 306 306 306 305 304 303 303 302 302 302 302 302 302
325 327 328 328 327 326 321 319 321 323 322 320 320 319 319 317 316 315 314 314 313 310 308 309 307 306 305 305 305 305 305 305 305 305 303 302 301 301 301 300 300 301 302
323 324 328 327 326 325 320 324 322 320 317 318 319 317 315 314 315 314 313 311 310 308 308 307 306 305 305 304 300 299 298 297 296 298 300 299 297 297 299 298 297 297 297
325 326 327 327 325 323 323 321 318 318 319 315 314 314 313 312 311 311 310 309 307 306 306 306 306 305 301 297 296 298 297 295 300 299 295 297 299 295 295 295 295 295 295
326 327 327 325 323 321 319 318 318 314 313 312 312 312 312 311 311 309 307 306 306 305 303 301 298 297 296 295 293 296 297 297 299 299 299 297 297 294 295 296 295 295 295
325 325 325 321 318 318 317 313 313 313 312 312 312 312 311 309 308 307 305 301 300 299 299 300 299 298 295 293 291 295 296 296 296 295 296 296 296 295 295 295 295 294 294
318 317 316 314 314 314 313 313 313 313 313 313 312 310 308 307 304 300 298 296 298 300 300 299 299 295 292 291 290 293 293 294 293 294 293 294 293 293 294 293 293 293 293
315 313 313 314 314 314 314 313 313 313 312 310 308 305 302 300 298 298 298 297 296 297 300 299 297 291 290 289 290 291 292 292 292 293 292 291 291 291 292 291 291 291 291
313 314 314 315 315 314 313 312 310 309 306 302 300 299 299 298 298 297 299 301 299 299 298 297 294 293 291 289 289 290 290 290 290 290 290 290 290 289 289 290 290 290 290

GFSSE_850_thetae_024.txt.gz
Theta_e
341 337 331 330 331 332 331 331 332 332 332 331 328 323 317 314 312 310 310 309 308 307 308 308 309 310 310 311 312 314 316 317 318 319 320 323 324 326 329 328 329 332 325
339 337 334 332 332 332 332 332 333 333 331 326 318 314 313 310 310 308 307 307 308 308 308 308 308 308 308 308 308 309 312 316 320 321 323 329 326 325 326 326 326 326 325
339 338 336 334 333 333 333 333 333 331 326 318 315 313 310 310 309 308 308 308 308 308 308 308 308 308 308 308 308 308 308 310 317 322 324 328 330 325 324 324 324 325 324
339 338 336 335 334 334 334 333 332 327 318 315 313 311 310 309 308 308 308 308 309 310 311 311 311 311 311 311 311 311 309 308 311 322 328 329 330 325 324 324 323 323 323
336 340 337 335 335 334 333 332 328 319 316 314 312 309 310 309 308 308 310 313 313 312 312 311 311 311 310 310 310 311 311 311 316 325 325 326 327 322 318 320 323 323 322
339 338 337 336 335 334 332 330 321 317 315 312 311 310 310 308 309 313 314 312 311 311 310 310 310 309 309 309 310 310 311 312 320 321 323 325 326 319 319 318 319 324 323
337 339 337 336 334 333 330 324 319 316 312 312 310 310 309 311 316 314 311 310 310 310 310 310 310 310 310 310 310 309 309 309 314 315 317 320 316 318 319 318 317 316 318
338 338 336 334 333 330 325 321 317 314 312 312 310 310 315 317 314 313 311 311 311 311 311 310 311 311 311 310 311 310 310 311 315 314 314 316 311 311 311 312 312 313 312
337 336 335 334 331 328 323 320 316 312 312 311 312 317 318 315 314 314 313 312 312 311 312 312 312 312 313 313 312 313 313 313 317 316 315 315 310 310 311 310 309 309 308
336 336 335 333 330 328 323 319 315 311 313 316 319 319 317 316 314 314 314 313 313 313 313 313 313 313 313 313 313 312 312 317 317 317 317 314 311 310 311 312 312 310 309
337 335 333 332 331 332 330 319 314 312 317 319 320 320 319 325 323 322 314 313 313 313 314 314 314 313 313 316 316 314 316 316 316 316 317 314 312 313 312 311 312 312 311
336 334 329 329 328 327 324 316 312 314 324 327 326 323 326 322 323 317 313 313 314 315 315 315 314 313 316 317 317 316 316 315 315 315 315 311 312 312 313 314 314 313 312
336 332 327 326 320 319 323 323 323 324 327 325 324 324 324 323 321 323 322 318 315 315 319 318 317 316 314 314 315 314 313 313 313 313 314 311 313 313 314 315 315 315 313
332 330 327 316 313 313 320 322 320 328 327 326 324 322 322 325 322 324 320 316 315 316 316 315 316 314 313 314 313 311 310 310 310 310 311 309 308 309 312 313 314 315 314
329 328 321 315 311 312 316 319 323 323 325 326 326 325 324 324 320 319 316 317 316 316 316 316 315 315 314 312 311 310 309 309 308 308 308 307 306 304 304 304 305 307 309
326 327 320 320 317 320 322 324 325 324 323 322 321 321 322 320 320 320 318 317 318 318 317 315 315 313 312 311 310 309 308 308 308 307 307 308 307 306 306 305 304 302 303
325 328 324 322 321 323 324 325 321 320 318 318 320 320 322 320 320 320 319 319 319 318 316 313 312 310 310 309 309 308 308 308 308 307 307 307 307 307 306 305 304 303 303
327 328 325 324 324 323 325 323 319 319 319 321 322 321 321 320 319 319 319 315 314 313 312 309 309 309 308 308 308 307 307 307 307 306 306 308 307 306 305 304 302 302 302
329 326 326 327 325 324 325 323 319 320 322 322 320 319 319 318 316 314 314 313 311 309 309 308 308 308 308 308 307 305 304 304 303 301 304 306 305 303 303 302 299 297 298
330 326 327 328 327 326 321 321 321 322 319 319 319 318 316 314 314 312 311 310 309 308 308 308 307 307 306 305 304 301 301 300 301 302 304 303 302 301 301 301 300 299 298
327 328 327 327 326 323 322 323 321 318 318 317 316 314 313 313 312 310 309 308 308 307 307 305 304 303 302 302 301 300 300 300 302 303 302 301 301 300 300 299 299 299 298
326 328 327 327 326 324 321 319 318 318 316 313 313 313 312 311 310 309 308 306 306 303 304 303 302 301 300 300 300 299 299 299 299 301 299 299 298 298 298 298 297 297 297
327 327 328 327 324 319 318 319 317 314 313 313 312 311 311 309 307 306 305 302 299 300 300 301 300 300 299 297 297 297 298 298 297 296 297 296 297 296 296 295 296 295 295
329 328 323 320 318 317 317 315 316 315 315 312 311 309 307 306 303 301 299 298 300 300 301 300 298 298 297 297 296 296 295 295 295 295 295 295 295 294 294 293 294 293 293
324 321 318 316 315 314 313 314 313 312 311 309 307 305 305 304 303 303 302 301 301 301 300 299 298 297 296 296 295 294 294 293 293 293 293 293 293 293 293 292 291 291 292
317 316 314 314 313 313 313 312 310 306 304 304 304 303 302 302 303 303 302 301 300 300 299 298 298 296 296 295 293 293 293 292 292 292 292 292 291 291 291 291 291 291 291

GFSSE_850_thetae_027.txt.gz
Theta_e
340 331 330 329 330 331 330 330 331 332 331 330 328 322 316 313 311 310 309 308 307 307 308 308 308 308 308 308 309 310 313 317 320 320 322 325 324 325 327 327 330 331 326
340 332 330 331 331 331 332 332 332 332 330 327 318 314 313 310 309 307 307 308 308 308 308 308 308 308 308 308 308 308 309 313 320 322 330 330 325 325 325 325 325 325 324
340 334 330 331 332 332 332 333 333 331 327 318 314 312 309 309 308 308 308 308 308 308 309 310 310 311 311 311 311 310 308 309 317 325 327 332 328 325 324 324 323 322 324
340 334 332 332 332 333 333 333 332 328 319 315 313 309 310 308 308 308 308 309 311 312 312 312 311 311 311 311 311 311 311 314 323 327 326 327 327 320 316 317 321 323 324
337 336 335 334 333 333 333 332 330 321 316 314 311 310 309 308 308 309 313 313 312 312 311 310 310 310 310 310 310 311 313 321 323 325 326 325 325 320 316 316 316 320 322
338 337 335 334 334 334 333 332 325 317 315 313 310 310 309 308 312 314 311 311 311 310 310 310 310 310 310 309 309 309 310 315 317 319 322 325 325 317 316 317 317 316 321
334 336 335 334 334 333 332 328 320 316 313 312 310 309 308 313 314 311 311 310 310 310 311 311 311 311 312 312 313 312 312 315 316 316 318 319 311 312 312 313 314 315 314
331 334 336 335 333 332 328 321 318 315 313 311 311 309 315 315 313 311 311 311 311 311 311 312 312 313 313 313 313 313 312 315 319 318 317 317 310 311 311 310 309 309 310
328 334 335 334 332 329 324 320 317 312 313 311 310 317 317 314 314 312 312 311 311 312 312 313 313 313 313 313 314 314 316 317 319 319 319 318 313 311 311 312 312 310 309
332 336 334 333 329 326 324 320 315 312 312 312 318 319 316 315 315 315 314 312 312 313 314 314 314 313 315 318 317 315 317 317 318 318 319 318 313 313 314 313 312 312 311
336 335 333 331 332 330 325 319 314 313 317 318 320 319 322 327 326 325 315 314 313 314 314 314 314 313 318 319 318 317 317 317 317 317 318 316 310 311 313 314 315 314 312
336 334 331 332 331 331 329 322 318 316 322 327 328 326 328 327 328 324 317 313 314 314 315 315 316 318 319 319 318 317 317 316 315 315 315 315 312 310 313 313 314 315 315
335 331 328 328 330 328 327 324 323 325 327 329 329 328 327 328 328 327 325 322 322 320 322 321 321 319 319 318 317 316 315 314 314 313 312 311 310 308 308 311 312 314 315
333 331 332 330 328 326 323 323 324 327 328 327 325 322 327 327 328 327 324 322 322 321 320 320 320 319 318 317 315 315 314 313 312 312 311 310 309 308 306 304 304 304 307
330 329 328 327 325 324 324 325 328 328 327 328 327 324 324 324 323 324 324 322 321 320 320 320 319 318 316 315 314 313 312 312 311 311 310 310 309 308 308 307 305 304 303
329 328 327 325 324 325 328 328 328 327 323 323 322 320 320 322 320 321 320 320 320 320 320 318 317 315 314 313 312 311 311 311 310 310 310 309 309 309 308 308 307 305 304
328 328 327 327 328 329 328 325 320 318 318 318 319 321 320 321 320 319 319 319 320 318 314 313 312 312 312 312 311 310 310 309 308 308 308 307 309 309 308 307 306 304 303
329 329 329 328 329 329 325 323 321 318 317 318 319 322 322 321 320 320 319 319 315 313 312 312 311 311 311 311 310 310 308 305 304 306 304 303 307 308 307 306 303 303 301
329 332 330 327 326 325 325 324 319 320 320 320 322 320 319 319 319 317 314 314 312 312 311 312 312 311 311 310 307 306 305 302 303 302 303 304 307 306 305 303 303 301 300
330 332 331 329 325 324 324 322 320 320 321 321 319 318 317 316 314 313 313 311 311 312 311 311 310 308 307 305 303 303 303 302 301 303 305 305 305 303 303 302 301 301 300
332 331 332 330 327 326 325 324 323 321 319 318 317 315 314 313 312 311 312 312 311 310 308 308 306 304 303 302 302 302 301 300 301 301 302 303 301 301 300 300 300 299 299
331 330 329 330 327 327 325 325 323 321 319 316 314 313 313 312 311 310 310 309 307 306 304 303 304 303 302 301 300 300 299 299 300 300 299 299 299 298 299 298 297 297 297
329 329 328 328 328 326 323 321 321 320 316 315 314 314 312 311 309 308 307 306 304 303 303 302 302 302 301 300 300 299 298 298 297 297 297 297 297 297 297 296 296 295 296
328 327 328 327 325 322 320 319 319 318 317 317 315 313 311 309 307 305 304 304 304 303 303 302 301 300 300 299 299 299 298 297 296 296 295 295 295 295 294 294 295 294 293
327 327 326 323 321 320 318 318 318 317 315 313 310 308 306 306 305 305 305 304 304 303 302 301 300 300 299 298 298 297 295 295 295 294 295 294 294 293 293 293 293 293 292
327 323 321 319 318 317 317 316 315 312 308 307 306 305 305 304 303 302 301 301 300 300 301 300 300 299 298 298 297 295 295 294 294 293 293 293 293 292 292 292 292 292 291

GFSSE_850_thetae_030.txt.gz
Theta_e
338 328 326 326 328 331 329 327 328 330 330 329 323 316 313 311 309 308 307 307 308 308 308 308 308 308 308 308 308 309 312 317 320 329 329 329 324 323 325 325 326 325 324
335 329 328 329 329 328 328 330 331 331 329 322 315 313 310 309 307 307 308 308 308 308 308 309 310 311 311 311 310 308 310 320 325 328 331 330 327 322 323 324 323 322 323
332 330 330 331 330 330 331 332 332 329 323 315 313 310 309 308 308 308 308 308 310 311 311 311 311 311 311 311 311 311 315 327 327 328 330 329 325 322 317 318 321 322 323
332 330 331 331 331 332 333 333 331 325 316 314 311 309 308 308 308 308 311 312 312 311 310 310 310 310 310 310 311 320 323 324 326 326 326 327 326 314 315 315 316 321 321
334 331 331 332 332 333 333 332 328 318 314 312 309 309 308 308 309 313 312 311 310 310 309 309 309 309 309 309 309 317 316 317 320 326 324 320 318 314 316 317 316 316 320
334 331 332 332 333 333 332 331 322 316 313 311 309 309 308 310 313 311 311 310 310 310 310 311 311 312 313 313 313 313 315 316 316 318 319 315 309 310 310 312 313 314 313
335 334 333 333 333 333 332 327 318 315 312 310 310 309 310 314 311 310 310 310 310 311 311 312 313 313 313 313 313 313 315 318 319 318 318 317 313 310 310 309 309 309 309
335 334 333 334 333 332 330 322 317 314 312 310 309 310 315 312 311 311 311 311 311 311 312 313 313 313 314 315 315 316 317 317 319 320 318 318 317 312 311 311 311 310 309
330 327 333 333 332 330 327 320 316 313 312 310 310 316 314 312 312 312 311 311 312 312 313 313 313 313 317 318 318 316 317 317 318 318 319 319 317 310 312 313 313 312 311
329 329 326 333 331 328 322 318 314 312 311 311 317 315 314 315 314 313 313 312 312 313 314 314 313 314 319 319 318 317 317 316 316 316 317 316 315 313 309 312 313 314 313
328 326 332 331 327 324 319 316 312 312 312 318 317 324 327 326 327 326 317 313 313 314 314 314 315 319 320 319 319 318 317 316 315 315 314 314 313 312 309 309 311 314 315
329 332 327 328 327 326 319 315 314 318 321 323 319 329 327 328 327 323 322 319 317 317 321 321 321 320 320 318 318 317 316 314 314 314 313 312 311 311 309 307 306 308 312
331 327 329 328 330 329 320 316 323 326 328 329 327 328 327 323 327 327 327 323 321 322 322 321 321 320 319 318 316 315 314 314 313 312 312 311 311 310 309 308 307 305 304
332 330 330 329 328 325 321 323 325 328 329 325 323 323 322 326 324 327 323 322 323 321 321 321 320 319 318 316 315 314 313 312 311 311 311 311 310 309 309 308 308 307 305
329 333 329 324 327 322 324 324 328 326 325 324 326 323 325 325 325 321 321 320 322 320 320 320 319 318 317 315 314 313 312 311 310 310 310 310 310 309 309 309 308 307 306
330 329 327 324 324 324 325 328 327 324 323 324 324 321 320 320 320 320 323 319 319 318 318 318 314 313 312 312 312 311 311 310 309 308 307 308 309 306 308 309 307 306 305
329 328 325 323 325 327 326 325 322 320 318 319 319 318 319 320 320 320 319 318 318 319 318 314 312 311 312 312 311 310 309 309 309 305 303 305 303 305 309 308 306 305 303
328 327 326 327 328 327 325 321 318 317 317 319 320 321 322 321 321 320 317 317 318 315 313 311 312 312 311 311 310 307 305 305 305 303 303 302 302 303 307 306 305 303 302
329 329 328 329 329 326 323 321 319 318 318 318 320 321 319 319 319 318 317 315 312 311 312 312 312 310 308 305 303 303 303 303 303 301 301 304 306 306 305 303 303 302 301
331 330 328 329 327 327 324 323 322 321 320 319 321 319 318 317 316 314 313 312 312 312 311 310 308 305 304 302 302 301 302 301 300 301 302 304 304 304 302 302 301 300 300
332 332 330 328 326 325 324 324 324 322 320 321 318 317 315 314 313 312 312 312 310 310 308 305 303 303 302 302 301 301 300 299 300 299 300 300 299 299 299 299 298 297 297
333 332 330 328 328 325 326 325 323 322 320 318 317 314 313 312 312 311 311 310 308 305 302 302 302 302 303 302 300 300 300 299 299 298 298 297 297 297 297 297 297 296 296
333 331 329 328 327 326 326 324 323 321 319 317 314 314 313 312 310 309 307 305 303 303 303 303 302 302 301 301 299 300 299 299 298 297 296 296 295 295 295 294 294 294 294
332 329 329 328 327 325 324 322 321 320 317 316 316 314 312 310 307 306 305 305 305 305 302 302 303 302 301 300 300 299 298 297 296 296 295 295 294 294 293 293 293 293 293
329 328 330 328 325 324 321 321 319 318 317 316 313 312 308 306 306 305 305 304 304 304 301 301 301 301 300 300 299 298 297 296 295 295 294 294 293 293 293 292 292 292 291
327 328 327 325 323 322 320 319 319 317 314 311 308 309 307 305 304 303 302 301 299 296 298 299 300 300 300 299 298 297 296 296 295 294 294 294 293 293 292 292 291 291 291

GFSSE_850_thetae_033.txt.gz
Theta_e
329 334 337 338 338 335 328 325 328 329 327 321 314 311 309 308 307 307 308 308 308 308 309 310 311 311 310 309 309 316 322 328 328 330 328 326 323 323 323 323 323 323 323
328 330 333 334 334 331 326 328 330 329 323 314 311 308 308 307 308 308 308 309 310 311 311 311 311 311 311 310 310 324 326 328 328 329 328 326 320 319 318 320 322 322 323
329 328 330 331 331 326 328 331 330 325 315 312 309 308 307 308 308 308 311 312 311 310 310 310 310 310 311 317 322 326 325 325 327 328 327 325 320 312 312 314 318 319 321
333 330 329 331 328 329 331 331 327 316 313 310 308 308 308 308 309 312 311 310 309 309 309 309 309 309 311 320 319 317 318 325 325 324 323 312 310 312 314 315 315 316 320
328 329 329 329 331 332 332 329 319 314 312 309 309 308 308 310 312 311 310 309 310 310 310 311 312 313 312 314 316 316 318 320 323 320 317 314 313 309 309 309 310 312 312
329 329 330 331 333 332 330 325 316 314 310 308 309 309 311 312 311 310 310 310 310 311 313 313 313 313 313 313 313 316 318 319 319 318 318 317 317 311 311 309 309 308 309
331 331 332 332 333 331 328 321 315 312 310 309 309 310 313 311 310 310 310 311 311 312 313 313 313 315 316 315 316 316 319 318 319 319 318 318 317 311 309 311 311 310 309
331 332 332 333 328 326 327 317 314 311 310 309 309 313 311 310 310 311 311 311 312 313 313 314 313 316 318 318 317 317 316 317 319 317 318 317 316 315 310 310 312 312 311
332 333 333 328 325 329 322 317 313 310 309 309 314 312 311 311 311 311 311 312 312 313 313 313 314 319 319 318 318 317 316 316 316 316 315 315 314 313 312 309 310 312 313
332 330 327 322 324 328 320 315 311 310 309 313 313 313 314 313 312 313 311 312 313 313 314 314 317 319 320 319 318 318 317 315 315 314 314 313 312 312 311 309 307 308 312
329 328 325 326 330 325 318 313 311 310 312 315 316 323 320 323 324 318 314 312 313 314 316 320 320 320 319 318 318 317 316 315 314 314 313 313 312 311 310 309 308 306 307
325 323 327 328 326 320 316 312 311 312 317 318 325 326 325 327 325 322 323 321 320 321 322 321 321 320 319 318 316 315 314 314 313 312 312 311 311 310 310 309 308 308 307
324 322 327 327 325 319 314 311 314 321 321 322 326 327 325 327 325 326 325 322 322 322 321 321 320 319 319 317 316 315 314 312 311 310 311 311 310 310 309 308 309 308 308
324 326 327 330 328 321 313 316 322 325 325 327 325 328 329 325 325 323 323 323 321 321 321 321 320 320 319 318 315 313 312 311 310 310 310 309 309 309 308 307 308 308 308
327 330 330 329 324 318 322 326 328 326 326 324 323 326 324 325 326 324 323 322 322 321 320 319 320 320 315 312 311 311 311 311 310 309 308 308 306 306 305 305 308 308 306
331 331 329 327 322 323 325 325 328 325 326 323 326 323 324 322 321 320 320 321 319 319 319 317 318 316 312 310 310 310 309 308 308 309 308 303 303 304 303 308 307 306 304
330 327 325 326 322 324 325 328 327 326 324 325 321 319 319 319 319 319 320 319 318 318 319 318 315 311 310 310 309 308 306 305 305 304 301 302 302 302 303 307 305 305 304
330 329 317 321 325 324 323 327 326 323 322 319 317 319 321 321 321 320 320 317 317 315 312 310 310 311 311 308 304 301 302 302 301 299 301 301 303 306 305 304 303 302 303
328 323 321 321 324 323 323 323 321 318 317 317 318 320 320 320 320 320 317 315 314 311 310 311 311 310 304 303 301 300 300 301 301 299 300 302 303 301 300 300 300 300 300
328 325 322 324 325 326 323 320 318 319 319 320 319 321 319 318 316 314 313 313 311 311 311 310 306 302 301 300 300 300 299 298 298 299 299 300 301 301 299 298 298 298 298
329 328 325 325 327 325 322 320 320 323 320 320 320 320 317 314 313 313 312 312 311 310 307 303 301 301 300 300 300 299 297 299 298 299 299 298 298 297 297 297 296 296 295
330 329 328 326 327 327 322 322 323 323 321 320 319 317 314 313 312 312 311 311 308 304 301 301 300 299 300 301 300 299 299 298 298 298 298 297 296 295 295 295 294 294 294
331 331 330 329 325 326 325 324 325 321 319 318 317 313 313 312 312 310 308 305 304 304 303 302 300 299 301 301 301 299 299 298 298 296 296 295 295 295 294 294 293 293 293
332 331 330 329 327 326 325 326 323 321 319 318 315 315 313 312 308 307 307 306 304 304 303 302 300 299 299 300 300 299 298 298 297 296 295 295 294 293 292 292 292 292 292
333 331 329 328 327 325 324 323 322 320 319 317 316 314 313 308 306 307 306 305 304 303 302 299 295 298 300 300 300 300 298 297 296 296 296 295 294 293 293 292 292 291 290
332 329 328 328 325 324 324 323 321 320 319 316 314 313 308 306 306 305 304 304 303 301 296 293 294 296 299 300 299 298 297 297 297 296 295 294 294 293 293 292 292 290 290

GFSSE_850_thetae_036.txt.gz
Theta_e
337 337 339 338 337 334 324 326 327 327 320 313 310 308 307 307 308 308 308 309 311 311 311 311 311 309 311 319 323 327 327 328 328 326 323 316 318 319 321 322 322 322 323
338 338 338 338 336 330 325 327 328 323 314 310 308 308 308 308 308 309 311 311 311 310 310 311 311 310 321 326 325 326 326 325 324 322 315 316 312 312 313 314 317 320 321
337 338 338 336 333 326 327 329 327 315 312 308 308 308 308 309 311 311 310 310 310 309 309 310 315 320 323 317 319 325 325 324 324 316 311 310 309 311 313 314 314 316 320
335 337 337 335 330 326 330 329 318 313 309 308 308 308 309 311 311 310 309 309 309 309 310 310 315 320 315 317 317 320 324 324 321 316 316 316 316 310 308 309 310 311 312
331 333 334 331 327 330 330 323 314 311 308 308 308 309 311 311 310 310 310 310 311 312 313 313 312 313 315 318 318 319 321 318 318 318 317 318 316 309 310 309 308 308 309
328 331 333 328 330 331 327 317 313 309 308 308 308 311 311 310 310 310 311 312 313 313 313 313 314 313 313 316 318 319 319 319 319 318 318 317 316 313 309 310 311 310 309
329 333 328 330 332 329 319 315 312 309 309 309 310 312 311 310 310 311 312 312 313 313 313 314 316 316 316 315 316 317 318 318 317 316 316 315 314 313 312 309 309 311 312
332 328 331 332 331 325 316 314 311 309 309 309 312 311 310 310 311 312 312 313 314 314 314 316 317 317 316 316 316 315 315 316 316 315 314 313 313 312 311 310 308 309 312
331 333 333 331 326 322 317 314 310 309 309 312 311 310 310 311 312 312 312 313 313 314 314 316 318 318 317 317 317 316 316 315 314 314 313 313 312 311 311 310 308 307 308
330 329 326 324 322 322 318 313 311 309 310 313 311 311 311 311 311 312 312 313 313 314 315 318 319 319 318 318 317 316 316 314 314 313 313 313 312 311 310 309 308 307 306
327 325 325 322 322 323 316 312 310 309 314 313 313 312 314 315 313 312 312 313 314 317 320 320 320 320 320 319 317 315 314 314 313 311 310 311 311 310 309 308 307 306 306
325 325 323 322 324 321 315 312 310 314 314 315 318 319 324 324 322 322 319 320 321 321 321 320 320 319 319 319 317 315 314 313 311 310 310 310 310 310 309 308 308 305 307
323 321 324 328 326 320 313 311 311 316 322 325 325 325 326 323 324 325 322 321 322 321 321 320 320 319 318 317 316 314 313 311 310 309 309 309 309 308 308 308 306 307 308
321 322 326 326 324 317 312 312 317 317 321 327 328 327 326 326 324 325 323 322 322 321 321 320 320 319 318 315 312 311 310 310 310 310 309 308 308 305 304 306 306 308 307
323 326 326 326 321 314 314 319 323 322 324 323 327 328 327 325 324 323 322 322 321 321 320 320 320 320 319 316 310 309 309 310 308 308 308 307 306 302 303 304 307 306 306
325 327 328 327 320 315 324 326 325 325 324 326 326 326 324 325 325 324 322 322 321 321 319 318 318 317 314 310 310 308 306 305 306 306 305 302 302 302 303 306 306 306 304
325 327 329 324 320 320 327 326 326 326 327 326 324 321 321 321 320 320 320 321 321 318 317 318 315 311 310 309 309 305 300 301 303 301 299 300 301 304 306 306 304 304 303
327 327 328 325 322 323 323 324 328 329 326 325 322 318 318 319 319 320 320 320 317 316 314 311 310 309 308 309 302 299 299 300 300 299 300 302 303 304 305 303 301 300 301
327 329 328 326 323 324 327 328 328 327 325 324 318 318 319 321 320 320 319 318 316 313 311 310 310 309 305 300 300 300 300 300 298 299 299 300 300 300 302 300 298 298 298
328 326 324 325 323 325 326 326 326 324 320 317 320 320 320 320 320 319 318 314 312 311 311 309 306 301 300 300 300 300 299 297 299 299 298 298 298 297 297 297 296 296 295
329 325 317 319 322 324 324 324 324 320 318 321 320 320 319 318 317 313 312 312 311 311 308 303 301 301 298 298 299 300 298 299 298 298 298 298 298 297 296 295 295 294 294
328 324 321 317 320 324 325 323 320 318 320 321 320 319 317 314 312 312 312 311 310 307 304 302 301 299 297 298 299 299 298 297 298 296 296 296 295 295 294 294 294 293 293
328 327 327 325 324 326 326 323 320 320 323 321 319 318 316 313 312 312 310 309 309 309 303 302 302 300 298 298 299 299 298 298 298 297 297 295 295 295 294 293 292 292 292
328 328 329 328 327 327 326 323 321 323 323 321 319 318 314 312 312 311 310 310 309 306 304 303 301 298 295 298 299 300 300 299 298 297 296 295 295 295 295 293 292 291 291
328 329 330 328 328 326 326 325 323 325 322 319 318 315 313 313 312 311 310 308 306 304 303 302 299 293 293 295 299 300 299 298 297 297 296 296 295 295 295 293 292 292 291
329 330 329 329 328 327 326 325 324 323 321 319 317 315 314 311 309 307 306 305 304 303 300 297 294 293 293 296 298 298 298 297 297 297 296 296 295 295 295 294 293 292 291

GFSSE_850_thetae_039.txt.gz
Theta_e
336 339 338 337 336 332 324 325 325 323 315 310 308 308 307 308 309 309 310 311 311 311 310 309 314 320 323 325 324 326 324 318 310 309 310 312 312 312 315 318 319 320 322
336 339 338 337 336 329 324 326 326 317 311 308 307 308 309 309 310 311 311 310 310 311 310 315 324 324 323 324 324 324 323 317 315 315 315 309 309 311 313 313 314 316 320
337 339 337 337 335 326 326 327 322 312 308 307 308 308 309 311 311 310 310 310 310 313 318 321 317 318 321 324 325 324 320 317 316 317 317 314 309 309 308 309 311 312 316
339 338 337 336 332 325 328 327 315 310 308 307 308 309 311 311 310 309 309 309 310 316 321 316 316 316 317 321 322 320 318 316 317 317 318 316 311 309 310 310 308 308 309
339 338 338 335 327 327 329 323 312 308 308 308 309 311 311 310 309 310 310 311 312 312 315 315 315 317 316 317 319 318 318 317 318 317 316 315 314 311 309 309 311 309 308
338 338 337 333 326 330 327 315 310 308 308 308 311 311 310 309 310 311 312 313 313 313 313 313 314 315 317 318 318 318 318 317 316 316 315 313 312 311 310 308 309 311 311
339 338 335 327 329 329 320 313 309 308 308 309 312 311 310 310 311 312 313 313 313 314 314 315 315 315 314 315 315 317 316 316 314 314 314 313 312 310 310 310 308 309 311
338 336 331 328 330 323 314 310 308 308 309 311 311 310 310 311 312 313 313 313 313 315 317 317 316 316 316 316 316 315 314 314 314 313 313 313 312 311 309 308 308 307 308
335 332 329 329 320 314 312 309 308 309 309 312 310 310 311 311 312 313 313 313 314 315 316 317 317 317 318 317 315 315 315 313 313 312 312 312 311 309 308 306 306 307 306
332 331 328 320 316 312 311 309 309 309 311 311 310 310 311 311 312 312 313 313 314 314 315 317 318 319 319 318 316 314 313 312 311 310 309 309 310 310 307 305 305 304 304
326 324 322 320 318 319 319 316 311 309 313 311 311 311 311 311 312 313 313 313 314 315 318 319 319 318 319 318 317 315 313 312 311 309 308 308 309 310 309 307 307 306 305
324 323 323 324 323 322 316 311 309 314 312 311 313 314 316 313 313 312 314 315 317 319 319 319 319 319 319 318 317 315 313 311 310 309 309 309 309 308 311 308 306 305 305
324 323 323 321 320 318 314 311 311 314 318 318 324 324 322 322 321 319 319 320 320 320 320 320 319 319 318 318 316 312 310 310 310 309 309 309 308 307 309 307 306 305 307
321 322 319 321 325 318 313 311 315 315 322 325 326 326 324 323 324 322 321 321 321 321 321 320 320 319 318 315 313 310 309 308 308 308 307 306 306 305 306 306 305 306 306
324 322 323 327 324 317 313 312 317 326 327 327 326 325 323 323 323 324 323 322 321 321 320 320 319 318 316 313 310 309 308 305 302 302 301 303 303 301 304 306 308 308 306
321 323 324 325 323 316 313 314 318 322 325 327 327 326 326 323 323 323 323 322 321 320 320 319 318 316 313 310 309 309 305 300 299 300 299 298 297 300 303 308 307 307 305
323 325 324 325 321 315 315 319 319 322 325 324 324 324 323 322 323 324 323 321 321 320 319 318 316 311 310 309 308 305 299 298 298 298 298 299 301 302 305 306 305 305 304
323 326 327 325 320 314 321 325 326 326 325 326 324 321 321 322 322 323 321 321 321 319 317 314 310 310 308 305 300 299 298 299 299 298 298 300 302 304 305 305 304 301 301
323 324 327 325 320 316 324 327 327 327 326 326 320 318 318 319 319 320 320 320 319 316 313 311 310 308 302 300 298 298 299 298 298 297 298 299 299 299 301 302 300 299 297
323 323 326 325 321 322 323 323 324 328 328 326 322 318 319 320 320 320 320 319 316 312 311 310 306 302 300 297 297 297 297 297 298 299 298 297 297 297 297 296 295 295 295
325 326 327 327 324 323 323 325 326 328 327 323 318 321 320 320 320 319 319 315 312 311 309 306 303 301 299 298 296 296 296 297 298 298 297 296 296 295 295 294 294 293 292
327 326 327 325 325 323 323 325 327 327 323 319 320 320 319 319 318 317 313 311 311 309 308 305 303 301 299 297 295 295 297 298 298 297 298 297 295 295 294 295 294 294 292
328 328 326 320 321 322 322 326 326 324 320 320 320 320 319 317 315 312 311 311 308 308 307 306 303 301 300 296 295 296 298 298 298 297 297 296 295 295 295 295 294 294 292
328 328 327 322 319 319 323 325 325 324 320 319 321 321 318 316 313 312 311 308 308 309 307 308 304 301 297 294 294 296 299 300 299 297 297 296 296 296 295 295 295 294 292
329 329 327 323 320 320 322 325 326 324 320 322 322 320 317 315 313 312 310 309 307 305 306 301 300 296 293 293 294 297 298 298 297 297 297 296 296 295 295 295 295 294 293
329 329 327 326 324 324 326 327 326 322 321 322 323 319 317 314 312 311 308 307 305 304 306 301 296 294 293 293 294 296 297 297 297 297 296 296 295 295 295 295 294 294 292

GFSSE_850_thetae_042.txt.gz
Theta_e
336 339 334 334 331 327 323 323 323 321 315 311 309 308 307 308 308 308 309 310 310 309 310 312 318 320 322 323 321 315 315 315 316 312 309 309 311 312 312 313 315 321 323
336 338 335 334 332 326 324 324 323 317 311 308 307 308 308 308 310 311 311 311 310 311 313 317 320 322 323 323 321 315 315 316 317 314 309 309 309 308 309 311 312 318 322
336 338 335 335 332 324 325 325 320 312 308 307 308 308 309 311 311 310 310 310 311 315 320 320 321 324 324 323 317 316 317 317 318 316 315 309 309 310 310 308 308 310 314
339 338 335 334 331 324 326 324 313 309 308 308 308 310 311 310 310 310 312 314 318 319 318 316 317 322 321 318 317 317 317 318 317 316 313 312 310 309 309 310 310 308 308
339 338 335 334 328 325 327 319 310 308 308 309 310 311 310 309 309 310 315 319 319 316 315 315 315 316 317 317 318 318 317 316 315 315 312 311 310 309 309 308 309 310 309
339 337 336 333 325 327 326 314 308 308 308 310 311 310 309 309 310 311 312 314 314 314 314 315 316 317 318 318 318 317 316 314 314 313 313 312 311 309 309 308 307 308 310
338 337 336 329 326 328 317 311 308 308 309 311 310 309 309 311 313 313 313 313 313 313 314 314 314 314 314 315 315 315 314 314 313 312 312 312 311 309 308 306 307 307 308
337 337 332 327 328 317 311 309 308 308 311 311 309 309 310 312 313 314 314 315 315 316 316 315 316 316 316 316 316 315 314 312 312 310 309 309 308 308 306 305 305 306 306
336 336 331 329 324 312 309 308 308 310 312 310 310 310 312 312 313 313 314 316 316 317 317 317 317 317 317 315 313 312 312 311 310 308 307 307 308 307 306 304 304 304 304
334 332 330 328 318 312 309 309 309 312 311 310 310 311 312 313 313 313 313 314 315 316 317 318 318 318 318 317 316 314 311 310 309 307 307 307 309 314 311 307 304 303 304
329 329 326 317 311 311 309 313 315 312 311 310 310 311 312 312 313 313 313 314 315 315 317 319 319 318 318 318 317 315 312 309 308 307 305 305 306 311 311 310 306 303 304
325 325 320 313 313 316 317 318 312 312 310 310 311 311 312 312 313 313 313 315 316 317 319 319 319 318 318 318 317 315 311 309 308 307 307 306 307 308 310 309 308 304 305
323 321 319 317 320 321 320 311 312 312 311 311 311 312 311 312 312 313 314 316 318 319 319 319 319 319 319 318 316 313 310 308 307 306 306 305 304 304 308 308 308 304 305
323 323 321 321 322 319 314 310 310 312 312 315 316 318 317 318 316 318 319 320 320 321 320 320 320 319 318 317 315 311 309 307 304 301 302 303 303 302 308 307 308 307 305
322 321 321 321 319 316 313 310 314 315 317 322 324 324 323 323 322 321 321 321 321 321 320 320 319 319 318 315 311 309 307 304 300 300 299 299 298 298 306 307 308 307 306
318 318 320 323 320 316 312 310 316 315 322 325 325 325 323 322 323 324 323 322 321 321 320 319 319 317 315 310 309 307 303 300 299 298 298 297 297 300 305 306 306 306 306
320 319 323 326 323 317 313 311 317 323 326 326 325 324 324 323 322 323 323 322 321 320 319 318 317 313 310 309 307 301 299 298 298 298 297 298 300 301 303 305 305 305 305
322 322 324 326 324 318 313 312 318 321 323 323 323 323 323 323 323 323 323 322 321 320 319 317 313 310 309 306 301 299 297 297 297 297 297 298 300 302 303 304 304 302 301
321 324 323 323 322 318 314 314 318 319 323 324 324 323 322 321 321 323 323 321 320 320 316 312 310 309 306 301 299 297 297 296 297 298 298 297 297 298 298 299 300 298 296
322 324 325 325 323 319 314 318 323 325 325 326 324 320 318 318 319 320 320 320 319 316 312 310 309 306 302 299 297 296 296 297 298 298 298 297 296 295 296 296 295 294 294
322 322 323 325 324 319 315 322 326 327 326 326 324 321 319 319 320 320 320 319 316 312 311 309 307 303 301 299 297 296 297 297 298 298 297 297 297 296 295 295 294 294 294
323 321 321 321 325 320 320 323 324 323 325 326 324 323 319 320 320 320 318 317 312 311 309 307 305 302 300 298 295 295 296 297 298 298 297 297 296 295 295 295 295 295 294
321 323 322 323 325 324 321 322 323 326 327 326 325 320 319 319 319 318 316 313 311 310 307 306 304 301 298 297 295 294 296 297 298 297 297 297 296 295 295 296 295 295 294
323 324 326 325 325 325 324 323 322 324 326 326 324 320 319 318 317 315 313 311 310 307 306 305 303 303 303 298 294 293 295 298 299 297 297 296 296 295 294 295 295 295 294
326 326 327 327 327 324 324 324 323 325 326 324 322 319 319 317 315 313 312 311 307 306 305 306 307 304 306 295 293 293 294 295 296 297 297 296 295 294 294 293 294 294 294
327 327 328 328 327 326 324 323 323 325 325 324 321 320 319 317 315 313 311 310 307 306 305 307 311 306 295 294 293 293 294 295 295 295 293 292 291 291 293 294 292 294 293

GFSSE_850_thetae_045.txt.gz
Theta_e
339 336 332 327 324 323 324 324 324 323 321 318 315 311 308 307 307 308 308 308 309 310 315 318 322 324 319 314 313 313 314 315 311 309 309 308 309 311 312 313 315 320 321
339 337 333 328 324 323 323 323 321 317 313 311 309 307 308 308 308 309 310 310 310 313 317 319 320 320 318 315 315 316 317 316 315 310 309 310 309 308 308 310 312 316 320
339 336 333 328 324 324 324 322 317 312 309 308 308 309 309 310 311 311 310 311 314 316 319 319 319 320 316 316 317 317 317 316 315 313 311 318 310 310 310 308 308 309 313
338 336 333 327 324 324 324 320 314 309 308 308 308 309 311 311 310 310 312 316 317 317 319 321 320 318 316 316 317 317 316 315 314 310 311 319 317 308 308 310 310 308 308
338 336 333 327 324 325 323 316 310 307 307 308 310 311 310 310 311 312 317 317 315 315 318 317 317 316 317 317 317 316 314 313 313 312 316 315 320 313 308 308 312 313 311
338 336 333 327 325 326 321 312 308 307 308 310 311 310 310 311 314 317 318 315 314 315 315 316 316 317 318 317 316 314 313 313 311 311 312 311 314 308 306 306 308 314 318
337 336 333 326 326 322 317 309 307 308 309 311 309 309 310 312 315 317 314 314 313 313 315 315 316 316 315 315 314 314 313 311 310 309 312 312 310 306 305 305 305 306 307
337 336 334 326 324 312 309 308 308 309 311 309 309 310 311 312 312 313 313 313 314 315 315 315 316 316 315 314 313 312 311 310 308 307 308 316 307 306 305 303 303 303 304
336 335 331 327 322 316 309 308 308 310 310 309 310 312 313 313 314 314 316 316 316 316 316 317 318 317 315 315 313 311 310 309 307 306 307 315 308 308 305 305 301 301 303
334 334 329 327 321 313 313 309 309 311 309 309 311 313 314 314 315 316 317 317 317 317 317 318 318 318 318 317 316 314 311 308 307 305 305 310 310 315 310 305 303 302 303
333 333 329 323 315 313 315 314 312 311 310 310 312 312 313 313 314 315 315 316 316 317 319 319 318 319 318 318 316 315 311 309 307 305 304 304 304 310 311 310 305 302 304
328 325 324 324 320 312 316 314 312 311 310 310 311 312 313 313 313 313 314 315 317 319 319 319 319 319 318 318 317 316 310 308 306 304 302 302 301 307 310 310 308 303 304
325 322 322 319 313 314 316 318 319 313 310 311 311 312 312 313 313 313 314 316 318 319 319 319 319 318 318 318 317 314 310 308 305 302 301 300 301 301 310 309 309 305 304
323 323 318 314 312 317 317 317 313 311 310 311 311 312 312 313 313 313 315 317 319 320 320 320 319 319 318 317 316 311 309 307 302 300 299 299 298 298 310 308 307 305 303
317 315 317 318 318 317 318 311 313 311 311 311 312 311 312 312 313 317 319 320 320 321 320 320 320 319 318 317 312 309 307 303 300 299 298 298 297 297 309 308 307 307 306
319 319 320 319 320 318 312 309 314 312 313 315 318 318 320 321 320 320 321 321 321 321 320 320 320 319 317 312 309 307 302 300 299 298 298 297 298 299 306 308 307 306 306
321 319 320 321 317 316 314 310 315 315 315 323 323 324 323 322 322 323 323 323 322 321 320 320 319 317 312 309 307 301 300 298 298 297 297 298 297 301 302 303 305 305 305
319 320 321 322 322 319 315 311 314 315 321 324 324 323 323 322 322 322 322 322 321 320 320 319 317 312 310 305 301 299 298 297 297 297 298 297 298 302 304 304 304 303 301
318 320 322 325 325 320 315 312 313 317 323 324 322 323 322 322 321 322 322 322 321 320 320 317 312 310 306 303 300 299 297 296 297 297 298 297 297 297 297 298 299 299 297
321 320 322 324 325 322 316 313 313 318 321 321 323 323 323 321 320 319 322 322 321 320 318 314 310 308 305 302 300 299 297 296 297 297 298 297 296 297 295 295 295 294 295
321 322 323 323 323 323 319 314 315 318 319 324 324 324 322 319 318 319 320 320 320 318 315 311 309 307 304 305 302 297 297 297 297 297 298 297 297 297 295 295 295 295 295
319 321 323 324 325 324 320 314 315 320 323 326 325 324 323 320 319 320 320 319 318 316 312 310 307 307 308 303 298 296 299 298 297 297 297 297 297 296 295 295 295 295 295
321 319 320 322 323 325 322 317 317 323 325 325 324 325 324 321 319 320 320 318 316 313 311 308 307 308 306 299 296 296 299 299 296 297 296 296 296 295 295 295 294 294 294
325 323 321 322 322 322 325 321 319 321 323 322 324 324 323 320 319 319 318 316 313 311 310 307 307 308 304 295 298 298 295 294 298 298 297 296 296 294 295 294 293 294 294
325 323 322 322 322 323 324 325 322 322 322 323 324 325 323 319 319 318 317 315 313 311 308 307 306 308 307 307 299 297 296 294 294 297 296 296 295 294 294 294 292 293 292
328 326 324 323 325 325 326 326 326 326 324 324 325 325 321 319 319 318 316 314 312 310 307 306 308 310 310 303 300 298 293 296 297 296 296 295 294 293 292 292 293 293 292

GFSSE_850_thetae_048.txt.gz
Theta_e
342 336 330 329 336 336 337 337 336 335 335 333 325 321 315 310 308 308 308 308 310 323 326 324 318 315 312 313 313 314 312 310 310 309 308 309 310 312 314 322 327 328 326
342 335 328 327 334 336 336 336 335 335 329 324 319 312 308 308 308 308 309 312 317 323 325 321 317 314 314 316 317 316 315 313 310 315 320 315 309 308 309 311 315 320 326
340 336 327 325 326 332 334 334 330 324 321 315 309 307 308 309 309 309 311 314 318 320 320 319 315 315 317 317 316 315 314 311 312 319 321 321 319 310 310 308 308 309 315
338 337 333 324 324 325 325 324 321 317 312 308 307 308 309 310 310 311 313 316 319 319 320 318 315 316 317 316 315 313 313 312 314 321 321 322 321 308 310 312 311 310 313
338 337 334 324 324 324 323 319 313 310 307 308 308 310 311 311 311 314 316 317 320 321 320 317 316 317 317 316 314 313 312 311 318 320 321 321 321 310 307 317 320 319 316
338 337 333 325 325 324 318 312 309 307 308 308 310 311 310 311 314 316 315 315 319 318 317 316 317 317 316 314 314 313 311 313 318 319 320 320 319 306 305 306 307 309 310
338 337 330 325 325 319 313 309 307 307 308 310 311 310 311 314 316 315 314 315 315 315 316 317 316 316 315 314 313 310 310 311 317 317 319 319 312 305 304 303 303 303 305
338 337 331 326 321 316 316 308 308 308 310 311 310 310 313 317 316 314 314 314 315 316 315 315 315 315 313 312 310 309 309 311 315 316 318 318 307 306 304 303 302 302 303
336 335 330 326 319 318 313 318 311 310 310 310 310 311 315 315 313 313 314 315 315 315 316 316 316 315 315 315 313 311 309 308 313 314 315 316 311 309 305 304 301 302 303
335 332 329 326 319 316 314 315 314 311 310 309 310 312 313 313 314 315 316 316 316 317 318 318 318 318 317 316 315 312 309 310 312 313 313 311 313 314 312 305 301 302 303
333 330 328 326 318 314 313 313 314 310 309 311 313 314 315 317 316 319 318 317 317 318 318 318 318 318 318 317 316 313 311 312 311 311 311 304 308 313 313 309 303 301 302
332 329 326 322 319 316 315 315 314 312 312 313 314 316 320 321 321 319 317 317 318 318 319 318 318 318 317 315 315 312 311 310 309 308 308 301 301 313 311 310 308 304 302
328 323 319 318 316 314 315 314 312 312 311 312 315 319 319 318 316 316 316 318 318 319 318 319 319 317 318 316 316 311 309 308 307 306 305 299 299 305 311 310 310 306 304
320 321 319 319 318 314 313 314 312 314 315 312 312 313 313 313 314 317 321 320 319 319 319 319 319 319 318 318 315 310 309 306 304 304 304 299 298 298 311 311 309 307 304
319 319 316 313 313 314 314 314 316 315 312 315 312 312 314 315 313 314 317 319 319 320 320 320 319 318 319 317 312 309 307 303 301 301 306 299 297 298 311 310 309 306 306
318 316 314 316 314 313 313 314 314 313 312 311 312 312 312 312 313 314 317 320 320 320 320 319 318 319 318 315 310 308 303 301 300 299 305 306 298 299 307 310 309 307 306
319 320 317 318 315 315 314 312 314 311 311 313 316 312 313 315 317 320 320 321 321 321 320 319 319 318 316 310 309 305 302 300 300 300 304 306 306 303 304 304 304 304 304
321 322 322 321 320 320 315 311 317 317 314 317 320 320 322 323 323 323 323 323 323 321 320 319 319 316 312 309 307 304 302 301 299 300 304 303 304 305 303 302 302 305 304
323 323 322 323 322 315 314 311 314 316 316 324 322 323 324 323 322 322 323 322 322 321 320 319 318 314 310 307 305 304 306 302 300 300 300 299 298 301 300 300 297 299 299
323 323 323 323 323 321 318 314 315 320 322 324 324 323 322 323 323 322 322 321 322 321 320 318 315 311 308 306 304 304 305 301 300 301 301 299 299 298 299 298 298 298 296
324 325 324 325 325 326 325 321 318 320 323 325 324 321 323 323 322 321 320 320 321 321 318 317 313 310 307 307 306 306 305 301 300 301 300 300 300 299 298 297 297 297 297
324 325 324 325 326 326 327 323 320 319 322 324 324 323 324 323 321 319 319 320 320 318 318 316 312 309 308 309 307 306 307 305 302 302 301 300 300 299 297 297 298 298 297
325 326 325 325 326 328 327 325 322 321 323 324 324 324 324 323 322 321 320 320 320 319 318 314 311 308 308 308 309 307 306 308 304 303 302 301 300 299 299 298 298 297 296
327 325 326 326 327 328 327 327 324 321 323 324 325 325 324 324 323 322 320 320 320 318 315 313 310 307 308 307 307 306 303 302 303 304 302 301 300 299 299 298 297 296 296
329 328 326 325 326 327 327 327 326 323 322 325 326 324 324 324 324 322 320 319 318 317 315 312 311 307 307 309 308 304 302 303 302 300 300 300 299 298 297 296 295 296 296
331 330 329 327 327 327 327 325 327 327 325 325 324 322 323 324 324 322 319 318 317 315 314 312 309 307 308 310 310 302 302 302 300 300 300 299 298 297 296 296 296 296 295

GFSSE_850_thetae_054.txt.gz
Theta_e
341 336 339 340 338 338 336 335 333 333 333 331 330 323 315 311 313 314 315 315 315 319 315 312 311 312 312 311 311 313 317 321 320 310 310 314 318 319 317 320 324 326 326
340 334 339 342 339 338 335 335 333 333 333 331 326 319 311 311 312 312 317 316 318 315 313 312 314 315 314 312 312 317 321 322 322 322 315 310 309 309 309 310 315 323 326
334 334 340 341 341 338 335 335 334 333 332 330 322 313 309 310 311 324 321 319 317 314 314 316 314 313 312 310 314 321 322 322 323 323 322 321 319 313 312 316 312 310 316
340 336 339 340 340 339 336 335 333 333 332 325 317 309 309 309 322 325 325 320 316 314 316 315 313 312 312 311 315 321 322 323 323 323 321 317 319 322 317 314 314 313 311
334 336 336 338 340 339 337 335 334 333 328 320 310 308 308 311 323 325 326 320 315 315 315 315 313 312 311 311 318 321 321 322 321 319 317 313 306 307 306 306 306 308 309
338 335 335 335 339 339 337 335 334 331 322 312 308 308 309 313 318 323 324 321 315 315 316 315 313 312 310 310 318 319 320 322 322 318 306 305 304 304 303 303 303 304 305
335 334 335 333 337 337 336 334 333 324 314 308 308 309 312 316 319 321 321 320 315 316 315 314 311 310 309 309 317 317 318 320 321 320 309 305 304 303 302 302 302 303 303
334 334 335 334 337 336 335 333 325 316 308 308 310 312 314 318 320 320 319 317 316 315 315 313 313 312 310 308 311 315 316 318 319 319 317 306 305 303 302 301 302 302 302
335 336 333 336 336 334 332 325 315 309 308 310 312 314 317 319 319 319 318 316 316 315 315 316 316 313 311 309 310 314 315 316 316 316 313 306 307 304 302 302 301 301 301
336 336 330 328 328 327 326 320 317 318 313 312 314 318 317 318 319 318 317 316 315 316 317 318 317 315 312 310 312 314 314 314 314 314 307 305 310 308 304 302 302 300 301
335 335 330 326 326 326 324 317 315 318 314 314 318 318 318 318 318 317 316 316 317 318 318 318 318 317 314 311 311 313 313 312 312 312 307 303 308 309 306 304 303 301 301
332 332 328 326 325 325 323 319 313 319 319 319 318 317 316 317 317 316 315 317 318 318 318 319 318 318 317 316 313 312 311 310 309 309 308 302 306 311 310 306 303 301 301
330 329 326 325 324 321 318 314 317 316 316 318 317 316 319 318 319 316 317 317 318 318 318 319 319 319 318 317 312 310 310 309 308 308 307 303 301 313 310 309 305 302 301
328 327 327 323 321 319 317 315 314 316 317 320 320 320 319 315 322 316 317 317 318 319 318 320 320 319 319 318 311 311 309 308 307 307 308 308 300 309 311 309 308 305 301
326 325 323 322 319 316 314 317 316 315 315 317 319 316 316 322 321 317 318 318 319 320 320 321 320 319 319 318 311 310 309 307 307 308 309 309 301 299 313 312 310 306 303
322 320 319 318 315 317 317 315 315 317 319 316 316 317 320 321 322 322 323 323 322 322 321 321 320 319 318 317 313 310 308 308 309 308 308 309 306 299 310 312 311 309 307
321 319 318 316 316 318 316 318 317 317 317 315 315 318 320 321 322 323 324 323 323 323 322 321 320 319 318 315 312 310 311 311 312 308 308 309 308 308 301 302 306 303 302
320 319 318 318 319 319 318 318 317 315 314 314 315 315 317 322 322 321 322 324 324 323 323 321 320 319 317 314 311 309 308 310 310 308 307 307 307 308 307 305 303 301 300
319 318 318 318 318 317 315 314 312 313 314 316 312 316 312 315 322 321 324 324 324 323 322 321 320 318 317 315 312 310 309 308 308 306 306 306 306 305 306 304 301 301 299
318 317 315 314 314 314 313 313 313 313 314 312 313 319 321 320 320 322 324 324 323 323 322 320 319 319 318 315 312 309 309 310 310 307 307 306 305 303 303 302 301 301 300
319 319 317 316 315 318 317 314 318 321 320 317 319 320 324 322 321 321 322 325 323 323 321 321 320 318 318 314 312 309 311 311 311 309 307 305 305 303 303 302 302 300 300
323 321 320 318 316 318 319 319 317 321 321 318 320 325 323 323 322 323 323 323 323 322 322 321 320 319 318 314 313 311 312 312 311 311 308 307 305 304 303 303 301 300 300
325 325 323 322 322 321 321 323 322 320 319 321 322 324 323 326 324 324 322 324 323 321 321 320 320 319 317 313 313 312 312 313 310 310 308 307 305 304 303 303 301 301 301
326 325 326 325 325 325 322 325 325 322 320 321 321 323 324 325 324 324 324 324 324 322 321 320 320 319 316 313 313 312 310 311 310 309 308 307 305 305 304 303 302 301 301
327 326 326 326 326 325 326 324 326 324 322 321 322 323 325 326 324 323 325 324 323 322 321 320 319 319 318 316 313 312 311 309 309 307 307 307 306 305 302 302 302 300 299
326 327 326 327 327 326 328 326 327 327 325 323 322 324 325 325 326 324 324 324 323 323 322 320 319 317 317 313 313 311 310 309 309 307 307 305 305 304 302 301 300 299 298

GFSSE_850_thetae_057.txt.gz
Theta_e
337 340 338 339 335 331 331 331 331 331 329 329 324 317 310 311 312 312 313 312 319 314 311 310 310 310 311 314 318 320 321 319 309 311 313 313 312 312 316 322 325 327 327
336 338 339 338 336 331 330 331 331 331 330 327 321 312 310 311 311 310 313 318 314 311 312 313 313 312 316 321 322 323 323 324 321 310 310 311 317 310 310 313 317 324 326
329 330 334 339 337 331 331 331 332 331 330 324 317 310 310 311 313 313 317 315 312 313 314 312 310 312 319 321 322 323 323 323 323 316 315 322 322 316 317 312 310 310 312
329 328 327 339 339 333 332 331 332 331 329 321 312 310 310 314 315 318 317 313 314 313 312 312 311 312 320 321 322 323 323 323 321 313 307 307 312 309 307 307 307 308 312
336 337 338 339 336 334 333 332 331 330 325 318 309 309 316 321 320 319 315 314 314 313 313 312 310 313 318 321 321 321 322 321 319 306 305 305 305 304 304 304 305 306 312
334 330 338 339 337 336 333 332 332 330 323 312 308 309 323 324 323 318 314 314 314 314 313 311 309 313 319 319 319 322 320 320 309 305 305 304 304 303 303 303 303 304 306
337 336 336 337 335 329 334 333 331 326 319 309 308 311 325 323 325 318 314 314 315 314 312 310 309 312 318 318 320 321 320 320 318 312 305 304 304 303 303 303 302 303 303
337 336 336 335 332 331 332 332 328 321 312 308 309 312 320 323 324 318 314 315 315 313 312 311 309 309 317 317 317 320 321 318 315 308 306 305 304 303 302 302 302 302 302
334 334 335 335 335 336 334 333 328 313 309 309 311 317 323 324 321 318 315 315 314 314 315 313 310 309 310 315 316 316 316 315 314 313 306 307 305 303 303 302 301 301 302
333 334 335 334 333 334 330 323 319 317 309 310 312 318 321 322 319 318 316 315 315 317 317 315 312 310 310 313 315 314 314 314 314 313 306 305 307 306 305 302 300 301 303
335 335 334 334 334 331 329 326 317 311 312 313 317 320 321 321 320 319 316 316 316 318 318 317 313 311 310 312 313 313 312 312 311 310 308 304 307 307 305 302 301 301 303
335 334 333 331 332 330 326 324 314 311 316 318 320 320 321 320 318 318 316 316 318 318 318 317 317 316 315 312 311 311 311 310 309 308 308 303 304 307 306 304 302 301 301
332 330 330 329 328 328 324 322 315 310 313 320 321 321 318 315 317 316 316 317 318 318 319 318 318 318 317 315 310 310 310 309 308 308 308 306 302 306 308 306 304 301 301
330 330 327 327 325 326 322 316 316 313 318 318 318 317 314 315 315 316 317 318 318 318 319 319 319 319 318 317 310 311 309 308 308 308 309 308 302 312 314 312 306 302 300
328 327 325 325 324 320 316 314 315 318 319 318 318 316 315 317 317 316 317 317 318 318 319 320 320 319 319 318 311 312 309 308 309 308 309 309 305 301 304 307 306 303 301
323 323 325 323 322 320 317 315 318 321 321 319 315 318 316 316 319 317 317 318 319 320 321 321 320 320 319 318 316 310 310 308 311 309 309 309 309 306 302 308 309 306 302
322 323 322 322 320 316 316 315 315 315 316 315 318 316 315 320 320 322 323 323 322 322 322 321 321 319 318 318 316 313 310 310 309 311 311 310 308 307 306 303 306 306 304
321 321 320 318 318 316 314 314 315 314 316 314 316 317 319 321 321 323 323 324 323 322 322 322 321 320 318 318 315 313 310 310 310 309 311 310 308 307 307 307 305 304 302
319 319 318 315 316 315 317 316 316 316 317 317 316 315 317 318 318 322 322 322 323 323 323 322 322 320 319 317 314 312 312 310 310 311 310 308 307 306 306 306 305 302 301
319 318 317 316 318 317 317 316 315 317 316 314 314 315 315 314 317 319 320 322 324 323 323 323 321 320 319 317 315 313 311 309 308 310 311 309 307 305 304 304 303 302 302
318 317 318 319 319 318 318 317 314 314 313 314 315 313 312 313 314 315 318 322 324 323 322 322 321 320 319 318 315 313 309 308 310 311 311 310 309 309 306 303 303 303 302
316 315 316 316 316 317 316 314 314 314 314 315 314 311 317 319 321 320 317 321 322 322 323 322 320 320 320 319 316 313 311 311 311 311 311 310 308 306 305 304 304 303 301
318 316 315 315 315 315 313 313 314 316 314 316 313 316 321 320 322 322 321 321 321 322 323 322 320 320 320 319 318 316 312 312 312 312 311 310 307 306 305 304 303 303 301
321 319 316 316 316 316 315 314 314 314 319 320 318 316 319 323 322 321 322 322 322 322 323 322 321 320 320 319 317 315 313 313 312 310 309 309 307 306 306 305 303 303 302
323 324 322 319 317 318 319 320 320 321 321 319 319 320 320 322 324 323 324 323 322 323 323 323 321 321 320 318 315 314 312 312 310 310 309 309 307 306 305 305 303 302 301
323 324 325 324 322 322 322 321 324 326 324 322 320 321 321 321 324 324 324 324 322 324 324 323 322 321 320 318 316 314 313 312 310 311 309 308 307 305 305 305 303 301 301

GFSSE_850_thetae_060.txt.gz
Theta_e
339 338 337 329 326 328 330 325 326 328 328 324 319 311 311 314 314 318 317 314 320 320 315 310 311 312 314 316 316 311 310 312 313 312 310 314 325 323 323 325 325 326 326
339 338 337 334 327 328 329 327 327 328 326 321 315 311 311 312 316 314 315 318 312 309 310 311 314 317 319 321 321 319 317 311 310 312 324 324 315 312 315 315 316 323 324
335 335 331 329 331 330 329 327 327 327 324 319 311 310 310 311 310 317 316 312 311 312 312 315 319 321 323 325 326 327 320 314 310 309 311 323 326 315 309 310 310 316 323
330 329 331 327 334 332 329 328 327 325 320 314 310 311 310 310 316 315 312 312 313 312 312 317 320 321 322 322 323 321 320 317 307 307 307 307 307 309 309 308 313 320 319
330 330 333 327 325 329 330 328 327 324 319 311 310 311 311 314 316 313 313 312 311 311 312 318 321 321 321 322 322 321 315 312 306 306 305 305 305 304 305 305 311 316 321
331 333 328 329 331 334 330 329 326 322 315 311 311 313 314 317 315 313 313 312 312 311 312 318 320 320 321 321 321 320 318 308 306 305 305 304 304 305 304 303 304 307 311
333 336 337 336 337 334 333 332 326 321 312 312 325 320 318 317 313 313 313 313 312 310 313 319 320 318 319 321 320 320 318 310 307 306 305 304 305 305 303 303 303 305 306
336 334 335 336 337 334 331 331 327 316 311 322 327 325 321 316 314 314 314 313 311 310 309 317 317 316 320 320 320 319 316 314 309 307 306 305 304 304 303 303 304 307 308
336 334 335 336 333 329 331 325 325 313 309 318 326 327 325 317 314 315 314 312 312 311 309 314 317 316 316 317 318 316 315 314 312 306 306 306 305 304 303 303 304 304 303
334 333 334 335 333 331 329 328 326 315 311 311 321 324 324 319 314 315 314 314 315 313 310 309 313 315 315 315 315 315 314 313 311 308 306 306 306 305 303 302 303 303 302
336 334 333 334 333 333 331 329 323 313 316 319 322 324 324 321 315 315 315 317 317 315 312 310 310 313 315 315 314 313 312 311 309 309 307 306 307 306 304 302 302 302 302
335 335 334 334 333 330 327 328 318 312 310 317 320 323 322 321 316 315 316 317 318 317 314 312 310 311 312 313 313 312 310 309 309 309 308 306 306 308 306 304 302 302 304
334 332 334 334 332 327 327 320 319 309 313 317 319 321 321 320 317 316 317 318 318 318 317 317 316 314 312 311 311 311 310 309 309 309 309 308 305 308 308 305 303 301 302
331 332 332 331 329 328 324 319 314 314 315 316 321 321 320 318 316 316 317 318 318 318 318 318 318 318 317 315 310 311 310 309 309 310 310 309 306 305 307 307 306 303 302
329 331 330 330 330 327 322 317 318 317 318 320 320 320 316 317 315 315 317 318 318 319 319 319 319 319 318 317 310 311 311 310 310 310 310 309 307 303 305 310 306 304 302
327 326 327 328 327 324 323 321 313 319 321 320 320 316 315 315 315 315 316 317 318 318 319 320 320 320 319 319 313 311 311 311 311 311 310 311 310 308 306 305 306 304 302
325 326 326 326 325 325 319 316 318 316 318 319 318 317 315 316 315 316 316 317 317 319 320 321 321 320 319 318 318 312 311 311 311 311 311 310 310 308 308 307 306 304 303
323 323 324 325 325 321 320 315 315 322 320 317 317 314 315 316 317 317 318 321 321 321 322 322 321 321 320 319 319 316 311 310 310 311 311 310 310 310 308 308 307 306 305
321 322 321 321 321 320 317 318 320 321 318 317 317 316 316 316 317 318 319 321 322 323 322 322 322 321 321 320 319 316 314 313 310 310 310 311 311 310 309 308 307 306 305
320 320 320 321 319 317 316 318 319 317 316 315 315 315 316 318 321 322 321 322 323 323 323 323 322 322 321 320 319 317 314 312 310 308 309 310 311 310 309 308 307 305 304
319 320 320 318 317 315 315 315 315 315 314 315 316 315 318 320 319 320 319 319 320 322 322 323 323 322 321 320 318 316 312 312 310 308 310 311 310 309 307 308 308 305 304
318 319 318 316 315 314 315 315 315 316 316 316 316 316 317 315 314 313 313 314 319 322 321 323 323 322 321 320 318 316 314 313 310 311 310 311 310 309 307 307 307 305 304
318 318 318 317 317 316 317 317 316 316 316 316 317 316 315 315 312 314 319 319 316 321 321 322 323 322 321 320 319 318 313 312 314 313 312 311 310 309 308 308 307 305 304
317 316 318 319 319 319 317 317 315 315 315 314 314 314 315 312 315 318 319 322 322 320 320 321 323 323 322 320 320 319 317 314 313 311 312 311 309 309 309 307 306 305 304
317 315 317 318 318 317 318 316 315 315 314 314 314 315 312 311 316 320 321 322 321 321 320 321 322 322 322 321 321 320 318 316 312 312 311 310 310 312 308 306 305 305 305
318 316 315 315 314 314 313 313 313 313 314 314 314 314 313 312 315 319 322 323 322 323 323 322 321 322 322 321 321 320 319 317 314 311 311 311 312 310 307 306 307 305 305

GFSSE_850_thetae_063.txt.gz
Theta_e
339 335 327 325 326 331 332 331 329 327 322 325 328 332 329 327 324 318 313 316 329 332 332 327 314 309 310 312 315 314 314 313 312 325 326 327 324 323 324 324 324 325 325
341 338 330 325 326 331 332 327 328 327 322 318 321 325 325 323 318 312 312 324 327 322 314 311 313 314 312 310 310 310 310 312 315 316 318 322 324 321 322 323 323 324 324
339 337 334 330 327 328 328 328 324 323 324 315 314 317 316 318 314 316 320 317 312 310 311 314 317 319 318 314 314 311 310 309 310 318 313 318 326 323 317 321 324 324 323
338 338 336 333 330 328 327 327 324 322 321 314 312 315 318 314 317 317 313 310 310 313 315 316 318 322 322 319 318 314 307 307 308 308 309 314 320 322 323 323 323 323 322
336 337 337 334 329 326 325 328 327 321 323 314 313 315 314 316 315 312 311 312 313 316 318 318 320 321 320 320 312 309 306 305 305 306 306 307 312 316 319 321 321 319 319
334 329 332 329 328 326 327 330 328 323 315 314 315 313 316 314 312 312 312 311 313 318 320 319 320 320 320 319 317 311 306 305 305 305 305 306 308 310 310 311 316 315 311
331 334 335 328 330 328 330 329 325 323 316 313 314 316 314 312 313 311 311 311 314 319 320 320 320 320 320 319 317 311 307 306 305 305 306 306 308 312 311 310 309 308 307
332 332 333 329 328 326 334 327 326 327 320 317 316 315 313 314 312 312 311 311 315 319 319 319 319 320 320 318 316 314 312 308 307 306 306 305 306 308 308 306 307 303 303
332 334 335 334 333 333 331 329 329 325 319 323 317 316 314 313 313 312 311 310 316 319 317 317 319 320 320 319 315 314 312 310 307 307 307 306 305 305 305 304 303 303 302
327 326 333 334 334 325 327 327 324 324 319 327 320 316 314 314 313 312 310 309 311 318 316 316 316 317 316 316 314 313 312 310 309 307 307 307 305 304 304 303 303 303 302
331 329 333 333 330 329 330 325 322 318 322 324 324 316 315 315 314 312 312 310 309 315 315 315 315 316 315 315 313 312 310 309 309 308 307 307 307 305 304 303 303 303 303
334 333 333 332 329 330 327 326 325 323 320 322 324 320 314 315 313 314 315 314 310 309 310 314 315 315 314 313 312 311 310 309 309 309 308 306 308 307 305 304 304 303 303
333 334 333 332 332 330 329 325 325 323 321 322 319 322 315 315 314 316 317 316 314 312 310 311 313 312 311 311 311 310 310 309 309 310 309 308 308 307 307 305 304 303 302
331 333 332 333 330 330 328 327 323 318 315 318 320 322 316 315 315 317 318 318 317 316 316 314 312 312 312 310 310 310 309 310 310 311 311 310 309 307 307 307 306 303 302
330 330 330 330 330 329 327 327 318 312 317 321 322 320 319 316 316 317 318 318 318 318 318 318 318 318 318 316 310 311 310 310 311 311 311 311 309 307 307 308 308 306 303
328 327 328 325 327 327 324 319 313 318 321 323 322 321 319 316 317 317 318 318 318 318 318 319 319 319 319 318 313 311 310 310 311 311 312 311 310 308 307 308 308 307 305
325 326 327 326 326 324 321 317 317 317 315 319 321 321 319 316 316 317 317 317 318 318 319 319 319 320 319 318 317 312 310 310 311 311 311 311 311 309 308 307 308 308 306
324 325 326 326 326 325 323 322 317 318 322 321 318 320 318 315 315 316 316 316 316 318 319 320 321 320 320 319 318 317 316 311 310 311 311 311 311 310 308 307 308 308 307
321 322 324 324 324 323 321 319 321 324 319 317 320 316 315 315 315 316 316 316 317 319 321 321 321 321 321 320 319 318 315 314 314 312 310 310 310 310 309 308 308 308 307
320 321 322 323 323 323 319 319 319 316 320 321 319 316 317 316 316 316 316 318 321 322 322 322 322 322 321 321 320 319 316 316 314 314 310 308 310 310 310 309 309 308 306
319 319 320 322 322 320 317 316 319 320 320 320 318 315 315 316 319 319 318 320 321 321 321 322 322 322 322 321 320 319 317 316 315 315 313 310 310 311 311 310 309 309 306
318 318 318 319 320 319 317 315 315 320 318 319 316 316 314 316 318 321 320 319 320 319 320 322 323 323 322 321 321 319 318 315 314 314 312 311 310 310 311 310 309 308 307
318 318 319 320 319 317 317 318 320 319 317 316 316 315 315 315 320 320 319 320 318 315 316 318 320 322 322 322 322 320 316 315 316 315 314 312 310 309 310 309 309 308 306
317 318 319 319 317 316 316 316 318 319 316 315 315 315 315 317 316 315 314 313 315 320 318 315 318 320 322 322 322 320 319 317 315 315 315 314 313 309 309 309 311 308 306
317 316 318 318 317 316 315 316 316 316 315 315 314 316 315 315 316 315 312 312 315 316 321 322 321 321 321 321 321 321 320 319 318 317 314 314 315 312 310 310 311 310 306
317 316 317 318 318 318 317 317 317 317 316 315 316 316 315 315 315 315 315 313 315 318 321 322 322 321 320 321 321 322 321 320 319 318 318 314 313 311 311 312 312 308 306

GFSSE_850_thetae_069.txt.gz
Theta_e
335 334 334 333 330 327 331 333 333 334 335 335 331 329 323 320 318 317 319 323 329 332 330 325 327 328 328 328 327 327 327 326 325 326 325 325 326 326 325 326 328 328 328
333 334 332 330 330 330 330 332 333 335 335 335 330 328 323 319 319 320 321 326 331 332 327 323 328 326 324 326 326 325 325 326 326 327 326 324 325 325 325 326 327 326 327
335 333 331 331 330 331 329 327 330 334 334 335 332 329 324 321 322 321 322 329 329 328 322 327 328 326 318 317 316 320 319 318 323 324 324 325 324 324 323 325 325 324 325
336 335 332 329 330 330 328 329 330 331 333 332 332 328 324 322 321 320 328 329 328 321 315 321 320 311 310 310 310 312 311 310 310 310 321 322 323 323 323 323 322 316 319
338 335 331 330 330 329 329 329 329 330 327 330 332 328 324 322 321 326 330 329 321 311 312 312 310 309 310 308 308 307 308 308 309 318 322 322 321 318 314 311 310 310 312
341 333 332 329 331 329 327 328 327 324 327 332 330 326 324 321 320 327 328 319 321 325 324 314 312 307 307 306 306 306 306 306 308 317 320 318 318 316 313 311 307 307 308
339 334 331 330 330 329 327 327 326 324 324 323 319 317 321 315 322 326 325 325 327 327 323 311 307 307 306 306 306 306 306 306 309 315 317 318 317 316 313 307 305 304 303
338 336 331 330 329 327 327 327 327 324 324 320 321 319 317 317 324 324 323 319 319 320 318 313 313 308 307 307 306 306 306 306 307 310 317 318 313 308 307 305 305 304 304
337 335 333 331 328 328 328 327 327 328 328 319 317 320 315 321 321 323 318 317 319 319 318 317 311 311 310 308 307 307 307 307 306 307 315 314 307 308 306 305 304 304 304
332 333 333 331 329 329 329 327 327 328 327 323 323 320 316 321 322 320 317 318 319 320 319 317 314 313 311 310 309 309 308 308 307 307 314 310 307 307 306 305 305 305 305
331 331 329 331 330 330 330 328 329 328 323 320 322 321 315 322 322 316 317 318 319 319 319 318 315 313 311 310 309 309 309 308 308 309 312 307 307 306 305 305 305 305 305
327 329 329 327 328 327 330 329 326 322 321 318 320 321 314 316 315 315 318 318 317 319 320 318 315 313 311 310 309 309 309 308 308 308 309 308 307 306 305 305 304 304 304
330 329 329 328 324 325 326 323 324 323 322 318 320 318 315 312 317 318 317 316 317 319 319 316 314 312 311 310 310 309 310 309 309 309 309 308 308 307 307 307 305 304 304
331 331 330 330 325 326 328 326 327 324 321 321 318 315 313 313 317 317 317 316 315 315 315 314 313 312 311 310 309 310 310 310 310 310 308 308 308 308 310 310 310 308 305
330 328 330 328 328 328 327 326 326 322 318 317 319 314 312 311 311 316 316 316 315 315 314 313 311 311 311 310 310 309 310 311 311 311 311 309 309 309 310 311 311 310 307
327 328 328 328 330 329 327 326 325 324 318 317 318 314 312 311 309 309 312 314 313 313 312 311 311 311 310 310 310 310 309 310 310 311 311 310 310 310 309 310 310 310 308
325 327 327 326 328 328 327 324 323 320 321 319 318 315 312 313 312 310 309 310 311 311 311 313 317 318 317 312 310 310 309 309 310 310 310 310 310 309 309 309 310 310 309
323 324 326 326 327 327 326 322 322 322 321 320 318 316 314 314 314 314 311 310 312 317 317 318 318 318 318 317 316 315 311 310 309 310 310 310 310 310 310 309 309 309 309
324 324 325 323 325 326 325 325 323 323 322 322 316 316 314 313 315 315 314 315 317 318 318 319 319 319 319 319 318 318 318 315 311 310 311 310 310 310 310 310 309 309 309
323 324 324 325 325 325 325 325 324 323 321 321 321 320 316 314 316 317 317 317 318 318 319 319 320 320 320 320 320 320 319 318 316 314 313 312 310 309 310 310 310 309 309
320 321 323 324 324 324 325 325 325 323 319 320 319 319 318 315 315 317 318 318 318 317 317 317 319 321 321 321 320 320 320 319 319 317 316 315 315 313 310 309 310 310 309
319 320 321 322 323 324 324 322 321 320 316 318 317 322 321 316 315 316 317 317 316 316 316 315 318 319 321 321 321 321 319 320 320 320 319 318 317 315 314 311 309 309 309
318 319 320 321 321 322 323 323 320 319 318 321 319 321 321 317 316 316 316 316 316 316 316 317 318 318 320 321 322 321 320 320 320 319 319 318 318 316 315 316 311 309 309
317 317 319 320 321 322 321 321 321 321 320 319 318 321 321 318 316 316 316 316 316 317 317 317 318 317 317 318 320 320 321 321 320 319 319 318 317 318 317 316 315 310 311
318 317 317 318 319 320 321 321 321 320 319 320 321 320 318 316 316 316 316 316 318 317 318 318 319 315 318 320 320 319 320 321 321 320 319 318 319 319 318 317 317 314 313
322 317 317 318 319 320 320 320 319 321 320 320 319 316 316 316 316 317 316 316 317 316 319 317 314 314 315 318 319 321 321 321 321 320 320 320 320 318 318 316 316 315 314

GFSSE_850_thetae_072.txt.gz
Theta_e
342 344 335 334 333 330 330 332 335 333 331 330 329 325 324 322 320 318 317 320 323 329 328 328 330 330 330 329 327 328 328 329 328 325 326 327 327 329 330 330 330 330 330
342 344 334 332 331 333 333 333 332 334 332 331 329 325 322 320 318 317 316 322 330 330 326 329 330 331 330 327 327 326 326 326 325 324 326 327 327 328 329 329 329 328 328
341 342 333 332 333 334 332 335 335 334 334 332 328 324 321 318 317 318 318 328 331 329 327 330 329 328 325 326 326 325 325 325 326 326 328 327 327 328 327 326 327 326 325
341 342 337 334 335 332 334 336 335 335 335 330 327 324 320 320 320 321 323 330 331 329 326 328 319 321 320 322 323 320 320 321 323 324 327 326 326 325 324 324 323 322 320
340 339 338 334 332 333 337 336 335 335 335 330 328 323 321 323 324 321 328 330 330 328 326 321 313 312 312 314 315 312 313 314 321 324 324 324 323 322 322 319 311 311 310
338 338 336 332 331 322 331 334 334 335 334 331 327 325 323 323 324 320 329 329 326 314 317 316 310 311 311 309 309 309 311 317 324 323 322 321 320 313 310 307 305 305 305
336 337 328 327 330 327 326 334 336 335 333 332 327 325 324 322 323 326 330 325 316 315 313 309 309 308 308 307 307 308 311 321 321 321 320 320 317 311 306 304 303 303 303
335 338 332 333 329 330 331 334 329 332 331 331 327 325 323 321 319 329 326 323 325 317 313 309 307 306 306 306 306 307 308 319 320 320 320 319 311 311 307 305 304 304 304
334 337 335 332 331 330 330 331 330 330 328 331 326 323 323 318 318 326 323 326 327 320 308 307 306 306 306 306 307 307 310 319 320 320 319 318 310 312 307 305 305 305 305
333 336 336 332 331 329 327 328 328 330 331 328 324 320 317 319 322 324 322 323 324 316 313 309 308 307 307 307 307 307 308 318 320 320 319 316 311 312 308 306 305 305 305
332 333 334 332 331 330 329 328 327 327 327 325 323 320 315 319 325 321 317 322 320 317 312 312 311 309 308 308 308 308 317 318 319 319 318 310 313 311 306 305 306 305 305
331 331 330 330 330 328 325 328 329 328 329 326 324 319 321 325 323 322 317 320 319 318 314 313 312 310 311 309 308 313 318 318 319 319 317 312 312 309 305 305 305 305 304
330 329 329 327 327 325 324 326 326 328 328 325 321 321 320 324 324 318 319 320 320 318 316 314 311 315 317 317 316 317 316 318 319 318 314 310 309 307 306 305 304 304 304
329 331 331 328 328 325 326 326 326 325 324 322 319 319 317 325 322 318 321 322 322 321 319 317 318 318 317 316 316 315 318 318 318 318 311 309 309 310 311 310 308 307 305
330 330 330 329 328 325 324 324 323 323 323 322 321 321 322 323 318 317 323 324 323 323 322 320 318 315 312 311 315 315 317 318 319 318 316 309 310 312 312 312 311 308 306
329 329 330 329 329 326 325 325 325 324 323 321 321 321 318 317 316 317 317 322 323 324 322 319 317 315 314 315 314 316 316 316 318 319 317 310 310 310 313 312 311 310 307
328 329 328 327 326 327 327 326 326 323 321 321 318 319 314 313 313 315 316 316 319 320 319 317 316 315 314 314 313 310 311 311 315 316 318 317 312 310 310 313 313 311 309
324 325 326 327 327 327 328 327 326 322 322 319 319 318 313 312 312 313 316 316 317 316 315 315 314 313 313 313 311 310 312 311 313 312 317 318 317 316 311 310 310 310 310
324 324 326 325 325 327 327 327 326 324 319 318 319 315 310 313 313 314 314 317 311 312 314 316 318 315 316 314 315 312 311 312 311 311 314 311 316 316 317 315 310 309 309
322 323 325 323 325 326 326 326 324 323 318 317 319 316 310 313 312 310 313 311 311 316 316 318 318 318 318 318 314 316 318 317 313 312 312 313 314 311 315 317 314 311 310
320 323 324 323 324 324 325 324 323 322 320 318 317 317 311 313 314 312 314 311 314 318 318 319 319 319 320 319 318 318 320 320 320 318 317 316 314 314 312 314 315 317 317
319 321 322 323 324 325 325 325 324 323 323 322 318 316 313 314 313 313 313 313 316 318 320 318 320 320 320 320 320 321 321 319 319 320 319 319 317 314 314 314 312 312 312
318 319 321 323 323 325 324 324 323 323 323 322 323 317 315 318 314 314 316 316 317 318 317 317 318 319 319 319 320 321 322 322 322 320 320 320 319 319 318 317 315 315 312
321 318 319 322 322 323 323 324 323 324 323 321 321 321 320 320 319 314 316 317 317 317 317 317 316 317 319 319 319 319 321 321 321 321 319 320 319 319 318 317 316 314 311
322 317 318 320 321 321 323 323 323 321 321 319 317 318 319 320 319 316 315 316 316 316 316 317 317 317 317 317 318 318 319 319 320 320 321 321 319 319 319 319 317 317 317
323 320 317 319 320 322 321 322 323 323 321 319 318 318 319 318 317 317 315 316 316 316 317 317 317 318 316 317 317 320 322 321 321 321 321 321 321 319 319 319 319 316 316

GFSSE_850_thetae_075.txt.gz
Theta_e
342 343 339 334 337 339 339 338 336 332 329 329 328 326 325 322 320 319 318 322 319 321 323 326 328 329 328 325 325 326 329 328 329 331 331 330 330 331 331 332 332 332 331
343 344 341 334 334 340 341 338 335 332 331 329 328 326 324 320 320 319 319 319 326 326 329 330 331 330 329 325 327 329 329 326 326 328 329 329 330 330 330 330 330 330 330
342 344 339 334 334 339 340 339 335 331 329 330 329 326 322 320 321 321 320 322 329 327 329 332 332 331 326 327 327 327 327 325 326 327 329 329 329 328 328 327 327 327 327
342 342 342 334 335 338 338 339 336 332 329 330 329 325 321 319 324 321 328 330 329 327 330 331 330 328 325 327 325 325 324 324 325 325 330 328 327 327 325 325 324 323 322
342 342 341 336 333 335 336 334 337 333 331 331 328 324 320 319 325 328 330 331 329 325 327 329 327 323 326 324 323 323 324 325 327 327 326 326 325 324 323 322 319 316 314
342 342 338 336 334 333 333 326 334 335 333 331 327 324 320 320 324 327 331 331 329 324 322 319 317 319 320 322 317 316 319 324 325 325 324 323 323 322 316 309 309 308 307
340 340 338 335 330 325 325 325 324 336 334 330 326 322 321 323 323 326 330 329 327 320 318 311 310 314 317 315 311 317 323 324 324 322 322 322 317 314 306 305 304 304 303
337 336 337 333 327 326 330 326 325 336 334 330 325 322 323 324 322 327 330 328 321 313 313 310 310 310 309 310 312 321 322 322 322 321 321 320 311 305 304 304 303 303 303
330 333 337 336 333 331 328 327 331 335 335 329 325 324 325 324 327 322 327 318 313 311 309 309 308 307 307 308 311 320 321 322 322 321 320 319 309 307 306 305 305 305 305
333 332 336 336 335 333 330 330 331 330 334 331 328 325 325 325 328 318 324 324 317 312 308 307 306 306 306 307 309 317 321 321 321 320 321 314 310 308 306 306 306 306 306
331 334 336 335 334 333 332 331 331 330 331 331 329 326 324 324 327 324 327 327 321 308 307 307 306 307 307 307 310 318 321 321 321 320 319 310 309 310 308 307 306 306 306
334 333 333 334 332 331 332 330 329 328 331 332 328 324 326 324 326 326 325 327 319 311 309 308 307 307 308 308 315 319 320 321 321 320 317 311 308 309 307 306 306 306 305
333 334 334 333 332 332 331 329 328 326 327 330 325 323 325 322 325 325 324 326 316 311 311 309 308 313 317 316 317 320 320 321 321 319 312 313 309 309 306 305 305 305 305
333 332 331 331 328 327 328 327 326 325 324 328 326 323 325 323 324 321 324 322 317 314 313 310 316 320 319 318 320 320 320 320 320 319 311 312 311 311 309 307 306 305 305
332 332 331 330 329 328 326 324 328 326 328 328 325 324 322 323 323 324 324 322 319 320 318 316 320 320 319 319 319 320 320 320 320 319 314 310 311 312 314 312 309 308 307
332 330 330 330 329 329 324 324 325 326 325 325 322 323 322 320 322 323 323 323 322 322 321 320 320 319 318 318 319 320 320 321 320 319 317 310 312 313 314 313 311 310 308
329 328 329 329 327 328 326 324 324 324 323 323 322 322 318 316 320 323 323 323 323 323 322 321 319 318 317 318 318 319 319 320 320 320 318 312 310 311 314 313 312 311 310
328 328 328 328 327 327 327 324 324 325 323 323 322 321 319 323 320 322 324 324 324 324 323 320 318 317 317 317 317 317 318 318 319 320 320 319 315 313 310 312 313 311 311
328 327 325 326 327 328 327 327 326 325 323 323 322 317 315 317 318 318 320 321 322 322 320 319 317 317 316 316 316 316 316 317 318 318 319 319 319 318 317 312 311 310 310
327 328 325 326 325 326 327 326 326 324 323 321 320 317 314 319 317 316 317 318 319 319 318 318 318 318 317 316 315 315 314 315 316 316 317 318 319 318 319 319 318 314 310
326 325 324 326 324 325 325 326 324 323 323 321 316 316 317 318 316 316 316 314 315 317 317 318 319 319 319 317 316 316 317 317 316 315 314 315 317 318 317 318 318 318 316
326 324 324 325 324 325 326 324 325 324 323 322 318 318 315 312 313 316 317 319 317 319 320 320 321 321 320 318 318 319 320 318 319 319 317 316 315 315 315 317 318 318 318
326 325 325 324 324 325 325 325 324 324 322 321 319 319 312 312 313 314 316 314 313 317 318 319 319 320 321 320 320 321 320 322 322 320 319 318 317 316 316 315 315 316 313
326 325 323 323 324 325 325 325 324 323 322 321 318 318 315 310 313 315 315 313 311 313 318 319 320 318 319 318 319 320 320 322 320 321 321 320 319 318 318 318 316 316 315
327 325 325 324 323 325 325 325 325 324 324 323 322 316 318 311 313 314 317 315 312 315 318 319 319 317 317 318 318 318 322 319 319 318 320 321 320 319 320 319 319 319 317
328 325 325 322 322 324 325 323 324 324 323 323 323 323 318 313 315 318 318 315 313 317 318 317 317 317 317 318 318 317 317 319 322 321 321 321 321 321 321 321 320 320 319

GFSSE_850_thetae_078.txt.gz
Theta_e
344 340 339 337 338 337 337 336 333 330 328 328 327 325 325 323 322 321 320 320 322 316 316 319 321 325 328 330 332 332 326 326 328 329 330 330 331 332 332 331 329 330 331
346 343 339 337 338 338 337 336 334 331 329 328 327 325 324 322 321 320 321 319 316 321 325 325 323 324 325 326 326 326 327 329 330 329 330 332 331 332 332 331 330 330 329
345 342 342 338 335 341 341 340 336 332 329 328 328 326 323 321 321 322 320 320 322 327 330 331 330 326 323 326 329 327 325 327 328 329 329 330 330 330 329 328 328 328 326
342 343 341 339 334 335 340 340 340 335 331 328 329 326 322 320 320 322 326 328 328 328 332 332 330 325 326 327 327 325 324 326 328 328 328 329 329 327 324 325 324 324 321
343 341 341 340 335 334 337 336 336 336 332 329 329 326 321 320 321 324 328 328 327 331 332 333 329 323 326 325 324 324 326 326 327 324 324 326 327 325 323 321 321 318 315
342 341 340 338 336 334 335 334 331 330 334 330 330 324 321 320 320 326 329 329 329 332 330 328 326 322 324 322 324 326 326 326 326 327 324 324 326 325 317 314 312 309 308
341 341 340 337 335 334 333 333 332 327 325 333 331 323 323 321 323 327 330 330 327 327 322 320 322 320 321 320 323 324 325 325 324 324 322 321 324 315 309 308 307 306 305
338 337 342 337 333 332 328 328 327 326 325 330 331 325 321 324 324 327 330 330 326 319 315 315 316 316 316 312 322 324 323 322 322 322 318 312 315 306 305 304 303 303 303
333 330 337 335 335 331 329 327 327 326 325 330 330 323 321 326 326 328 328 328 325 317 311 310 312 311 310 315 323 322 322 322 322 321 314 310 307 305 306 304 304 305 305
339 330 333 336 336 334 331 329 326 329 325 329 330 325 323 326 326 329 328 327 316 313 310 309 308 307 308 315 321 322 322 322 322 319 313 311 309 310 307 306 306 306 306
333 331 331 335 335 334 333 330 330 329 324 331 329 327 326 328 325 329 325 316 312 309 309 308 307 307 307 312 321 321 322 321 321 320 313 313 313 312 309 307 307 307 306
334 334 331 335 335 334 334 332 331 330 327 322 331 329 327 327 326 325 325 319 312 308 307 306 306 307 307 313 320 322 321 322 321 320 311 315 314 310 307 307 306 306 306
335 334 333 333 333 334 333 332 330 329 329 329 331 329 327 324 323 326 327 319 308 307 307 306 307 307 308 316 320 321 321 321 321 319 312 314 311 308 307 306 306 306 306
333 333 335 333 333 332 332 332 330 329 326 327 330 327 325 326 324 324 327 321 310 308 307 307 308 311 309 318 321 321 321 321 320 316 312 309 309 309 306 306 306 306 306
334 333 332 332 331 329 328 328 327 327 327 326 327 325 326 325 323 324 324 323 311 310 309 310 318 318 316 319 321 319 320 321 320 313 310 310 309 310 310 309 308 307 307
332 330 330 331 330 329 327 325 324 326 327 326 327 323 324 323 321 320 323 321 312 312 310 320 321 319 319 320 320 321 320 320 320 315 309 310 312 312 312 311 310 309 309
331 328 329 331 330 329 327 324 324 327 326 327 326 325 325 322 320 318 320 318 319 315 314 321 321 320 319 319 320 320 321 320 320 317 309 311 312 312 312 312 311 311 311
331 326 326 329 329 327 327 324 324 324 325 326 326 325 324 321 320 322 319 320 323 321 319 322 320 318 318 319 319 320 320 321 320 320 317 311 311 311 311 312 311 311 311
330 326 324 326 329 326 328 326 324 325 323 324 324 323 322 321 321 319 320 321 324 323 321 321 318 318 318 318 318 318 319 320 320 321 320 319 317 313 311 310 311 311 311
329 328 326 324 326 326 326 327 326 326 323 323 323 322 321 316 315 314 318 324 324 323 322 320 318 317 317 317 317 317 317 317 318 319 320 320 319 319 318 319 317 317 315
328 328 325 324 326 326 325 326 326 326 324 323 322 320 315 316 313 320 322 323 322 323 321 319 318 317 316 316 315 315 315 316 316 317 318 318 319 319 319 319 319 318 318
328 327 326 324 325 324 326 325 326 326 324 323 323 321 318 318 319 319 320 320 320 322 320 318 318 318 318 316 317 316 316 316 315 315 315 315 317 318 318 317 318 318 318
327 326 325 324 325 325 326 324 325 324 323 322 322 318 314 313 316 319 319 317 317 316 316 315 316 319 319 318 317 317 320 320 320 319 318 317 316 316 316 315 317 318 318
327 327 324 322 326 324 327 325 324 324 323 322 321 317 315 318 318 318 319 318 317 318 316 313 317 320 320 319 318 319 320 321 320 321 321 320 318 318 317 316 316 316 316
329 327 324 324 324 324 324 324 324 324 323 323 322 315 315 317 317 317 317 317 316 315 315 315 319 320 320 320 319 320 320 320 319 318 317 320 320 320 318 319 318 318 319
330 327 326 322 323 326 325 326 325 323 324 323 322 320 316 317 314 317 318 316 313 313 313 316 319 319 319 319 318 317 318 319 318 317 317 317 320 320 321 320 320 320 320

GFSSE_850_thetae_081.txt.gz
Theta_e
336 342 337 337 336 335 336 334 331 329 328 327 326 325 327 329 330 335 335 332 329 325 320 326 326 328 330 330 334 333 330 329 328 327 330 330 330 331 330 329 330 330 331
335 340 338 337 337 336 336 336 332 330 328 327 326 325 325 325 328 328 326 322 322 317 314 318 322 329 329 331 332 327 328 327 327 332 332 332 331 331 330 330 330 328 328
336 334 336 339 337 337 336 337 335 331 329 328 327 326 323 322 321 320 320 319 315 315 316 319 326 327 329 329 327 329 329 328 329 330 331 331 331 330 330 329 327 328 328
329 332 336 340 335 337 337 337 337 334 330 328 328 326 322 321 319 319 318 318 321 324 326 325 324 325 326 328 326 325 326 328 327 329 329 329 329 329 328 327 325 321 322
330 329 333 339 336 335 338 338 339 337 334 331 329 326 322 320 319 317 318 326 330 331 332 330 323 326 328 326 324 325 326 327 327 325 330 329 329 327 324 321 319 315 316
329 328 335 338 339 334 334 335 335 335 335 332 337 327 321 320 321 324 325 328 330 333 332 328 324 326 325 324 325 327 327 327 325 323 327 326 326 324 317 315 312 311 310
337 339 337 336 336 336 334 335 334 331 329 325 325 333 325 322 324 327 328 329 331 331 329 325 322 323 324 326 327 326 325 327 326 321 322 325 324 318 313 310 308 307 307
338 341 339 335 335 334 334 333 333 332 329 328 326 331 328 324 325 328 329 330 329 326 326 323 321 320 325 325 325 324 324 324 323 323 318 322 320 314 309 307 305 304 303
332 340 336 335 334 334 332 330 326 328 327 327 326 326 328 326 326 324 330 330 325 319 318 320 318 317 323 324 323 322 322 322 321 316 313 319 311 308 306 303 303 303 304
326 331 333 334 335 334 333 331 329 327 326 326 326 327 330 326 325 323 327 329 324 315 319 317 315 312 323 323 322 322 322 321 321 312 308 311 308 309 305 305 305 305 305
331 330 330 336 335 335 333 330 329 327 327 326 327 327 328 329 330 330 329 328 320 312 313 314 313 311 323 322 322 322 322 322 321 308 307 308 311 309 306 306 306 306 306
332 331 332 334 335 335 334 332 329 329 327 326 326 330 328 328 329 330 329 324 317 311 310 309 309 314 321 322 322 321 321 320 318 315 308 309 310 308 307 307 307 306 306
332 332 333 332 335 333 334 333 330 331 326 325 328 329 328 328 331 329 324 318 314 312 308 307 308 313 320 321 321 322 321 321 321 320 308 308 308 308 307 306 306 306 306
332 332 332 332 333 332 333 333 331 330 327 326 326 329 329 328 328 325 321 314 309 308 307 307 307 310 320 321 321 321 321 321 320 320 308 308 308 307 307 307 307 307 307
332 332 332 331 331 331 332 332 330 329 329 326 325 330 326 327 324 322 322 311 307 307 306 307 307 313 320 320 321 321 321 321 320 317 307 307 307 307 307 306 307 307 308
332 333 331 331 330 329 328 328 328 329 328 327 325 327 326 323 324 321 324 310 307 307 307 308 307 316 320 320 320 320 320 320 320 314 308 308 308 310 310 309 308 308 308
331 331 328 330 329 329 326 326 324 327 328 327 327 327 325 325 325 320 325 312 308 308 308 311 313 314 317 319 319 321 320 320 320 315 308 309 311 312 311 311 310 310 309
329 330 329 330 329 328 326 323 324 327 325 327 327 326 325 325 323 323 325 317 310 309 318 318 319 320 319 318 320 321 320 320 319 318 309 310 312 312 312 312 311 311 311
328 328 326 328 329 328 326 324 324 324 326 327 326 326 325 325 323 321 323 316 313 314 320 321 320 319 318 318 320 320 320 320 320 318 318 311 311 311 311 311 311 311 311
327 328 326 323 327 327 326 325 324 325 324 325 326 324 325 324 321 318 321 317 316 314 320 321 320 318 318 319 319 320 319 320 320 320 319 317 317 316 314 311 312 311 312
327 328 327 321 327 329 325 325 326 325 324 325 326 325 324 320 320 321 320 319 322 320 320 321 319 318 318 318 318 318 318 318 319 320 320 320 320 319 319 318 318 318 318
327 327 327 322 322 327 325 325 325 325 324 323 324 324 322 320 320 321 321 322 321 322 321 320 318 318 318 317 317 317 316 317 317 318 318 319 319 319 319 319 318 317 318
327 326 326 321 321 325 326 324 326 325 324 323 323 322 321 319 318 317 318 318 323 322 322 320 318 317 317 316 316 316 315 315 315 316 315 317 317 318 318 318 318 318 317
328 326 326 321 322 323 325 324 324 325 323 323 323 320 318 317 316 316 320 319 321 322 320 320 319 317 315 316 316 316 316 318 320 319 317 317 316 316 316 316 316 316 316
329 327 326 322 320 323 323 324 324 323 324 323 323 322 316 318 316 317 320 320 320 321 321 321 318 314 314 317 317 316 317 320 320 319 320 320 319 319 319 318 318 317 316
330 328 326 323 322 325 324 324 324 324 323 324 322 323 322 319 317 318 319 319 317 318 318 316 315 315 315 315 319 318 317 320 320 319 318 317 317 317 317 317 320 319 319

GFSSE_850_thetae_084.txt.gz
Theta_e
328 327 329 332 336 334 333 332 328 328 328 329 328 328 333 338 340 339 335 332 331 327 323 322 331 327 331 333 335 335 331 328 327 327 331 330 330 330 330 329 329 330 331
330 327 327 331 336 335 334 333 330 328 327 326 326 327 331 334 336 336 335 332 329 324 320 323 330 330 331 333 333 330 328 327 330 330 330 330 330 330 330 330 330 330 328
325 326 325 330 335 335 335 334 331 329 328 327 326 326 328 333 333 334 332 329 325 321 317 321 322 329 330 332 329 328 327 328 330 331 332 331 330 330 330 329 328 328 328
324 324 326 329 335 337 335 335 333 330 328 328 327 327 327 327 329 327 324 323 319 315 314 319 331 329 330 328 327 328 329 330 331 331 330 329 329 330 329 327 326 325 323
322 324 328 333 337 337 336 336 335 332 329 328 328 327 327 325 322 321 320 317 314 315 319 326 327 328 328 328 329 329 328 328 329 330 328 328 328 328 327 323 318 318 317
324 327 329 335 337 335 337 338 337 336 331 329 330 329 326 328 323 320 317 317 320 326 329 330 326 327 327 326 326 326 326 326 326 326 328 326 328 325 321 315 314 312 312
325 330 331 334 337 336 334 336 336 337 335 333 331 330 327 325 328 320 320 324 330 332 331 325 328 326 324 324 324 325 324 323 322 324 327 327 324 322 313 311 310 309 309
327 332 335 336 337 336 335 334 335 334 334 332 329 329 323 327 327 327 327 330 332 331 324 326 326 324 324 326 324 325 323 324 321 319 319 323 322 319 312 308 307 306 304
328 328 333 337 336 336 335 334 334 333 331 330 328 326 326 328 330 327 329 331 331 329 323 325 324 325 326 326 326 324 324 323 323 321 315 318 318 316 308 305 305 304 303
328 325 331 335 339 337 335 333 331 327 328 327 327 327 325 324 328 329 328 331 329 328 323 322 324 326 327 326 324 324 323 321 318 314 312 312 314 310 307 307 305 305 306
331 328 328 332 335 334 334 333 332 328 327 326 326 326 326 325 328 328 329 329 325 323 323 320 325 325 324 322 322 322 321 321 317 308 307 309 312 312 308 307 306 306 306
332 329 328 329 334 334 334 332 330 328 327 327 326 325 325 326 329 326 323 321 324 319 322 319 322 324 323 321 322 322 321 321 311 306 308 312 313 311 307 306 306 306 306
333 329 330 329 336 334 333 333 331 328 328 326 325 326 327 328 328 325 326 328 319 314 320 318 317 323 321 322 322 322 321 319 314 307 310 309 309 309 307 307 306 306 306
332 331 328 331 331 333 332 332 332 330 330 326 324 327 326 329 328 329 329 326 314 314 314 314 315 322 321 321 321 321 320 321 320 319 308 308 307 307 307 307 306 306 306
332 331 329 330 331 332 332 331 331 330 328 327 324 327 328 328 326 330 328 319 313 312 310 310 320 321 321 321 321 321 321 321 320 319 310 308 308 307 307 307 307 307 307
332 331 330 330 329 331 330 330 330 330 328 327 324 325 329 328 326 328 324 314 311 310 307 309 320 321 321 321 321 321 321 321 320 319 309 307 307 307 307 307 307 307 308
331 330 330 329 328 329 329 330 331 330 329 326 327 327 328 328 326 324 320 312 309 307 307 308 317 320 321 320 320 320 320 320 320 317 307 307 308 308 309 309 309 308 308
330 329 330 328 328 326 328 326 325 325 328 328 328 328 329 326 325 322 321 310 307 307 307 307 312 320 320 320 320 320 320 320 319 318 308 308 310 311 311 310 310 309 309
328 328 329 328 327 326 326 324 324 325 326 328 327 328 327 326 323 324 323 310 307 307 307 307 317 317 318 318 320 320 320 320 319 318 310 309 311 312 312 311 311 311 311
328 328 328 326 327 326 326 324 324 324 325 325 327 327 328 326 324 324 323 312 307 308 312 314 312 314 311 315 320 320 320 320 320 319 315 311 311 311 311 311 311 311 311
328 328 327 326 326 325 325 325 323 324 325 325 327 327 328 325 324 323 325 312 308 314 319 316 318 319 318 317 320 320 320 320 320 320 319 318 314 315 314 314 311 311 311
328 328 327 326 322 324 325 325 324 324 323 325 326 326 326 325 324 324 324 313 311 319 320 318 320 320 318 318 319 320 319 319 320 319 319 319 318 319 318 318 318 317 317
328 328 327 326 321 325 324 323 324 324 325 325 324 325 325 325 324 321 320 319 315 315 320 321 320 318 318 319 318 318 317 318 318 319 319 318 318 319 318 318 317 317 318
328 328 327 325 320 320 324 324 325 325 324 323 324 324 325 324 321 320 322 318 316 320 318 321 320 317 318 318 318 317 316 315 316 316 317 318 317 317 317 317 316 317 317
328 328 327 325 320 319 327 323 324 326 325 324 323 324 324 322 320 321 323 321 320 321 318 321 319 317 317 317 317 317 316 315 316 316 316 315 315 316 316 317 317 317 317
328 328 327 325 320 320 323 323 323 324 323 323 323 323 323 321 321 321 320 321 319 319 320 321 320 318 318 317 317 315 315 316 318 320 319 319 319 319 319 318 318 319 318

GFSSE_850_thetae_087.txt.gz
Theta_e
327 324 326 330 334 333 332 330 328 332 336 335 337 339 340 340 338 336 331 330 329 325 325 326 328 329 331 334 335 334 331 331 332 333 333 333 333 332 332 332 332 332 332
325 323 323 326 334 333 332 330 328 333 333 332 333 336 339 339 339 338 333 331 328 325 325 327 327 329 332 334 334 331 330 329 329 331 332 330 330 329 329 330 330 331 331
324 324 323 325 334 334 332 331 329 330 330 329 331 335 338 339 339 338 333 331 327 325 324 329 326 330 331 334 333 329 327 327 329 330 329 329 329 329 330 330 328 329 329
325 325 324 327 334 335 333 332 330 329 329 328 328 333 335 335 336 335 334 331 328 324 327 332 331 330 331 332 330 327 326 329 330 329 329 329 329 328 328 328 327 328 327
325 326 326 328 333 336 334 333 331 330 329 328 329 331 332 333 333 334 333 330 326 325 328 332 332 329 331 329 327 326 328 329 330 329 329 328 328 327 326 325 324 323 318
324 327 326 329 334 336 336 335 333 331 330 329 328 330 331 332 331 331 330 328 329 323 332 331 329 329 329 326 327 328 330 330 329 328 326 327 328 327 324 316 313 313 313
323 329 329 332 335 336 337 336 336 334 331 329 328 327 327 326 326 325 324 325 327 326 329 329 329 328 327 329 329 328 328 328 328 327 325 326 327 322 317 312 311 311 310
325 328 330 333 335 336 334 337 336 336 333 330 329 329 329 327 324 325 324 325 326 328 328 327 327 328 328 327 326 325 325 325 325 324 321 323 322 319 312 309 310 308 307
327 327 328 334 335 336 336 335 336 335 334 332 331 331 329 327 323 324 325 326 330 331 328 326 327 326 326 324 323 323 322 319 320 322 319 321 322 317 313 309 306 305 303
329 328 328 335 335 335 335 335 334 334 333 333 331 328 328 324 326 326 324 327 330 329 326 327 326 324 325 324 324 321 323 323 322 318 313 320 317 315 311 310 307 307 305
330 329 327 334 333 334 334 334 334 333 331 328 328 327 326 326 324 327 324 328 330 326 327 326 325 325 325 325 324 323 322 320 318 317 312 317 315 313 313 311 308 308 307
330 330 327 328 331 332 332 333 333 332 330 327 327 326 326 326 326 327 323 328 328 325 325 325 326 327 327 324 323 322 320 320 313 313 310 312 316 310 313 309 307 306 306
331 330 327 327 328 333 333 334 333 331 328 326 326 326 326 325 325 325 325 330 327 326 324 326 327 326 324 322 322 321 321 317 308 309 307 312 314 311 312 308 307 306 306
331 331 329 326 329 335 332 332 332 331 328 327 326 325 325 326 325 327 325 327 326 325 323 326 326 324 323 322 321 321 320 314 308 307 308 313 309 312 311 307 307 306 306
331 330 329 326 328 330 332 332 332 332 329 328 327 324 325 326 326 327 328 327 326 324 322 325 324 323 321 322 321 321 320 320 319 316 309 310 308 311 308 307 306 306 306
330 331 330 327 327 329 329 330 330 330 330 327 326 325 324 328 327 328 324 324 325 322 322 322 323 322 321 321 321 320 320 320 320 319 312 308 307 308 307 307 307 307 306
328 331 330 328 327 327 325 329 329 329 330 327 327 325 330 327 328 327 324 328 319 317 321 319 321 320 321 321 321 321 321 320 320 318 312 308 308 307 307 307 307 307 308
329 331 330 328 328 327 325 328 329 328 329 328 327 325 327 327 327 327 328 327 314 315 317 316 321 320 320 321 321 321 320 320 319 318 309 308 307 308 307 307 308 308 308
329 330 329 328 327 327 324 327 327 328 330 329 328 326 325 328 325 326 327 321 313 312 310 312 321 320 320 320 321 320 320 320 319 318 309 308 308 309 310 309 309 309 309
329 330 329 328 327 326 322 325 324 323 325 326 328 328 325 326 326 326 324 318 310 310 309 313 321 320 320 320 320 320 320 320 319 318 314 309 310 311 311 311 310 310 311
329 329 328 328 326 322 320 325 323 326 324 327 328 328 328 327 327 321 322 318 309 308 308 311 318 320 320 320 320 320 320 319 319 319 317 312 310 311 312 311 311 311 311
328 328 328 327 325 322 319 324 324 324 327 324 325 327 328 328 327 324 323 321 308 307 307 308 313 319 319 318 319 320 319 319 320 319 319 319 318 312 313 312 313 311 310
328 328 327 327 324 322 320 324 323 324 324 325 324 326 325 327 327 324 323 321 308 307 309 309 316 318 316 317 319 319 319 320 320 320 320 319 319 318 317 318 317 316 316
328 328 328 327 325 321 320 324 323 324 322 323 324 325 326 327 327 325 325 322 309 308 312 314 314 316 316 317 319 320 318 317 318 319 319 318 317 317 317 318 318 317 316
328 328 328 327 325 321 320 321 323 323 324 325 323 325 322 326 325 325 324 325 314 313 317 319 314 319 320 318 316 318 319 317 316 316 316 316 316 316 316 316 317 317 316
328 328 328 327 326 321 318 321 323 323 323 325 325 322 322 325 325 325 324 322 320 316 314 320 316 316 320 318 316 317 317 317 316 315 315 315 314 315 315 316 316 317 318

GFSSE_850_thetae_093.txt.gz
Theta_e
322 320 320 321 322 326 330 334 337 338 340 340 341 340 340 337 333 332 332 332 330 328 328 328 329 330 330 332 331 332 333 333 334 334 334 334 333 333 332 332 333 333 333
321 321 321 321 321 327 331 335 335 335 336 338 339 339 340 337 334 331 331 331 329 327 327 328 329 329 330 331 330 330 332 333 333 334 334 333 333 332 331 331 333 333 333
321 322 321 321 321 327 332 334 333 334 334 336 338 339 340 338 335 330 331 330 327 327 326 328 328 330 330 331 330 331 332 333 333 334 334 333 333 332 331 331 331 331 331
322 322 321 321 322 329 334 333 333 332 335 336 339 340 339 338 335 330 330 329 326 326 326 328 328 329 331 332 330 331 331 332 333 333 332 331 331 331 331 331 331 331 330
322 322 322 321 322 329 334 333 332 332 332 336 337 338 338 337 335 332 331 329 327 327 327 329 330 330 333 332 330 329 330 331 331 330 329 330 329 329 330 330 330 329 329
322 321 322 322 323 328 333 333 332 332 331 331 335 336 336 336 335 334 333 332 330 329 328 328 330 332 333 332 331 328 327 327 328 327 329 329 329 330 329 328 327 326 325
320 320 323 324 327 330 334 333 332 331 330 330 333 332 334 335 335 335 334 333 332 332 329 328 329 330 332 331 329 326 326 327 328 328 328 329 329 327 325 326 325 319 319
321 321 323 325 329 334 336 336 335 332 331 330 331 331 333 334 335 333 333 332 331 328 326 328 329 329 330 330 328 326 328 329 328 328 327 327 325 322 318 318 317 312 313
322 323 325 326 330 336 337 336 335 334 332 330 330 332 332 332 332 329 328 328 326 326 323 322 329 330 330 329 327 328 329 329 328 328 327 325 326 323 318 313 313 310 310
324 323 325 326 330 336 337 336 336 335 334 332 330 331 330 330 328 328 327 327 326 326 325 323 326 328 329 328 328 329 329 329 328 327 325 323 324 320 314 315 312 309 308
326 324 325 327 331 337 335 336 336 335 334 333 330 329 331 328 327 327 329 328 326 326 324 325 324 327 328 328 329 329 328 327 327 325 324 322 319 319 319 314 310 309 311
328 324 325 329 329 336 332 335 336 334 334 333 331 329 328 327 328 330 329 326 323 325 325 325 325 327 328 329 329 326 324 321 322 323 322 322 323 318 321 315 311 315 316
328 325 326 327 328 331 331 332 335 337 334 331 331 330 329 329 331 328 326 323 324 325 325 324 327 327 329 327 325 323 322 322 321 320 319 322 320 320 321 317 319 317 318
329 327 326 328 326 327 330 330 332 333 332 331 331 331 331 330 328 327 325 325 325 324 326 326 327 327 327 324 324 322 321 319 317 319 318 318 319 321 319 320 317 317 317
331 328 327 328 327 325 329 330 328 330 333 334 332 331 330 327 326 326 325 325 326 324 328 326 327 326 324 323 323 323 320 318 311 318 319 319 320 320 320 318 318 317 316
330 331 327 328 328 326 325 329 331 330 331 330 331 330 328 326 325 325 326 325 327 325 326 324 327 325 325 325 323 321 319 308 309 312 318 319 320 320 320 320 318 318 312
329 332 328 328 329 327 326 328 330 328 328 327 328 329 326 326 325 326 327 326 326 325 323 325 326 325 326 324 322 320 318 316 313 310 314 318 319 319 319 318 318 318 310
328 331 329 328 329 328 327 328 330 328 326 328 327 329 327 326 325 326 328 327 325 326 324 324 325 326 326 322 321 321 319 318 317 316 315 315 318 319 318 318 318 316 309
323 329 330 329 330 329 328 329 328 327 325 325 326 329 329 327 325 325 325 327 326 326 322 322 326 326 325 321 321 321 319 319 318 317 316 313 314 317 318 318 316 312 307
318 327 330 328 330 330 328 328 327 326 326 325 326 328 328 326 326 326 326 326 326 325 322 325 326 325 324 322 321 320 319 319 318 318 316 312 313 312 311 311 311 312 308
318 319 328 328 330 330 329 328 328 326 327 325 325 326 325 325 327 328 326 327 327 326 325 326 326 324 321 321 321 320 319 319 319 318 317 312 312 311 310 310 310 310 309
318 317 326 328 329 330 329 328 326 323 323 327 327 327 327 326 326 326 326 326 327 326 325 325 325 322 321 321 321 320 318 318 319 318 317 315 312 311 310 311 311 311 310
318 317 321 327 329 330 329 328 326 321 324 325 324 324 327 326 324 327 322 325 325 325 324 325 325 323 320 320 321 320 319 320 319 319 318 318 314 310 309 311 312 312 311
319 318 324 328 329 330 329 327 324 318 322 323 324 325 327 325 324 325 323 325 325 326 320 323 324 322 320 320 320 320 320 319 320 319 319 319 318 317 315 312 311 311 311
319 320 325 329 330 330 328 327 323 319 322 322 323 326 325 326 327 325 324 322 325 324 318 322 324 322 319 319 320 320 320 319 317 315 316 317 318 316 315 315 313 315 314
321 323 326 327 329 330 328 326 322 318 321 323 322 323 324 326 324 326 326 321 323 324 316 314 313 313 314 319 320 320 320 319 317 315 314 315 313 314 315 316 316 316 315

GFSSE_850_thetae_096.txt.gz
Theta_e
324 321 321 321 321 323 328 332 334 337 339 341 341 339 340 334 333 332 332 333 334 337 338 335 333 332 332 332 331 330 332 333 335 336 335 335 335 334 334 334 335 335 334
324 322 322 321 322 323 327 332 335 337 340 340 340 341 340 335 334 332 332 333 333 336 332 332 332 331 331 331 330 331 333 335 335 335 335 335 335 334 334 335 335 334 334
322 322 322 322 321 322 326 333 337 337 339 339 339 339 339 336 334 333 332 332 331 330 326 328 329 330 331 331 330 332 334 334 334 334 334 334 333 332 333 334 333 333 333
322 323 322 321 320 322 327 333 335 335 334 334 335 338 338 337 335 333 333 331 329 327 328 332 333 331 330 331 330 333 333 333 334 334 334 335 333 332 332 332 332 332 331
323 322 321 320 321 323 328 333 334 333 333 332 335 338 338 337 335 333 333 331 331 327 333 332 333 331 330 330 330 332 333 333 334 337 336 334 332 331 331 331 331 330 330
323 322 320 320 321 324 330 333 333 332 331 335 336 338 338 337 336 334 333 332 333 331 331 331 330 329 333 331 330 330 332 332 333 334 334 333 333 331 331 331 330 329 328
323 321 320 320 321 324 330 333 333 332 331 332 336 337 337 337 336 334 332 332 332 332 333 331 330 331 333 331 331 330 330 331 332 332 334 333 331 330 330 330 328 326 325
323 320 320 321 322 325 329 333 333 332 332 331 333 336 337 336 335 334 333 332 332 332 334 330 330 332 333 332 330 328 327 329 331 333 331 330 330 329 328 327 326 322 319
323 321 321 322 323 326 333 337 335 333 331 331 330 332 335 335 335 335 334 333 331 332 329 329 327 329 331 331 329 327 327 329 332 331 331 329 327 326 320 321 321 316 316
323 322 322 324 324 329 336 337 336 335 332 331 330 331 331 333 335 335 332 328 328 328 326 327 328 326 328 330 329 328 328 329 332 331 329 328 325 320 316 314 314 315 313
325 324 323 325 324 334 336 336 338 336 335 332 331 330 331 331 331 333 329 328 328 327 325 327 327 327 327 330 329 329 329 330 330 329 328 326 325 323 315 316 314 314 313
327 327 324 325 325 327 330 333 335 336 335 334 332 331 331 331 332 332 328 327 328 328 326 328 328 325 326 329 329 330 329 330 329 327 326 323 323 322 318 316 316 316 318
331 330 327 325 326 329 328 333 335 335 334 334 334 332 332 331 331 328 328 329 329 328 327 327 326 325 327 328 330 328 329 327 325 324 325 322 322 321 320 317 316 320 319
337 328 329 326 326 327 330 332 332 333 333 334 334 332 331 330 329 328 329 330 329 325 325 328 324 325 327 328 328 328 326 325 324 323 323 322 321 321 320 320 318 318 318
337 330 330 326 327 328 329 329 329 330 334 333 334 332 331 329 328 329 330 330 326 325 326 325 325 328 328 327 327 325 326 324 323 322 322 321 319 320 319 319 317 318 317
335 338 330 327 328 328 325 325 327 328 330 331 332 332 331 330 331 331 329 329 326 325 325 325 325 328 327 327 325 325 324 323 321 321 321 319 320 319 320 319 319 318 315
333 336 336 330 327 328 327 325 327 329 329 329 331 331 331 331 331 330 327 327 327 326 324 326 325 327 327 327 326 325 324 320 320 320 320 321 321 319 319 319 319 315 314
330 334 336 332 328 328 328 326 326 329 331 329 328 327 327 329 328 327 327 328 327 325 325 324 324 327 327 327 325 324 322 320 320 320 320 320 320 321 319 318 318 317 317
329 333 336 332 330 328 329 328 326 328 331 328 327 327 327 328 327 327 328 327 326 326 325 321 323 326 326 325 325 324 322 322 322 321 321 320 320 320 319 318 319 318 318
326 331 334 334 331 329 330 329 327 329 330 328 325 325 326 328 328 326 326 328 326 326 325 323 323 325 325 325 324 323 322 323 323 322 321 320 320 319 319 318 317 316 314
321 326 332 335 331 330 330 330 328 328 332 328 325 325 325 328 329 327 326 326 327 326 325 324 324 325 324 324 323 322 322 322 322 322 321 321 319 319 319 318 318 317 314
321 320 330 334 328 330 329 330 328 328 330 327 325 325 326 326 326 326 325 326 326 325 325 323 323 324 324 323 322 322 320 320 322 321 320 320 318 318 318 318 318 319 318
324 321 329 333 325 330 330 330 329 328 328 326 324 326 326 327 327 326 327 326 326 326 326 323 323 324 324 323 323 322 321 321 321 322 320 322 319 318 317 318 318 318 317
326 328 330 333 325 329 330 330 329 327 325 323 323 326 326 326 325 326 325 326 326 326 324 323 324 325 323 323 323 323 322 321 321 322 321 320 320 318 312 316 317 317 314
324 329 330 331 326 328 329 330 329 329 326 323 325 325 325 327 327 326 320 325 325 326 325 325 325 325 324 323 321 322 322 322 322 321 321 321 320 318 314 312 315 311 311
324 330 331 327 326 328 330 330 329 328 325 325 323 325 326 326 326 325 324 322 325 324 324 325 324 324 323 323 321 321 322 322 321 320 318 320 318 319 316 315 314 314 314

GFSSE_850_thetae_102.txt.gz
Theta_e
336 322 323 321 320 320 321 324 330 338 340 340 340 340 338 338 333 330 329 329 333 334 334 336 337 337 336 338 337 335 335 338 338 336 336 336 336 335 335 336 336 333 333
334 323 323 321 320 320 320 322 327 334 338 340 341 340 338 338 334 331 331 332 334 335 335 337 337 336 335 333 332 331 333 337 335 335 336 336 335 335 336 336 334 333 333
326 324 322 322 320 319 320 322 327 333 336 339 340 340 338 338 334 333 332 333 333 335 336 337 334 333 332 331 330 330 333 334 335 334 335 334 334 335 336 334 333 333 334
324 324 323 322 320 319 320 322 327 333 336 339 340 339 338 339 337 334 333 333 334 337 336 335 334 332 331 330 330 332 333 335 334 334 335 335 335 335 334 333 334 334 334
326 322 322 322 320 319 320 323 327 333 336 339 340 339 338 338 337 335 334 334 336 336 335 333 333 331 331 330 330 333 334 334 333 335 334 334 334 334 334 333 333 332 331
339 323 323 321 320 319 320 323 328 334 336 337 338 338 338 337 337 336 335 335 335 336 335 334 333 330 331 330 331 333 333 333 334 334 334 333 332 332 332 332 331 330 327
338 325 323 321 321 320 321 322 328 333 334 334 334 334 335 337 337 336 335 335 332 330 332 333 334 331 330 330 332 333 333 332 335 333 333 332 331 331 331 331 330 329 324
335 325 324 322 321 321 321 321 327 332 333 333 333 334 335 337 337 337 336 334 334 334 330 327 328 328 327 329 330 332 331 333 333 332 331 331 331 331 331 330 329 322 318
339 325 324 322 321 322 321 320 326 332 333 332 332 334 337 337 337 336 335 334 333 334 332 327 327 327 326 329 329 328 331 332 332 333 330 330 330 330 330 329 327 321 314
339 328 324 323 321 322 321 320 324 331 332 332 331 332 336 337 337 336 335 333 333 332 332 331 328 326 326 326 328 327 328 329 328 329 329 330 330 330 329 328 324 320 312
339 328 324 324 322 322 322 322 325 330 332 332 332 332 333 335 336 336 335 333 332 332 331 331 328 326 326 326 326 327 327 328 329 331 327 328 327 327 326 324 322 318 310
346 339 328 324 323 323 325 323 329 329 331 333 332 331 332 333 334 335 334 333 333 329 330 329 326 326 327 327 325 326 326 329 330 330 329 327 327 324 323 317 315 311 309
345 344 332 328 324 327 329 327 331 334 330 333 333 332 331 332 333 334 334 333 332 329 328 328 327 327 328 326 325 325 327 327 330 328 327 327 325 323 319 317 314 309 314
342 344 336 329 326 328 340 329 332 335 336 338 336 335 334 332 333 333 334 334 333 330 328 328 328 328 327 327 324 325 327 328 329 328 327 325 324 321 322 318 316 315 318
337 339 335 332 327 329 338 333 334 335 337 341 337 335 334 334 334 333 333 332 332 331 330 329 329 329 327 328 325 326 327 326 328 327 325 324 322 320 321 320 316 320 321
333 336 334 332 332 329 334 333 330 326 330 333 332 331 333 333 333 333 332 332 332 332 330 330 330 329 327 326 325 326 327 326 327 325 325 323 321 319 319 318 319 319 319
326 336 335 333 332 328 333 332 331 328 325 329 328 332 331 333 333 332 332 331 331 330 330 330 329 327 327 325 324 326 326 326 325 325 324 322 320 319 318 320 320 319 319
323 328 336 334 331 329 330 338 331 329 328 332 328 330 331 332 332 331 331 330 330 330 330 330 327 327 327 325 326 326 326 325 323 323 322 321 318 319 318 319 318 319 319
322 324 333 334 329 330 330 338 337 329 329 329 332 331 332 331 329 331 331 331 330 329 331 329 327 326 324 326 326 326 324 323 321 322 321 320 316 319 319 319 319 319 318
321 322 334 334 331 334 330 335 337 336 332 330 334 332 330 329 328 328 329 330 330 328 330 329 327 325 325 326 326 325 324 321 321 322 321 320 321 318 318 318 319 318 318
321 323 331 336 334 331 335 329 336 332 331 328 326 331 333 328 326 325 327 326 328 328 330 329 326 325 326 326 326 324 322 321 320 321 322 323 322 321 320 319 319 318 317
320 322 325 336 337 334 336 332 335 335 330 329 328 329 328 328 328 327 326 327 327 328 328 328 326 325 326 326 326 323 322 322 320 320 321 322 323 321 319 320 319 318 316
323 323 322 326 338 336 335 337 335 336 333 334 331 330 330 329 328 327 327 327 326 327 327 328 326 325 325 325 324 322 323 322 322 321 321 319 321 322 321 319 318 317 319
323 322 324 322 328 337 335 337 335 333 332 331 331 331 329 328 328 327 328 327 327 326 326 327 326 325 325 325 324 323 321 321 321 322 321 319 320 322 320 320 320 319 320
325 325 323 324 324 333 335 336 335 334 335 332 331 330 329 327 326 326 326 326 326 326 326 325 326 324 325 324 324 323 321 321 320 319 321 321 320 321 319 320 320 319 319
325 326 326 324 325 329 333 337 335 334 334 333 331 330 329 326 325 327 326 326 324 326 326 326 326 324 323 322 324 322 321 322 322 322 321 320 319 318 320 319 318 319 318

GFSSE_850_thetae_108.txt.gz
Theta_e
329 321 321 321 322 322 322 323 328 335 337 337 338 337 337 333 330 330 335 339 339 338 336 335 334 335 339 340 337 337 336 339 339 336 337 337 336 335 334 333 333 332 333
326 322 322 321 321 320 319 320 324 331 336 338 338 337 336 334 331 329 329 330 334 336 335 336 335 336 338 338 335 335 336 336 335 336 337 336 335 334 333 332 331 332 332
323 323 321 320 320 319 319 319 320 326 332 336 338 338 336 335 332 330 329 331 334 335 335 335 335 334 335 336 333 334 334 335 334 336 335 335 335 335 333 332 332 332 333
323 322 321 320 319 320 320 319 320 324 330 335 338 338 336 337 333 331 331 333 334 334 335 335 334 333 332 332 331 332 333 333 334 335 334 334 335 334 333 332 333 333 333
323 322 321 320 319 319 320 320 320 323 329 334 338 338 337 337 335 333 333 334 333 334 334 334 332 330 330 330 331 333 333 334 334 334 333 333 334 334 333 333 333 333 333
323 321 321 320 319 320 320 319 319 323 328 334 337 338 337 337 337 334 334 333 333 333 332 331 329 327 327 331 332 333 333 333 334 332 333 333 333 333 333 333 334 333 333
321 322 321 320 320 320 319 318 320 323 329 334 337 337 337 337 337 336 335 334 334 334 331 329 326 325 326 328 332 332 332 332 332 332 333 332 333 332 333 333 332 330 327
321 322 322 321 320 320 319 317 319 322 329 334 337 337 336 336 336 336 336 335 334 332 329 328 328 325 324 327 331 332 332 331 332 332 332 331 332 332 331 330 329 327 324
322 322 322 321 320 320 320 317 318 320 327 332 333 334 333 335 335 335 336 335 334 333 331 328 328 326 327 327 331 332 332 331 332 332 331 330 332 330 329 329 328 320 318
324 323 322 321 320 321 321 318 318 320 325 330 330 331 332 334 335 335 336 335 335 333 330 330 328 327 327 326 331 331 331 330 331 331 330 329 331 330 329 328 326 318 313
327 326 324 322 321 321 321 319 318 320 324 329 330 330 332 335 336 336 336 335 334 333 332 330 328 328 326 327 330 330 328 328 329 330 329 330 330 328 327 328 325 319 312
327 328 326 322 321 322 322 320 318 319 322 327 330 330 331 335 336 336 336 335 334 333 332 330 328 326 326 326 329 329 328 328 327 329 328 328 328 325 323 323 323 320 313
326 328 328 326 322 322 322 321 319 319 322 325 330 330 331 334 336 335 336 334 333 332 332 330 328 326 326 326 328 327 327 327 325 327 329 327 326 325 325 321 319 318 312
334 333 330 328 325 323 324 323 321 320 321 323 327 330 330 332 333 334 335 335 333 333 332 330 328 327 326 325 327 327 327 327 326 327 329 327 326 326 324 320 317 315 310
336 334 332 328 325 324 324 325 324 322 321 322 324 329 330 330 331 332 333 334 333 333 332 330 328 328 327 327 326 326 327 326 326 326 328 328 326 325 322 319 313 314 316
339 339 337 336 327 324 323 325 327 324 323 322 322 327 330 330 330 331 332 333 332 332 332 331 329 328 327 328 327 327 326 326 326 326 327 328 326 323 321 318 314 321 317
337 337 339 337 333 327 324 326 328 326 326 324 322 325 330 331 332 331 331 332 331 332 331 331 331 329 328 328 327 325 325 326 326 326 327 328 324 322 321 319 315 320 320
326 330 335 338 337 335 330 325 327 327 327 325 325 322 325 329 332 332 332 332 332 331 331 331 330 330 329 329 328 327 326 324 325 326 326 327 324 322 321 319 318 322 319
321 323 322 332 338 337 334 330 327 328 329 327 327 325 324 327 330 332 332 332 332 332 330 331 330 329 329 328 327 327 326 325 326 326 327 325 323 321 319 317 318 319 320
319 319 319 319 330 339 336 333 332 334 331 330 330 326 326 325 328 330 331 331 331 331 331 329 328 328 328 328 327 326 325 325 326 325 326 324 321 320 318 316 319 319 319
319 319 317 318 322 339 338 336 334 333 332 331 332 329 329 325 326 329 330 332 332 330 330 330 329 328 329 328 327 325 326 325 325 326 324 322 321 319 317 317 318 319 319
320 319 320 318 319 328 337 336 335 331 331 331 331 330 330 330 328 328 329 330 332 332 331 330 330 329 329 328 327 326 326 326 325 325 322 321 320 317 316 316 317 318 319
322 321 323 325 323 329 336 337 335 332 336 336 333 332 330 332 332 330 327 327 328 330 331 329 329 330 329 328 327 326 325 324 324 324 322 322 320 320 319 317 316 316 318
325 330 337 338 336 338 339 338 335 331 331 331 329 329 331 332 332 331 330 327 326 325 326 327 328 329 329 327 327 325 326 324 322 322 322 322 321 321 320 320 319 318 317
320 323 328 337 342 340 337 337 336 333 333 332 331 331 330 332 332 331 332 330 327 326 326 326 328 327 328 326 327 325 325 322 322 321 322 322 322 321 320 320 320 319 319
316 318 322 325 330 331 338 338 335 334 334 333 331 331 329 329 330 329 331 329 328 328 326 326 329 328 325 325 327 325 325 322 321 320 321 322 322 321 321 320 320 320 320

GFSSE_850_thetae_111.txt.gz
Theta_e
328 329 331 332 331 330 329 330 333 334 333 334 335 336 333 331 335 339 340 340 339 338 336 335 334 335 338 337 334 335 336 337 339 337 337 337 337 335 334 334 332 333 333
329 324 324 325 325 326 328 329 332 334 334 335 336 336 334 331 330 334 338 339 338 337 335 334 334 337 339 337 335 335 336 338 336 335 336 336 335 334 333 332 333 333 333
323 321 322 322 323 324 323 324 328 331 334 336 336 336 336 332 329 329 331 334 336 335 335 335 334 336 336 335 332 333 334 334 333 336 336 335 334 333 332 332 332 332 332
322 322 322 320 320 320 319 320 322 326 331 335 337 336 337 333 331 330 332 334 334 334 335 335 334 334 333 331 330 331 332 333 333 335 335 334 334 333 332 331 332 332 331
322 322 321 319 319 320 320 319 320 323 329 334 337 337 336 335 332 331 332 332 332 333 334 334 333 332 330 329 327 328 331 332 334 335 334 333 334 333 332 332 333 333 332
322 321 320 319 319 320 319 319 319 321 327 334 337 337 336 337 333 333 331 331 331 332 333 332 331 329 327 327 329 329 332 332 334 334 333 333 333 333 332 333 333 332 332
321 320 320 319 319 319 319 318 318 320 326 333 337 337 337 337 335 334 333 332 332 332 332 330 328 327 329 328 329 329 333 333 334 332 333 332 332 333 333 333 333 332 331
321 321 321 319 319 320 319 317 319 321 327 332 336 337 336 336 336 335 335 333 332 333 331 328 326 326 327 327 327 329 332 333 332 332 332 332 334 333 332 332 331 329 326
321 321 321 320 320 320 319 317 319 322 326 332 335 336 336 335 335 336 335 334 333 332 329 329 327 326 327 328 328 330 332 331 332 332 332 331 332 332 332 330 328 327 323
321 321 321 320 319 320 319 318 318 322 325 331 333 334 335 334 334 334 335 335 333 331 332 327 326 326 326 326 329 331 331 331 332 331 331 330 331 330 329 328 328 322 316
321 322 321 320 320 320 320 318 319 321 324 329 331 332 332 332 333 334 335 335 335 334 331 330 329 327 327 326 328 330 331 331 332 331 330 329 330 330 328 327 327 321 313
324 324 322 321 320 320 321 320 318 320 322 326 329 330 330 331 332 334 335 335 335 334 331 330 328 328 327 326 329 330 329 328 330 330 329 328 329 329 327 327 326 321 313
323 325 324 322 321 321 321 321 319 320 321 325 328 329 330 332 334 335 336 336 335 333 332 330 328 327 326 326 328 329 329 328 327 327 324 327 326 326 324 322 321 320 315
326 324 324 324 322 321 322 321 320 319 320 323 326 328 329 331 334 335 336 335 334 333 332 331 328 327 326 325 326 329 329 328 327 326 327 325 326 326 325 324 319 318 316
330 326 325 325 324 323 322 322 321 320 320 321 324 326 329 330 331 334 334 335 334 333 332 332 329 327 326 325 325 328 328 327 328 326 326 328 326 326 327 323 320 317 313
332 330 333 332 330 326 323 322 323 321 321 322 323 325 326 329 329 330 331 333 334 333 332 332 330 328 327 326 325 326 328 327 327 327 325 328 327 326 326 323 322 317 313
334 334 333 333 334 332 325 323 324 324 323 322 322 324 325 327 329 329 330 331 333 333 332 332 331 329 327 327 327 326 326 326 327 326 326 326 327 326 323 321 321 321 320
337 336 334 337 337 337 330 326 324 326 326 323 323 324 325 326 328 329 329 330 331 331 331 330 331 330 328 328 327 327 327 326 326 326 326 325 327 326 323 321 321 320 320
337 333 337 338 335 337 337 330 326 326 330 326 325 324 323 326 329 330 330 330 331 331 331 330 330 331 330 329 328 328 327 325 325 325 326 325 327 325 322 321 319 320 319
335 333 335 329 328 333 338 337 332 331 334 331 328 326 323 322 326 329 331 331 331 332 332 331 330 330 330 329 329 328 328 326 327 324 325 324 326 324 322 319 318 318 320
325 327 325 327 326 331 337 339 336 332 332 332 331 328 327 325 323 326 329 331 332 332 331 332 330 330 328 327 327 328 328 326 327 325 326 325 325 323 321 319 318 317 319
317 316 319 322 319 320 327 329 335 335 333 334 334 332 332 327 325 323 325 329 331 331 331 331 330 330 328 328 327 327 326 326 325 325 326 324 325 323 320 319 317 318 318
320 318 317 317 319 324 330 340 339 337 335 335 335 333 333 330 328 326 324 327 330 331 332 331 330 329 329 328 327 327 326 326 325 324 325 325 323 322 320 318 317 317 317
326 330 328 331 330 331 336 338 339 338 336 334 333 332 333 333 330 329 328 327 329 333 332 329 328 328 328 326 327 328 327 326 325 323 324 324 322 321 319 318 316 316 317
323 330 334 336 335 337 339 340 338 339 337 335 334 333 332 333 332 331 331 330 330 328 328 328 330 327 326 326 326 326 327 326 325 324 323 323 321 321 320 319 319 318 317
316 318 323 330 334 334 337 338 338 337 335 336 333 332 332 331 331 329 333 331 331 329 328 327 326 329 325 325 326 325 327 326 325 323 323 322 321 321 320 321 320 320 319

GFSSE_850_thetae_114.txt.gz
Theta_e
327 332 337 339 339 338 337 335 334 333 332 332 332 333 332 335 341 341 341 340 338 336 335 335 335 335 336 335 332 333 334 336 339 336 336 337 336 335 334 333 332 331 332
324 330 333 336 336 335 335 334 334 333 332 332 332 333 332 334 337 340 340 339 338 337 335 334 334 336 337 335 334 334 334 337 337 335 336 336 335 334 333 332 332 332 333
325 326 328 330 330 331 333 334 335 334 333 334 333 333 333 332 333 335 337 339 337 336 334 334 334 337 338 335 333 333 335 336 333 336 337 335 334 333 333 333 333 333 332
325 322 322 324 325 328 330 333 334 333 333 333 334 334 333 331 330 331 331 332 333 334 334 334 334 336 335 334 331 332 333 332 333 335 335 334 334 333 332 332 332 331 331
323 321 322 322 322 322 324 328 330 330 331 333 334 335 335 332 330 329 329 330 331 333 334 334 333 333 332 329 329 329 331 331 334 335 334 334 333 332 331 331 331 331 330
321 322 321 320 319 319 320 322 325 325 328 333 335 335 336 333 331 330 330 330 331 332 333 333 332 331 329 328 328 328 331 332 334 334 333 334 333 332 332 332 332 331 330
322 322 320 319 319 319 319 320 322 323 327 332 334 335 336 335 333 333 331 330 331 332 332 332 332 329 327 327 328 331 331 331 333 334 333 334 332 333 332 332 332 332 330
322 321 320 319 319 319 319 319 320 321 325 331 334 336 336 336 335 334 333 331 331 332 332 331 329 327 326 327 328 331 333 332 333 333 332 334 333 332 332 332 332 331 330
321 320 320 319 319 319 318 317 319 321 324 330 334 336 336 336 336 335 334 332 332 332 331 329 326 326 326 327 329 331 332 332 332 331 332 334 333 332 332 332 331 328 327
321 320 320 319 319 319 319 317 319 321 324 329 334 336 335 335 335 335 335 333 333 332 330 328 327 326 325 326 329 330 332 331 331 331 331 331 332 331 331 331 328 327 323
321 321 320 319 319 319 319 318 318 321 324 329 334 336 335 334 333 334 335 334 334 331 329 328 327 326 326 327 329 330 331 331 331 331 331 331 331 329 329 328 327 325 317
321 321 321 320 319 320 319 319 318 320 323 327 331 334 334 332 331 332 334 335 333 331 332 329 327 327 326 326 328 331 331 330 331 331 330 330 329 329 328 327 327 325 318
322 321 321 320 319 320 320 319 319 319 320 325 329 331 331 330 330 331 334 334 334 334 334 329 329 328 327 326 326 330 329 328 329 328 330 329 328 328 327 324 325 324 318
322 321 321 321 320 320 320 320 319 318 319 321 326 328 329 329 330 331 334 335 335 334 332 330 330 327 327 326 326 329 329 328 328 327 326 326 327 326 325 324 323 320 319
325 321 323 322 321 320 321 321 320 319 319 320 322 325 327 329 329 331 333 335 335 334 332 332 330 328 327 326 326 327 329 329 328 327 326 326 327 326 327 325 323 320 318
331 327 327 325 323 321 321 321 321 319 319 320 321 322 325 327 328 330 332 334 335 334 333 332 331 328 326 326 325 326 328 328 328 327 327 326 327 327 327 326 325 323 321
336 333 331 327 326 324 323 321 322 321 320 320 320 321 323 325 328 330 330 331 332 333 333 332 331 330 327 326 326 326 325 327 328 327 327 326 326 327 326 325 324 324 322
333 335 333 330 330 331 330 326 323 323 322 321 321 322 322 324 327 329 330 329 330 331 333 332 331 331 329 327 327 327 326 326 326 326 326 327 326 327 326 325 322 322 321
326 336 335 333 334 332 335 332 325 324 324 324 323 322 322 322 325 328 328 329 329 330 332 332 331 331 330 329 328 328 327 327 327 326 326 326 326 326 325 325 322 321 320
326 335 335 334 336 334 337 335 330 326 325 325 325 324 323 323 325 326 328 328 329 330 331 331 331 330 329 330 330 329 327 327 327 326 325 326 326 325 326 324 321 320 320
331 337 336 336 337 337 339 339 336 330 328 327 327 326 325 324 324 326 327 328 329 330 330 331 331 330 330 330 330 328 327 326 326 326 325 325 326 325 326 323 321 318 319
318 331 337 338 338 338 339 339 339 337 333 330 329 329 329 327 324 324 324 326 329 330 331 331 331 330 331 330 328 326 326 326 326 326 325 325 325 325 325 324 320 318 317
316 317 322 335 339 338 337 339 338 339 337 335 334 331 330 330 329 327 326 325 327 330 330 331 331 332 330 329 331 326 326 325 326 325 325 325 325 325 324 323 320 318 317
320 318 317 319 320 325 333 338 339 338 337 335 335 333 332 332 331 331 329 328 325 330 334 332 329 328 328 327 325 325 325 325 325 324 325 325 325 325 324 322 320 317 316
324 325 326 323 320 324 335 334 341 340 336 337 336 335 334 333 331 332 331 330 328 328 334 329 328 328 327 326 325 325 325 324 325 325 324 324 324 324 324 322 321 318 315
317 325 327 329 330 330 332 334 336 336 337 335 337 336 334 333 330 331 333 331 330 330 330 330 329 328 328 326 325 324 325 326 325 325 324 324 324 324 324 322 320 319 317

GFSSE_850_thetae_117.txt.gz
Theta_e
326 330 333 336 338 338 336 335 335 333 333 333 333 336 340 341 341 340 337 335 335 334 334 336 335 336 337 336 334 335 335 336 338 336 335 337 336 334 333 333 333 333 333
326 330 332 336 337 337 337 336 335 334 333 333 333 332 337 341 342 340 339 338 337 335 335 334 334 335 336 334 333 334 336 337 337 335 336 336 335 334 333 332 331 332 333
326 327 330 334 335 336 337 336 335 334 334 333 332 332 334 338 340 340 340 339 338 336 335 334 334 336 336 334 333 334 335 338 335 336 338 338 337 334 332 332 332 333 333
324 325 329 331 332 334 335 335 335 334 334 333 332 333 333 336 336 338 337 338 337 335 334 333 334 336 337 334 332 333 335 335 334 336 336 337 336 333 333 333 333 332 331
325 326 327 327 329 331 332 333 333 334 334 333 333 333 333 333 333 333 335 334 332 332 333 333 333 335 336 333 330 332 332 331 334 336 334 336 336 333 332 332 332 331 330
326 325 323 323 324 326 328 330 330 333 334 334 334 334 333 332 330 330 330 330 331 332 333 333 333 334 333 330 329 329 331 330 333 335 334 336 335 333 332 332 331 330 328
324 322 322 322 322 322 322 324 324 330 332 333 334 334 334 332 331 330 330 330 331 332 333 333 333 332 330 328 327 329 331 333 332 334 333 335 333 333 332 332 331 330 329
323 322 322 321 320 320 320 321 323 327 328 330 334 334 335 334 333 332 331 331 332 332 332 333 332 330 327 326 328 330 331 332 334 333 332 333 334 333 332 332 332 331 329
322 322 321 320 320 320 320 320 321 325 328 329 332 334 334 335 334 333 332 331 332 332 332 332 330 327 326 327 328 330 331 332 334 333 333 334 334 332 332 332 331 330 327
322 322 321 320 320 320 320 320 320 324 328 329 331 333 334 335 335 334 333 332 332 333 331 330 327 326 326 326 327 330 331 331 333 332 332 333 333 332 332 332 331 328 326
322 322 321 320 319 319 320 320 321 322 328 331 332 333 335 335 335 335 334 333 332 333 330 328 327 327 326 326 328 330 329 331 332 331 331 332 332 332 331 332 329 327 324
322 322 321 320 319 319 319 320 321 323 325 332 334 334 334 334 334 334 335 334 333 332 329 329 328 326 327 327 328 330 330 329 331 331 331 331 331 329 330 329 327 326 322
325 323 322 321 319 319 320 319 321 324 324 326 332 333 333 334 334 334 334 334 334 332 329 332 329 327 327 327 327 328 331 330 329 330 330 330 330 331 330 328 327 326 324
326 325 322 322 320 320 320 319 319 322 323 322 327 332 333 333 333 332 333 334 334 332 331 333 329 328 328 327 326 327 330 330 329 329 327 326 328 328 328 325 325 323 322
330 325 323 322 321 320 320 320 319 319 322 323 322 328 331 331 330 330 332 334 334 334 334 334 329 329 328 327 326 327 330 329 328 328 327 327 325 327 327 326 324 323 320
318 330 323 323 321 320 320 320 320 319 319 321 322 321 327 329 329 329 331 333 334 335 335 333 331 330 328 327 326 326 328 330 329 329 328 327 326 326 327 328 326 324 322
322 321 329 323 322 321 320 320 321 320 319 320 321 320 322 326 328 329 330 333 334 335 334 332 332 331 328 327 326 325 326 327 328 329 328 327 327 326 327 329 326 325 322
319 327 324 327 323 322 321 321 321 321 320 320 321 321 320 323 326 328 329 331 333 334 334 333 332 332 329 328 326 326 326 326 325 327 328 327 327 326 326 327 325 324 323
316 316 317 332 327 326 324 322 321 322 322 321 321 322 320 321 324 327 328 330 331 332 334 333 333 332 331 330 328 326 326 327 327 326 326 326 326 327 326 327 325 324 322
313 314 316 320 335 331 329 325 324 323 323 323 322 321 322 320 321 326 328 329 330 330 331 333 333 332 331 331 330 329 328 328 327 327 327 326 326 327 326 326 324 323 321
314 314 324 327 334 335 333 329 330 328 325 325 324 323 323 322 321 322 326 328 329 330 330 331 332 332 331 330 329 329 328 329 327 326 326 325 325 326 326 325 325 323 320
314 314 333 334 335 336 334 334 335 335 331 327 327 326 326 324 323 322 322 327 328 329 330 330 331 331 331 330 329 328 327 326 326 326 325 325 325 325 325 325 324 323 320
314 317 335 337 338 337 336 336 336 336 335 332 329 328 328 326 325 324 323 324 327 329 329 330 330 331 330 329 328 328 325 324 325 324 324 325 325 325 325 325 325 323 320
316 315 326 338 339 338 336 336 335 333 334 334 334 331 330 330 328 327 325 324 324 326 328 329 330 331 330 328 328 327 326 325 325 324 323 324 324 324 325 325 325 324 321
317 320 319 324 338 336 336 336 336 336 335 334 336 335 334 333 331 330 328 328 327 326 326 326 329 330 331 330 327 327 326 325 325 324 324 324 324 325 324 325 325 324 321
312 319 322 327 331 334 335 338 338 335 335 335 335 336 335 335 334 332 330 329 330 330 328 327 327 329 329 327 327 327 326 325 325 325 325 324 324 324 324 324 325 324 321

GFSSE_850_thetae_123.txt.gz
Theta_e
338 344 335 334 334 337 341 337 335 333 334 338 342 343 342 339 337 334 332 331 330 331 334 336 336 334 333 333 332 334 335 334 335 337 336 336 335 334 333 334 337 334 333
340 342 334 335 335 338 338 337 334 333 334 341 342 343 342 340 338 335 333 332 331 335 335 335 334 334 334 336 335 333 335 336 337 336 337 336 334 333 331 334 337 334 333
341 343 334 334 335 335 337 336 335 333 333 338 341 342 342 341 338 336 334 334 334 335 335 336 336 336 336 335 334 335 335 337 336 335 337 333 331 333 334 335 334 333 333
343 350 334 333 334 335 337 336 335 334 333 334 337 339 342 341 338 337 335 335 335 335 335 335 335 335 336 334 335 333 334 336 335 336 338 338 337 333 333 333 333 333 332
344 348 343 333 334 336 337 336 335 335 333 333 334 336 340 341 339 338 336 337 336 335 335 334 334 336 335 334 333 334 334 337 334 336 339 337 336 333 332 332 333 333 333
345 348 346 337 335 337 337 336 335 334 334 334 333 334 339 341 340 339 338 338 337 336 335 334 334 335 335 334 334 333 334 334 335 340 342 338 338 333 332 333 333 332 331
345 347 347 339 337 338 337 335 334 333 334 334 333 333 336 340 340 339 338 337 337 335 334 333 334 336 336 334 332 331 332 332 335 339 340 337 337 334 333 334 333 332 326
343 347 349 342 339 338 337 335 332 331 334 335 334 333 335 337 338 338 336 336 334 333 334 334 334 335 335 332 330 330 331 331 336 338 338 338 337 335 333 333 332 329 328
347 347 349 341 339 338 337 335 332 331 332 334 334 334 335 336 335 336 335 334 333 333 334 334 333 333 332 330 329 328 330 332 335 336 338 336 336 334 333 332 331 329 329
345 349 348 347 340 338 338 335 334 332 332 334 334 334 335 335 334 334 333 333 333 333 333 333 333 333 329 328 328 329 327 329 331 336 335 335 335 334 333 332 331 330 329
338 346 348 348 346 343 342 336 334 334 334 334 334 334 334 334 333 333 333 334 332 333 333 333 333 330 328 328 328 329 330 333 334 334 333 330 330 333 333 332 331 331 329
321 339 346 347 346 345 343 342 335 332 333 334 334 334 335 339 340 340 338 334 333 333 333 333 331 328 328 331 328 327 328 336 333 333 333 330 330 328 333 332 331 330 328
317 321 341 344 344 338 343 342 341 340 339 338 338 339 338 340 340 342 338 335 333 333 333 332 329 328 329 336 336 335 335 336 335 333 332 331 329 330 329 331 331 330 328
315 317 329 342 342 339 336 340 337 339 339 339 340 340 339 340 340 339 340 340 336 335 337 333 333 335 335 336 335 335 336 336 335 332 331 329 328 330 330 325 328 329 327
312 315 317 333 340 337 335 340 337 339 334 339 340 339 338 340 339 340 340 339 338 338 338 336 336 335 335 335 335 335 334 334 334 334 331 330 329 328 327 325 325 326 326
310 312 314 318 337 340 337 339 339 339 338 333 338 342 338 338 339 339 339 339 338 338 336 336 336 335 336 335 334 334 334 333 334 334 331 329 328 327 327 327 326 327 324
310 310 312 315 326 338 339 338 339 339 338 323 323 340 338 338 340 340 338 338 337 338 336 335 335 335 335 334 334 334 333 332 333 333 333 330 329 328 327 327 327 326 326
309 309 310 312 316 335 337 337 338 338 336 324 321 325 341 339 338 337 338 339 336 336 336 336 336 336 334 334 333 333 333 333 332 332 332 331 329 329 328 327 326 327 326
309 309 310 310 313 321 337 336 337 337 337 332 327 323 333 341 337 334 339 337 339 336 337 336 337 337 334 334 333 333 333 332 332 331 331 331 331 329 329 328 326 326 326
309 309 309 310 312 315 333 336 336 337 337 336 335 337 325 330 337 335 334 332 331 334 332 335 337 335 336 333 334 333 332 332 331 331 330 331 332 329 329 328 327 326 326
308 308 309 309 312 315 326 336 335 337 335 332 334 336 335 323 329 333 333 332 330 334 330 332 334 335 337 334 334 332 332 332 331 332 333 332 332 330 329 328 328 327 327
314 314 314 314 316 317 318 334 335 336 335 331 333 335 338 326 321 331 328 328 328 334 330 332 333 334 336 335 334 332 332 330 330 328 329 330 330 330 330 328 327 328 327
308 310 313 314 314 317 320 334 335 337 334 334 333 335 336 336 325 326 327 326 327 329 329 333 331 332 333 333 334 332 331 330 329 332 328 329 329 329 329 328 328 327 327
302 302 307 309 313 316 321 332 334 336 335 334 334 334 336 337 331 324 325 326 327 327 327 329 329 330 330 333 334 333 332 330 329 328 330 330 328 329 330 327 327 328 327
299 300 305 309 312 312 311 331 336 335 336 335 334 335 336 337 336 325 325 326 326 326 326 328 329 329 328 330 332 333 331 333 331 330 329 329 329 328 327 327 327 326 326
297 299 302 306 310 316 319 332 335 334 337 336 336 337 337 337 334 336 327 325 325 325 326 327 329 329 328 328 332 331 331 331 330 330 330 330 329 328 326 327 327 326 326

GFSSE_850_thetae_129.txt.gz
Theta_e
340 342 332 328 329 331 333 333 333 332 331 332 337 341 341 340 336 332 331 330 329 329 327 324 323 325 334 338 339 340 339 339 337 336 335 335 335 334 333 333 332 332 333
340 343 341 335 331 333 334 334 333 332 331 332 335 339 341 341 338 333 332 331 330 328 328 331 331 330 332 335 335 332 334 336 335 335 335 335 334 333 333 334 332 333 333
340 344 344 339 337 334 338 335 333 331 331 333 335 339 341 341 339 336 334 333 332 333 334 335 335 334 333 333 334 333 334 335 336 335 335 334 333 333 336 330 333 333 332
344 346 347 345 339 337 339 336 334 332 332 332 334 338 341 341 340 338 335 335 334 334 334 334 334 335 335 335 334 334 334 334 335 336 335 333 333 333 334 332 332 332 332
346 350 348 346 341 338 339 336 334 333 332 331 333 336 339 340 340 338 336 335 335 334 334 334 334 333 334 335 333 334 334 334 334 335 334 331 333 334 335 334 332 332 332
350 349 348 345 341 340 339 336 335 333 332 330 332 333 335 337 339 339 337 336 337 335 335 334 333 333 334 334 333 333 334 334 334 335 334 331 331 335 334 332 332 332 331
344 349 347 347 342 339 338 337 335 334 333 331 331 331 333 335 338 339 338 336 336 335 335 334 332 333 335 334 333 332 334 331 335 334 328 329 332 335 333 332 332 332 328
328 344 348 348 348 345 338 337 336 335 333 332 331 331 331 332 337 339 338 337 336 334 335 333 332 333 335 335 333 331 332 330 336 334 332 331 333 335 333 332 332 332 326
326 323 343 347 347 345 342 338 336 335 334 332 332 331 330 331 335 339 338 337 335 334 333 333 332 333 335 334 330 329 329 330 333 333 335 332 331 335 333 332 332 331 325
315 318 320 337 339 346 342 338 337 336 335 334 333 332 331 331 334 338 338 337 335 333 332 332 333 333 333 332 329 327 328 330 331 332 333 331 334 332 333 332 332 331 327
313 313 318 322 334 339 345 339 337 336 335 334 334 333 332 332 334 337 337 337 334 333 332 332 332 332 332 330 327 326 328 328 331 330 332 332 332 334 333 332 332 330 329
311 311 311 321 327 337 339 342 338 337 336 334 334 332 331 333 334 335 334 336 334 333 332 333 333 332 332 328 326 327 326 328 329 329 330 331 329 330 333 333 332 330 330
310 310 310 311 320 333 338 341 342 338 338 335 334 334 331 332 334 335 334 335 334 333 332 332 332 332 331 327 328 326 326 329 334 332 330 331 330 329 330 330 332 331 329
309 309 310 310 310 322 336 340 340 344 341 340 335 334 333 332 333 334 333 333 333 333 332 331 331 332 329 328 333 334 331 332 333 335 332 330 330 329 328 327 328 327 328
310 310 310 310 310 310 316 333 337 338 342 342 338 334 333 332 332 333 335 334 335 334 333 332 332 332 327 333 335 334 333 334 333 332 332 330 330 329 329 328 326 327 327
312 311 311 311 310 309 310 314 331 336 339 342 339 335 332 331 331 334 338 336 336 336 335 332 332 332 328 334 336 334 333 333 332 331 331 331 329 329 328 327 327 325 327
311 311 312 312 312 311 310 309 318 327 337 340 339 340 337 333 334 335 338 338 336 335 336 335 335 333 333 334 334 333 332 332 332 331 331 331 329 329 328 326 327 326 326
308 310 311 311 311 312 311 311 309 311 330 334 337 340 339 337 334 336 337 339 337 336 336 335 335 335 334 333 333 333 332 332 331 330 330 330 330 329 328 327 327 327 326
306 306 307 310 311 311 312 313 313 309 322 331 335 339 340 340 339 335 335 337 337 337 337 335 336 334 333 333 333 332 332 331 330 330 329 329 329 329 329 328 327 327 326
304 304 303 304 308 310 310 310 311 311 311 327 333 336 339 339 339 335 336 337 337 337 336 335 335 334 333 333 333 332 331 332 330 330 329 328 328 327 328 328 329 328 327
300 302 301 300 304 308 311 312 310 310 318 326 325 332 338 337 338 335 337 338 336 336 336 333 333 333 334 334 334 332 332 331 331 329 328 329 328 328 327 329 328 328 328
297 297 298 298 300 303 306 311 312 314 313 325 328 329 331 338 337 335 336 337 335 336 337 335 333 333 334 334 335 333 332 332 331 330 330 330 330 328 328 327 327 326 327
294 295 294 294 296 300 303 307 311 313 314 316 324 327 330 337 337 333 336 337 336 338 337 335 335 333 334 335 335 333 333 332 331 330 330 330 331 330 330 329 328 327 327
291 291 292 294 295 298 301 304 307 310 312 313 317 322 331 333 336 334 334 333 337 338 337 335 335 334 334 334 335 334 331 329 329 330 329 330 331 330 330 327 327 327 326
290 290 292 293 294 296 299 302 304 307 309 312 312 318 324 331 336 334 333 333 328 338 339 338 336 333 333 332 334 334 333 331 332 333 331 331 329 329 327 327 326 325 325
291 292 293 294 295 296 298 301 303 305 307 308 311 311 317 321 332 336 335 336 332 332 329 327 332 333 335 334 333 333 333 333 330 330 331 332 331 330 329 328 328 326 326

GFSSE_850_thetae_132.txt.gz
Theta_e
341 340 335 334 334 332 332 332 332 332 332 334 337 341 341 340 336 332 331 329 329 333 331 328 327 331 335 339 339 339 338 338 337 335 334 336 334 334 334 334 333 333 333
338 340 341 336 335 335 333 333 332 331 331 331 336 340 340 340 338 334 333 331 329 328 325 325 323 329 335 337 336 334 332 336 335 334 335 335 335 334 334 332 332 332 334
343 342 344 340 337 337 337 334 332 331 330 331 334 338 340 341 339 335 334 333 330 328 329 331 330 330 333 334 333 333 333 334 335 335 335 335 335 334 333 331 332 333 333
344 347 346 344 342 339 339 335 333 331 330 331 332 337 340 340 339 337 335 334 332 333 333 334 334 333 333 334 334 334 334 336 334 335 335 334 333 334 334 331 332 332 332
349 349 348 347 343 340 339 336 334 332 331 330 332 336 340 340 340 338 336 334 334 334 333 333 334 334 334 335 334 333 334 335 334 334 334 332 332 333 334 333 333 333 332
344 348 347 347 342 341 340 337 334 332 332 330 331 334 337 339 339 338 337 335 335 334 334 334 333 332 334 334 333 333 334 334 334 334 334 332 331 333 335 333 333 332 332
326 338 346 346 348 344 341 338 335 333 333 331 331 334 335 337 337 338 337 336 336 335 334 334 332 332 333 333 332 332 334 332 332 333 332 330 329 329 333 332 332 332 329
320 318 326 338 343 346 346 339 336 334 333 332 331 332 334 335 336 338 338 337 336 335 334 333 332 332 334 334 333 331 333 330 332 333 329 329 330 329 332 332 333 332 327
319 315 316 321 325 336 343 343 338 335 334 333 332 332 332 333 335 337 338 337 336 334 334 333 332 332 334 334 332 330 331 330 331 332 330 330 329 332 332 332 332 332 325
312 311 311 328 328 329 338 342 340 337 335 334 333 332 332 333 334 336 338 337 337 334 333 332 332 332 334 334 330 328 329 330 332 331 333 332 329 334 333 331 332 331 326
310 310 311 313 332 340 337 338 341 338 336 335 334 333 332 333 334 336 338 337 337 334 332 331 332 332 333 333 329 327 327 330 332 330 331 332 333 333 333 333 332 331 328
309 309 310 310 310 316 336 339 340 340 337 336 334 333 333 332 333 334 336 337 336 334 332 332 332 332 332 332 328 326 328 328 330 330 331 331 331 332 333 332 332 331 329
309 309 310 310 310 310 310 331 339 339 341 338 336 334 333 333 333 334 336 336 336 334 332 331 332 332 332 331 327 327 327 327 328 331 330 330 329 328 331 332 332 331 330
309 309 309 309 309 309 309 310 319 338 338 342 340 335 333 332 333 333 335 335 335 334 332 331 331 331 332 329 327 327 326 328 331 332 330 330 330 329 329 330 330 331 330
310 310 309 309 309 309 309 309 310 311 334 338 339 342 338 333 331 332 334 334 333 333 332 331 331 331 332 328 332 333 332 332 332 332 333 331 329 329 329 328 327 328 330
310 310 311 310 310 310 310 310 310 311 314 332 335 339 342 337 332 332 333 333 332 333 332 332 331 331 331 328 332 332 333 332 332 331 331 331 330 329 329 328 327 327 328
307 307 307 309 311 311 310 311 311 310 310 315 328 335 339 337 334 332 333 333 332 333 335 334 332 332 332 329 333 332 333 332 331 331 331 331 330 329 328 328 327 327 326
305 306 306 306 307 308 310 310 311 311 310 309 310 322 335 340 337 334 334 334 333 335 336 336 335 332 332 330 332 334 333 331 331 331 331 330 329 329 328 328 326 327 325
305 304 304 304 304 305 306 308 310 311 312 310 310 316 328 337 339 337 334 334 336 337 337 335 335 334 333 332 333 332 332 332 331 330 329 329 329 329 329 328 326 326 326
303 302 302 302 300 301 303 305 307 309 311 312 311 310 326 331 337 336 336 334 336 338 339 335 335 334 334 333 332 332 331 332 331 330 329 328 327 327 327 327 328 328 327
300 300 299 299 300 298 300 302 304 307 310 311 310 310 314 329 333 337 336 336 335 338 337 335 336 334 334 333 331 332 332 332 331 329 330 329 327 327 327 327 327 327 328
296 296 297 297 296 296 297 299 301 303 308 309 311 309 312 321 330 333 336 335 336 337 337 335 336 335 335 333 332 333 333 332 331 330 329 329 328 328 328 327 326 327 327
295 296 296 295 294 295 297 297 300 301 304 309 310 311 315 322 322 331 335 335 334 335 337 336 336 334 334 333 333 333 332 331 331 330 329 329 329 329 329 328 328 328 327
294 294 293 293 294 294 295 296 297 299 301 306 310 312 313 320 324 326 331 335 335 333 337 335 336 335 333 331 334 334 331 330 331 332 330 330 329 329 330 330 329 329 329
293 292 292 293 294 294 295 295 297 298 300 302 306 310 312 313 317 324 326 333 335 334 334 336 337 337 334 332 333 334 333 331 329 328 329 329 330 329 329 329 327 327 326
292 291 292 293 294 294 294 295 297 299 300 302 304 307 311 311 311 313 321 326 333 334 334 336 335 336 335 334 333 334 333 332 330 329 329 329 328 329 330 328 327 327 327

GFSSE_850_thetae_138.txt.gz
Theta_e
342 340 339 337 336 336 336 336 337 337 338 337 337 339 337 335 333 332 330 330 331 333 334 332 333 333 334 334 337 339 338 336 337 335 333 335 337 335 334 334 333 332 333
341 340 339 338 336 335 336 335 336 336 336 337 338 338 338 336 333 332 332 330 329 330 331 332 329 332 333 333 334 337 334 333 335 333 334 335 334 334 334 333 332 332 332
344 342 340 339 338 337 337 336 335 334 335 336 338 338 338 336 334 332 332 331 330 329 329 326 327 328 331 332 334 333 332 334 333 333 334 334 334 334 333 332 331 333 333
346 344 344 344 343 342 338 338 335 333 333 335 338 338 337 336 334 332 332 332 330 328 326 326 325 328 331 332 332 333 333 332 334 334 334 335 335 334 332 332 331 333 333
346 346 345 344 343 341 340 339 336 334 333 334 337 338 337 337 335 333 333 333 331 330 330 331 331 331 332 332 333 333 332 332 334 333 334 334 334 334 333 332 332 332 332
340 342 344 343 344 345 343 341 340 335 334 335 336 338 338 337 336 335 333 333 332 332 332 332 333 332 333 334 333 333 332 332 333 333 334 333 332 333 333 331 332 332 332
321 321 336 341 341 341 341 344 341 338 335 334 336 337 338 338 337 335 334 333 332 333 332 332 332 333 333 333 333 333 332 331 333 333 333 333 331 332 332 331 331 332 332
311 312 325 338 342 340 342 343 343 341 337 335 335 336 338 338 337 336 335 334 333 333 333 332 332 332 332 333 332 333 331 331 332 333 332 332 331 330 333 329 330 332 332
311 313 325 334 335 337 338 342 342 343 340 336 334 334 335 337 337 337 336 335 334 333 334 333 333 332 331 332 332 332 331 331 330 332 331 329 329 329 330 329 332 332 331
309 310 310 311 313 317 323 333 338 340 340 338 336 334 333 334 336 337 337 336 335 334 334 333 332 331 331 332 332 332 330 330 329 330 330 328 329 329 330 332 332 332 331
309 309 309 309 309 309 309 310 318 334 338 340 337 336 334 333 332 334 336 336 336 335 335 334 332 331 330 332 333 333 330 329 328 330 330 330 329 330 330 332 332 332 331
309 309 309 308 308 308 308 309 309 309 317 332 339 338 336 334 333 331 333 336 336 336 335 335 333 332 331 331 333 333 329 328 327 329 329 329 331 329 332 332 331 332 332
308 308 308 308 309 309 309 308 308 308 309 309 319 330 337 337 336 334 331 334 335 336 336 336 333 332 331 331 332 332 329 327 326 328 328 329 330 330 331 332 332 332 332
307 308 308 308 309 309 309 310 310 309 309 308 309 309 314 325 337 336 334 333 333 335 336 336 334 332 330 331 331 331 329 326 326 327 328 327 327 330 330 330 331 332 332
307 307 307 308 308 309 310 310 310 310 310 310 309 309 309 311 326 336 336 335 332 334 336 336 335 332 330 331 331 331 329 325 326 325 327 330 328 329 329 329 330 331 331
306 307 307 308 309 309 309 310 310 310 310 310 310 310 309 309 311 324 334 337 334 332 334 336 335 333 331 330 331 331 329 326 326 326 328 330 329 328 329 328 329 329 329
304 305 307 308 308 308 309 310 310 309 309 309 309 309 309 309 310 312 319 327 336 335 332 334 335 335 332 331 331 331 329 326 326 326 329 331 330 330 328 328 328 328 328
304 305 305 306 307 307 307 307 307 307 308 308 308 308 308 309 310 311 313 320 326 337 335 333 335 335 334 332 331 331 329 329 329 330 330 330 330 329 329 328 328 328 327
303 303 304 305 305 305 305 305 306 306 306 306 307 307 307 306 308 311 312 314 320 330 337 334 332 334 334 333 332 331 330 331 331 331 330 329 329 328 328 328 327 327 327
302 302 303 303 303 303 303 303 304 304 304 304 304 305 304 305 306 311 313 317 328 329 335 336 332 333 333 332 332 331 330 330 331 331 331 329 329 328 328 327 328 327 327
302 302 301 301 300 300 300 299 299 300 301 301 302 303 303 303 304 308 313 316 328 323 326 334 334 334 334 332 332 331 331 329 331 330 331 330 328 327 327 326 327 327 327
300 300 301 300 299 298 297 296 296 296 296 296 296 301 301 302 303 304 308 313 322 327 324 332 337 337 333 333 333 332 331 331 330 331 330 331 328 327 327 327 325 325 325
300 300 299 298 297 296 295 295 295 296 295 294 294 296 299 301 302 303 306 309 318 324 327 320 333 334 336 334 332 332 331 330 330 331 331 331 330 328 328 327 326 326 326
299 298 297 296 295 294 293 292 290 290 292 293 293 295 297 299 301 302 304 307 313 320 325 325 327 329 334 333 334 333 331 330 331 332 331 331 331 329 328 328 327 327 327
298 296 295 293 294 294 292 291 291 291 292 293 295 296 297 298 299 302 303 307 310 313 324 319 325 325 331 331 330 332 332 331 330 329 331 331 330 330 329 328 328 327 327
297 296 293 294 294 292 291 290 289 290 291 292 295 297 298 298 300 302 304 305 309 312 315 322 318 320 326 331 330 330 331 331 331 329 329 330 329 329 328 329 328 328 328

GFSSE_850_thetae_141.txt.gz
Theta_e
343 340 339 338 338 338 338 338 339 338 338 337 337 336 335 334 333 331 328 329 329 332 332 332 333 334 333 333 336 339 340 337 336 336 333 334 336 336 335 334 332 332 333
341 340 339 338 337 337 337 337 337 338 338 337 336 336 335 335 334 333 331 329 328 329 331 331 332 331 333 334 337 338 336 333 335 333 333 335 335 334 334 333 332 332 332
342 340 339 339 338 338 338 337 337 337 337 337 337 336 336 334 333 333 332 331 329 329 329 330 328 329 331 334 334 336 333 332 334 332 334 334 334 333 333 332 331 331 331
345 345 344 343 341 340 339 338 336 335 335 337 337 337 336 334 333 332 332 331 330 329 328 326 325 326 329 332 333 332 333 333 332 334 334 334 334 333 332 332 332 332 332
345 343 340 341 343 340 340 339 337 336 335 335 337 338 336 335 333 332 332 333 331 329 328 328 327 327 330 332 332 333 333 332 333 333 334 335 335 333 332 332 331 332 332
335 340 338 338 342 343 343 341 340 337 336 336 337 338 337 335 335 333 332 332 331 331 331 331 331 332 332 332 333 333 332 332 332 332 333 334 334 334 332 332 331 332 332
314 325 333 335 338 340 341 343 342 339 337 336 337 338 338 337 335 334 333 332 331 332 331 331 331 332 332 332 333 333 332 332 332 332 333 333 332 332 333 332 332 332 332
314 317 327 333 334 333 337 341 342 342 339 336 335 337 337 338 337 335 334 333 333 332 332 331 331 332 332 331 332 333 332 331 331 332 332 332 332 331 333 332 331 332 332
310 313 318 321 321 322 327 336 338 340 340 338 336 335 335 336 337 337 335 334 334 333 333 333 332 332 332 331 332 332 332 331 332 332 332 332 331 331 331 332 329 331 332
309 309 309 309 309 309 309 310 318 332 336 339 338 336 334 334 335 335 336 336 334 334 333 334 333 332 332 331 332 332 332 331 332 330 331 332 328 329 331 328 329 332 331
309 309 308 308 308 308 308 308 309 309 314 324 335 337 336 335 334 333 334 335 336 335 334 334 334 333 332 331 332 332 332 331 330 329 330 329 329 329 329 331 332 332 331
309 308 308 308 308 308 308 308 308 308 308 309 310 317 331 336 336 334 333 333 334 335 334 334 334 333 333 331 331 333 333 331 329 328 329 330 330 329 330 329 331 332 332
308 308 308 308 308 309 309 309 309 309 309 309 308 309 309 311 328 336 336 333 333 333 334 334 334 334 333 332 331 332 333 331 328 327 328 328 329 331 329 332 332 332 332
307 307 307 308 308 308 308 309 309 310 310 310 311 310 309 309 309 313 326 336 334 333 335 335 335 334 334 332 331 332 332 332 328 326 327 328 327 330 331 331 332 331 331
307 307 308 308 309 309 309 309 310 310 310 310 310 311 310 310 309 309 315 327 335 335 333 336 335 335 335 333 331 332 332 332 328 326 327 328 327 326 329 330 330 331 331
306 307 307 308 308 309 309 310 310 310 310 310 311 310 310 310 310 310 309 319 322 329 336 334 335 334 334 334 331 332 332 331 329 326 326 326 328 329 329 329 329 330 331
304 305 306 306 306 306 307 307 307 308 308 308 308 309 309 309 309 309 309 310 314 320 323 336 335 335 335 334 333 331 332 331 330 326 326 327 330 328 328 329 329 329 330
303 304 304 304 304 305 306 306 306 306 306 306 307 307 307 307 308 308 308 309 311 319 327 330 335 336 335 333 333 331 331 331 330 326 327 328 330 331 330 328 328 328 329
303 304 304 304 305 305 305 305 305 305 305 305 306 306 306 306 306 307 307 307 309 312 323 328 329 336 336 334 333 333 331 331 331 327 327 328 330 330 329 328 327 328 328
303 303 303 303 303 304 304 304 304 304 304 303 304 304 304 304 304 305 306 305 307 312 320 331 331 331 334 334 334 333 332 331 331 328 328 330 330 329 328 328 327 327 327
302 302 302 302 302 302 301 301 302 301 302 302 302 302 302 302 303 303 304 304 305 310 320 326 331 328 332 335 336 337 333 332 331 330 331 330 330 329 329 328 328 327 327
301 301 301 301 301 299 297 296 295 294 295 295 296 296 298 300 300 301 302 303 303 306 312 325 325 330 329 328 334 334 333 333 332 331 331 331 330 330 328 328 327 326 327
299 300 301 300 299 298 296 295 293 293 292 292 293 295 296 297 297 299 300 302 302 308 310 319 321 322 322 327 332 332 331 330 331 331 330 331 331 331 329 327 326 326 326
298 299 300 300 300 299 297 295 290 290 290 291 293 295 296 298 298 298 299 301 301 305 308 316 319 323 321 318 323 333 331 331 331 332 330 331 330 330 331 329 327 327 325
297 298 299 299 300 298 296 290 289 289 289 290 291 293 297 300 300 299 300 300 301 302 306 314 322 326 325 323 325 329 332 331 330 331 331 330 331 330 331 330 328 327 326
295 296 297 298 298 298 294 290 288 288 289 289 290 291 294 296 298 301 300 301 303 304 305 314 320 325 324 323 324 326 329 331 331 330 330 331 329 330 330 330 329 328 328

GFSSE_850_thetae_144.txt.gz
Theta_e
348 345 340 339 339 339 339 339 339 338 337 337 336 336 337 335 333 331 329 328 328 332 331 332 334 334 332 333 334 337 335 339 336 337 332 334 336 336 335 335 334 340 333
347 344 339 338 338 338 338 338 338 338 338 337 336 337 337 337 335 333 332 330 328 329 330 331 332 334 333 334 337 339 339 335 333 335 332 335 336 336 335 334 334 337 333
346 345 339 339 339 339 338 338 337 337 337 338 336 336 337 338 337 335 334 331 329 329 329 330 331 332 333 334 335 337 336 333 333 332 333 341 340 335 334 333 334 333 334
345 344 343 343 341 340 339 338 337 336 336 337 337 336 336 337 337 336 334 332 330 329 329 329 329 328 331 332 334 334 333 333 334 332 337 341 341 334 333 333 332 332 331
345 341 340 342 342 340 340 339 338 336 336 336 337 337 336 336 336 336 334 333 331 329 328 327 326 327 328 330 333 332 333 333 332 334 341 341 341 335 333 332 332 331 332
335 338 336 335 339 341 343 342 340 339 336 337 338 338 336 335 335 334 333 333 333 331 328 328 328 328 329 331 332 332 333 332 332 339 340 340 341 338 333 332 331 332 332
315 323 330 331 332 334 336 340 343 341 339 336 337 338 338 336 335 334 333 333 332 331 330 330 331 331 332 332 332 333 333 332 333 339 340 341 340 335 332 332 332 331 332
314 316 322 327 328 328 329 332 336 341 342 339 336 337 337 337 336 335 334 333 333 331 332 331 331 332 332 332 333 333 333 332 332 338 339 339 337 333 333 333 332 332 332
309 310 312 313 313 313 315 316 321 330 336 339 339 336 335 336 337 337 335 334 333 333 333 332 331 331 332 333 333 333 333 333 336 338 338 337 337 331 332 333 332 331 332
308 308 308 308 309 309 309 309 309 310 318 325 334 338 336 335 335 335 336 335 334 334 334 333 333 332 332 332 332 333 333 333 333 338 337 336 335 331 331 331 332 330 332
308 309 308 308 308 308 308 308 308 308 309 309 310 321 335 337 337 337 338 335 335 334 334 334 333 333 333 333 332 333 333 334 336 338 336 335 331 329 329 330 330 330 332
308 308 309 308 308 308 309 309 309 309 309 308 308 309 309 315 331 336 336 335 333 333 335 334 334 333 333 336 336 333 333 338 339 338 336 334 330 328 329 330 330 332 332
308 308 308 309 309 309 309 309 309 309 310 310 310 310 310 310 309 310 329 337 336 333 332 334 334 334 336 337 337 338 337 338 339 338 336 331 330 329 329 331 330 332 332
307 308 308 308 309 309 310 310 310 310 310 310 310 310 310 310 311 310 309 311 332 337 337 335 332 334 337 338 339 337 338 339 338 337 336 330 329 329 330 331 330 331 331
307 307 308 308 309 309 310 310 310 310 310 311 311 311 311 311 311 311 311 310 310 325 335 337 336 334 335 337 339 339 338 338 338 337 336 333 327 327 330 330 332 332 332
306 307 307 307 307 307 307 308 308 308 308 308 308 308 309 309 310 310 311 311 310 310 319 334 336 334 334 334 336 337 338 337 338 338 336 335 329 328 327 329 331 332 332
303 304 305 306 306 306 306 306 306 306 307 307 307 307 307 307 308 308 309 310 310 310 325 326 329 334 334 334 335 335 337 337 337 338 336 334 334 328 327 328 330 330 330
302 304 304 305 305 305 305 305 305 304 305 305 305 306 306 306 307 308 307 308 309 309 311 325 327 329 333 337 335 335 335 336 336 337 337 335 334 334 330 329 329 329 329
301 303 304 304 303 303 303 302 301 301 301 301 302 302 302 304 305 306 306 306 307 308 309 314 321 326 329 334 336 334 336 336 335 336 336 335 334 335 335 331 328 329 328
301 303 303 303 302 302 299 299 298 298 298 298 299 299 300 300 300 300 302 304 305 307 308 311 316 326 328 332 336 335 332 335 335 335 336 335 335 335 335 335 331 328 328
299 300 299 299 300 300 299 300 299 298 297 296 296 296 296 297 298 297 298 301 303 305 308 308 312 321 328 329 331 335 336 335 334 334 334 334 334 335 334 334 335 333 329
298 298 298 298 299 299 299 297 295 294 294 294 294 294 295 296 297 297 298 298 299 301 304 310 311 318 324 331 329 331 334 334 334 334 334 333 334 334 335 334 334 333 333
297 297 297 297 298 297 296 295 294 293 293 293 292 292 293 295 295 297 298 299 299 299 302 306 312 316 322 326 329 330 331 330 330 334 335 334 334 335 334 334 333 333 332
296 296 296 297 296 295 294 294 292 292 291 291 290 291 292 295 295 296 299 300 300 301 300 302 308 313 321 324 327 327 330 325 330 331 333 333 334 334 334 334 333 333 332
295 295 295 295 295 295 294 293 292 291 290 290 290 290 290 292 295 297 298 299 300 301 301 303 304 312 317 322 323 324 324 329 328 328 332 333 333 333 333 332 332 333 333
294 294 294 294 295 295 294 293 291 291 289 289 288 289 289 291 295 297 299 300 302 301 302 303 304 308 313 318 321 323 321 323 321 323 331 332 333 333 333 332 332 332 332

GFSSE_850_thetae_147.txt.gz
Theta_e
348 343 339 339 339 339 339 339 339 338 337 337 337 336 338 337 336 332 331 330 330 331 332 335 335 333 332 332 333 333 334 335 337 337 336 333 334 336 335 335 335 340 334
347 346 339 338 338 337 337 338 338 338 338 338 336 337 338 338 337 334 333 332 332 332 332 333 336 335 334 332 334 338 339 339 335 335 333 333 336 336 335 335 335 340 333
345 343 339 339 339 339 338 338 337 337 337 338 337 336 337 338 338 336 335 334 332 331 333 333 333 334 334 333 335 337 338 336 333 334 332 341 340 336 335 334 337 336 333
343 344 343 342 341 341 340 339 338 337 335 335 337 336 336 337 338 337 336 335 333 331 331 331 331 333 333 333 334 334 334 333 332 333 333 342 342 336 334 333 334 332 331
330 341 339 340 342 342 341 340 339 338 336 335 335 337 336 336 337 337 336 335 334 331 330 330 330 331 331 331 332 333 333 332 333 332 339 341 339 338 334 333 332 332 331
330 334 337 335 335 334 335 341 342 341 340 337 336 336 337 336 336 336 336 335 334 333 331 330 329 328 328 329 330 333 332 333 333 332 341 339 341 338 333 333 332 332 331
317 323 326 328 327 325 325 327 332 339 342 341 338 337 337 337 336 335 335 335 334 333 333 330 329 329 329 330 331 332 332 333 333 339 339 337 340 339 336 333 332 331 331
313 314 315 317 319 321 321 320 323 328 336 339 340 338 336 337 337 336 335 334 334 333 333 331 330 331 332 332 332 332 333 333 333 337 339 338 340 337 334 332 332 332 331
309 309 309 309 309 309 309 310 310 311 315 324 331 337 338 336 336 337 336 335 334 333 332 332 332 332 332 332 333 333 333 333 333 338 338 338 338 336 333 333 333 332 332
308 309 309 309 308 308 308 308 308 308 309 309 310 318 335 338 335 335 336 336 336 335 333 332 333 333 332 332 332 333 333 333 333 335 338 338 337 337 333 331 333 332 332
309 308 309 309 309 309 309 309 309 309 308 308 308 309 309 320 334 337 337 337 336 336 335 334 333 334 333 333 333 333 333 333 336 337 338 337 336 335 332 331 330 332 331
310 308 309 309 309 309 309 309 309 309 309 309 309 309 309 309 309 310 319 333 335 335 334 335 334 334 334 335 336 333 333 334 337 337 336 336 336 333 330 329 330 332 330
309 308 308 309 309 309 310 310 310 310 310 310 310 310 310 310 310 310 311 311 312 334 335 336 334 334 334 334 337 339 337 333 336 337 337 335 336 333 329 328 330 329 330
308 308 308 309 309 310 310 310 310 310 310 310 311 311 311 311 311 311 311 311 312 319 319 335 337 337 336 334 335 336 339 338 333 337 337 335 336 332 329 329 330 330 332
307 307 308 308 309 309 309 309 308 308 308 309 309 309 309 310 310 310 311 311 311 313 325 325 327 335 336 336 334 336 336 337 335 336 336 336 336 332 329 330 330 331 331
306 306 307 307 307 307 307 307 307 307 307 307 307 307 307 307 307 308 308 310 311 313 317 324 329 329 334 335 336 334 336 336 337 333 336 336 336 334 328 329 330 330 331
305 305 305 305 305 306 306 306 306 306 306 306 306 306 306 306 307 307 307 308 308 310 313 315 324 329 329 333 335 336 334 334 337 336 334 335 336 334 330 328 329 330 332
304 304 304 304 304 305 305 304 304 304 304 304 304 304 304 305 305 305 306 307 309 310 312 314 317 327 330 330 331 336 335 334 334 335 335 333 336 336 334 328 327 328 331
304 304 304 303 303 303 302 303 302 302 302 302 302 302 303 303 303 303 304 306 307 308 310 312 313 318 328 331 331 331 334 336 334 336 335 333 335 335 336 334 327 328 329
304 303 303 303 302 302 302 301 301 301 301 300 300 300 300 300 300 301 301 302 303 305 307 310 312 315 320 327 332 331 332 335 335 333 336 334 333 334 334 335 333 329 329
303 302 302 302 301 301 301 300 300 300 299 299 298 298 297 297 297 297 297 297 298 300 304 307 311 312 313 317 328 330 329 330 337 334 333 336 332 334 333 335 335 334 329
302 301 301 301 300 300 300 299 299 298 298 298 297 296 296 295 295 295 296 297 299 299 302 302 306 310 313 314 322 328 330 330 334 336 333 329 334 334 335 333 335 335 334
301 300 300 300 300 300 299 299 298 298 297 296 294 294 294 293 294 296 296 297 298 299 300 301 302 306 309 315 318 325 328 329 330 332 333 332 332 333 333 333 334 334 334
300 300 299 299 299 299 298 298 296 295 295 293 292 292 292 292 293 294 295 295 297 299 300 301 301 303 305 312 317 324 326 329 330 328 328 331 332 333 333 333 333 334 334
299 298 298 298 298 298 298 296 294 293 293 292 291 291 291 291 291 292 292 295 296 298 301 302 302 302 304 308 314 319 323 327 329 329 329 328 323 329 333 334 332 332 333
297 296 297 296 297 297 297 295 293 292 291 291 290 289 289 290 290 292 293 297 298 299 300 302 303 302 303 306 311 316 322 326 327 327 328 330 330 326 331 333 333 333 333